<?xml version="1.0" encoding="UTF-8" standalone="no" ?>
<gpx xmlns="http://www.topografix.com/GPX/1/1" xmlns:xsi="http://www.w3.org/2001/XMLSchema-instance" xsi:schemaLocation="http://www.topografix.com/GPX/1/1 http://www.topografix.com/GPX/1/1/gpx.xsd" version="1.1" creator="VisuGPX - https://www.visugpx.com">
  <metadata>
    <name>Slip2Bain 2k11 Summer Tour allé par voie verte</name>
    <desc><![CDATA[AR dordogne - oleron par voie verte puis petites routes]]></desc>
  </metadata>
  <trk>
    <name><![CDATA[ACTIVE LOG063557]]></name>
    <trkseg>
      <trkpt lat="45.54542" lon="0.6663">
        <ele>286</ele>
        <time>2011-07-14T04:35:55Z</time>
      </trkpt>
      <trkpt lat="45.54542" lon="0.66629">
        <ele>286</ele>
        <time>2011-07-14T04:36:14Z</time>
      </trkpt>
      <trkpt lat="45.54542" lon="0.66619">
        <ele>286</ele>
        <time>2011-07-14T04:36:21Z</time>
      </trkpt>
      <trkpt lat="45.5454" lon="0.66609">
        <ele>286</ele>
        <time>2011-07-14T04:36:26Z</time>
      </trkpt>
      <trkpt lat="45.54505" lon="0.66544">
        <ele>285</ele>
        <time>2011-07-14T04:36:40Z</time>
      </trkpt>
      <trkpt lat="45.54487" lon="0.66521">
        <ele>284</ele>
        <time>2011-07-14T04:36:44Z</time>
      </trkpt>
      <trkpt lat="45.54447" lon="0.66482">
        <ele>284</ele>
        <time>2011-07-14T04:36:52Z</time>
      </trkpt>
      <trkpt lat="45.54426" lon="0.66465">
        <ele>284</ele>
        <time>2011-07-14T04:36:56Z</time>
      </trkpt>
      <trkpt lat="45.54409" lon="0.66442">
        <ele>284</ele>
        <time>2011-07-14T04:37:00Z</time>
      </trkpt>
      <trkpt lat="45.54323" lon="0.66363">
        <ele>281</ele>
        <time>2011-07-14T04:37:15Z</time>
      </trkpt>
      <trkpt lat="45.54212" lon="0.66252">
        <ele>279</ele>
        <time>2011-07-14T04:37:32Z</time>
      </trkpt>
      <trkpt lat="45.54151" lon="0.66185">
        <ele>280</ele>
        <time>2011-07-14T04:37:42Z</time>
      </trkpt>
      <trkpt lat="45.54117" lon="0.66162">
        <ele>280</ele>
        <time>2011-07-14T04:37:47Z</time>
      </trkpt>
      <trkpt lat="45.54097" lon="0.66154">
        <ele>281</ele>
        <time>2011-07-14T04:37:50Z</time>
      </trkpt>
      <trkpt lat="45.54011" lon="0.6611">
        <ele>281</ele>
        <time>2011-07-14T04:38:04Z</time>
      </trkpt>
      <trkpt lat="45.53989" lon="0.66084">
        <ele>280</ele>
        <time>2011-07-14T04:38:08Z</time>
      </trkpt>
      <trkpt lat="45.53938" lon="0.6593">
        <ele>273</ele>
        <time>2011-07-14T04:38:21Z</time>
      </trkpt>
      <trkpt lat="45.53919" lon="0.65864">
        <ele>272</ele>
        <time>2011-07-14T04:38:28Z</time>
      </trkpt>
      <trkpt lat="45.53932" lon="0.65848">
        <ele>272</ele>
        <time>2011-07-14T04:38:33Z</time>
      </trkpt>
      <trkpt lat="45.54186" lon="0.65647">
        <ele>258</ele>
        <time>2011-07-14T04:39:08Z</time>
      </trkpt>
      <trkpt lat="45.54257" lon="0.65524">
        <ele>251</ele>
        <time>2011-07-14T04:39:17Z</time>
      </trkpt>
      <trkpt lat="45.54292" lon="0.65393">
        <ele>253</ele>
        <time>2011-07-14T04:39:27Z</time>
      </trkpt>
      <trkpt lat="45.54302" lon="0.65356">
        <ele>254</ele>
        <time>2011-07-14T04:39:31Z</time>
      </trkpt>
      <trkpt lat="45.54339" lon="0.65244">
        <ele>257</ele>
        <time>2011-07-14T04:39:47Z</time>
      </trkpt>
      <trkpt lat="45.54357" lon="0.65192">
        <ele>254</ele>
        <time>2011-07-14T04:39:52Z</time>
      </trkpt>
      <trkpt lat="45.5439" lon="0.65138">
        <ele>250</ele>
        <time>2011-07-14T04:39:57Z</time>
      </trkpt>
      <trkpt lat="45.54431" lon="0.65113">
        <ele>244</ele>
        <time>2011-07-14T04:40:01Z</time>
      </trkpt>
      <trkpt lat="45.54477" lon="0.65091">
        <ele>242</ele>
        <time>2011-07-14T04:40:05Z</time>
      </trkpt>
      <trkpt lat="45.54569" lon="0.64969">
        <ele>230</ele>
        <time>2011-07-14T04:40:14Z</time>
      </trkpt>
      <trkpt lat="45.54591" lon="0.6491">
        <ele>232</ele>
        <time>2011-07-14T04:40:18Z</time>
      </trkpt>
      <trkpt lat="45.54601" lon="0.64849">
        <ele>237</ele>
        <time>2011-07-14T04:40:23Z</time>
      </trkpt>
      <trkpt lat="45.54598" lon="0.64789">
        <ele>238</ele>
        <time>2011-07-14T04:40:29Z</time>
      </trkpt>
      <trkpt lat="45.54593" lon="0.64756">
        <ele>238</ele>
        <time>2011-07-14T04:40:33Z</time>
      </trkpt>
      <trkpt lat="45.54558" lon="0.64618">
        <ele>243</ele>
        <time>2011-07-14T04:40:52Z</time>
      </trkpt>
      <trkpt lat="45.54533" lon="0.64511">
        <ele>246</ele>
        <time>2011-07-14T04:41:06Z</time>
      </trkpt>
      <trkpt lat="45.54524" lon="0.64367">
        <ele>245</ele>
        <time>2011-07-14T04:41:22Z</time>
      </trkpt>
      <trkpt lat="45.5452" lon="0.64275">
        <ele>244</ele>
        <time>2011-07-14T04:41:31Z</time>
      </trkpt>
      <trkpt lat="45.54526" lon="0.64235">
        <ele>242</ele>
        <time>2011-07-14T04:41:35Z</time>
      </trkpt>
      <trkpt lat="45.5457" lon="0.64171">
        <ele>239</ele>
        <time>2011-07-14T04:41:43Z</time>
      </trkpt>
      <trkpt lat="45.54628" lon="0.64143">
        <ele>234</ele>
        <time>2011-07-14T04:41:49Z</time>
      </trkpt>
      <trkpt lat="45.54664" lon="0.64068">
        <ele>232</ele>
        <time>2011-07-14T04:41:55Z</time>
      </trkpt>
      <trkpt lat="45.54649" lon="0.64024">
        <ele>234</ele>
        <time>2011-07-14T04:41:58Z</time>
      </trkpt>
      <trkpt lat="45.54618" lon="0.63976">
        <ele>234</ele>
        <time>2011-07-14T04:42:02Z</time>
      </trkpt>
      <trkpt lat="45.54541" lon="0.63795">
        <ele>222</ele>
        <time>2011-07-14T04:42:15Z</time>
      </trkpt>
      <trkpt lat="45.54497" lon="0.63647">
        <ele>213</ele>
        <time>2011-07-14T04:42:26Z</time>
      </trkpt>
      <trkpt lat="45.54498" lon="0.63556">
        <ele>212</ele>
        <time>2011-07-14T04:42:32Z</time>
      </trkpt>
      <trkpt lat="45.54507" lon="0.63512">
        <ele>215</ele>
        <time>2011-07-14T04:42:35Z</time>
      </trkpt>
      <trkpt lat="45.54508" lon="0.63449">
        <ele>213</ele>
        <time>2011-07-14T04:42:39Z</time>
      </trkpt>
      <trkpt lat="45.54494" lon="0.63339">
        <ele>206</ele>
        <time>2011-07-14T04:42:46Z</time>
      </trkpt>
      <trkpt lat="45.54513" lon="0.63256">
        <ele>202</ele>
        <time>2011-07-14T04:42:51Z</time>
      </trkpt>
      <trkpt lat="45.54531" lon="0.63226">
        <ele>200</ele>
        <time>2011-07-14T04:42:53Z</time>
      </trkpt>
      <trkpt lat="45.54552" lon="0.63125">
        <ele>200</ele>
        <time>2011-07-14T04:42:59Z</time>
      </trkpt>
      <trkpt lat="45.54543" lon="0.62987">
        <ele>200</ele>
        <time>2011-07-14T04:43:09Z</time>
      </trkpt>
      <trkpt lat="45.54546" lon="0.62819">
        <ele>191</ele>
        <time>2011-07-14T04:43:21Z</time>
      </trkpt>
      <trkpt lat="45.5457" lon="0.62745">
        <ele>188</ele>
        <time>2011-07-14T04:43:26Z</time>
      </trkpt>
      <trkpt lat="45.54668" lon="0.62575">
        <ele>181</ele>
        <time>2011-07-14T04:43:39Z</time>
      </trkpt>
      <trkpt lat="45.54691" lon="0.62514">
        <ele>182</ele>
        <time>2011-07-14T04:43:43Z</time>
      </trkpt>
      <trkpt lat="45.54731" lon="0.62373">
        <ele>182</ele>
        <time>2011-07-14T04:43:53Z</time>
      </trkpt>
      <trkpt lat="45.54803" lon="0.6228">
        <ele>188</ele>
        <time>2011-07-14T04:44:06Z</time>
      </trkpt>
      <trkpt lat="45.54819" lon="0.62263">
        <ele>189</ele>
        <time>2011-07-14T04:44:10Z</time>
      </trkpt>
      <trkpt lat="45.54858" lon="0.62233">
        <ele>194</ele>
        <time>2011-07-14T04:44:21Z</time>
      </trkpt>
      <trkpt lat="45.54869" lon="0.62224">
        <ele>194</ele>
        <time>2011-07-14T04:44:24Z</time>
      </trkpt>
      <trkpt lat="45.54915" lon="0.62165">
        <ele>198</ele>
        <time>2011-07-14T04:44:40Z</time>
      </trkpt>
      <trkpt lat="45.54944" lon="0.62126">
        <ele>199</ele>
        <time>2011-07-14T04:44:52Z</time>
      </trkpt>
      <trkpt lat="45.5498" lon="0.62075">
        <ele>200</ele>
        <time>2011-07-14T04:45:05Z</time>
      </trkpt>
      <trkpt lat="45.54985" lon="0.62067">
        <ele>200</ele>
        <time>2011-07-14T04:45:07Z</time>
      </trkpt>
      <trkpt lat="45.54994" lon="0.62055">
        <ele>201</ele>
        <time>2011-07-14T04:45:10Z</time>
      </trkpt>
      <trkpt lat="45.55029" lon="0.62002">
        <ele>200</ele>
        <time>2011-07-14T04:45:23Z</time>
      </trkpt>
      <trkpt lat="45.5506" lon="0.61945">
        <ele>200</ele>
        <time>2011-07-14T04:45:33Z</time>
      </trkpt>
      <trkpt lat="45.55131" lon="0.61838">
        <ele>195</ele>
        <time>2011-07-14T04:45:46Z</time>
      </trkpt>
      <trkpt lat="45.55255" lon="0.61664">
        <ele>190</ele>
        <time>2011-07-14T04:46:03Z</time>
      </trkpt>
      <trkpt lat="45.55349" lon="0.61525">
        <ele>183</ele>
        <time>2011-07-14T04:46:15Z</time>
      </trkpt>
      <trkpt lat="45.55365" lon="0.61501">
        <ele>183</ele>
        <time>2011-07-14T04:46:17Z</time>
      </trkpt>
      <trkpt lat="45.55405" lon="0.61458">
        <ele>180</ele>
        <time>2011-07-14T04:46:21Z</time>
      </trkpt>
      <trkpt lat="45.55522" lon="0.61394">
        <ele>167</ele>
        <time>2011-07-14T04:46:31Z</time>
      </trkpt>
      <trkpt lat="45.55549" lon="0.61341">
        <ele>169</ele>
        <time>2011-07-14T04:46:37Z</time>
      </trkpt>
      <trkpt lat="45.55545" lon="0.61244">
        <ele>171</ele>
        <time>2011-07-14T04:46:49Z</time>
      </trkpt>
      <trkpt lat="45.55549" lon="0.61214">
        <ele>171</ele>
        <time>2011-07-14T04:46:53Z</time>
      </trkpt>
      <trkpt lat="45.55559" lon="0.61186">
        <ele>172</ele>
        <time>2011-07-14T04:46:57Z</time>
      </trkpt>
      <trkpt lat="45.55564" lon="0.61136">
        <ele>172</ele>
        <time>2011-07-14T04:47:03Z</time>
      </trkpt>
      <trkpt lat="45.55563" lon="0.61118">
        <ele>172</ele>
        <time>2011-07-14T04:47:05Z</time>
      </trkpt>
      <trkpt lat="45.55559" lon="0.61075">
        <ele>174</ele>
        <time>2011-07-14T04:47:10Z</time>
      </trkpt>
      <trkpt lat="45.55524" lon="0.60921">
        <ele>174</ele>
        <time>2011-07-14T04:47:30Z</time>
      </trkpt>
      <trkpt lat="45.55512" lon="0.60836">
        <ele>177</ele>
        <time>2011-07-14T04:47:41Z</time>
      </trkpt>
      <trkpt lat="45.55528" lon="0.60708">
        <ele>180</ele>
        <time>2011-07-14T04:47:58Z</time>
      </trkpt>
      <trkpt lat="45.5557" lon="0.60576">
        <ele>183</ele>
        <time>2011-07-14T04:48:17Z</time>
      </trkpt>
      <trkpt lat="45.55618" lon="0.60433">
        <ele>187</ele>
        <time>2011-07-14T04:48:37Z</time>
      </trkpt>
      <trkpt lat="45.55634" lon="0.60349">
        <ele>187</ele>
        <time>2011-07-14T04:48:48Z</time>
      </trkpt>
      <trkpt lat="45.55645" lon="0.60167">
        <ele>193</ele>
        <time>2011-07-14T04:49:10Z</time>
      </trkpt>
      <trkpt lat="45.55655" lon="0.59999">
        <ele>191</ele>
        <time>2011-07-14T04:49:26Z</time>
      </trkpt>
      <trkpt lat="45.55675" lon="0.59818">
        <ele>190</ele>
        <time>2011-07-14T04:49:41Z</time>
      </trkpt>
      <trkpt lat="45.55698" lon="0.59761">
        <ele>189</ele>
        <time>2011-07-14T04:49:46Z</time>
      </trkpt>
      <trkpt lat="45.55853" lon="0.59557">
        <ele>184</ele>
        <time>2011-07-14T04:50:09Z</time>
      </trkpt>
      <trkpt lat="45.55878" lon="0.5952">
        <ele>184</ele>
        <time>2011-07-14T04:50:13Z</time>
      </trkpt>
      <trkpt lat="45.559" lon="0.59464">
        <ele>184</ele>
        <time>2011-07-14T04:50:18Z</time>
      </trkpt>
      <trkpt lat="45.55914" lon="0.59346">
        <ele>181</ele>
        <time>2011-07-14T04:50:28Z</time>
      </trkpt>
      <trkpt lat="45.55885" lon="0.59216">
        <ele>181</ele>
        <time>2011-07-14T04:50:39Z</time>
      </trkpt>
      <trkpt lat="45.55833" lon="0.59028">
        <ele>183</ele>
        <time>2011-07-14T04:50:56Z</time>
      </trkpt>
      <trkpt lat="45.55797" lon="0.58868">
        <ele>178</ele>
        <time>2011-07-14T04:51:10Z</time>
      </trkpt>
      <trkpt lat="45.55731" lon="0.58743">
        <ele>177</ele>
        <time>2011-07-14T04:51:23Z</time>
      </trkpt>
      <trkpt lat="45.55706" lon="0.58609">
        <ele>178</ele>
        <time>2011-07-14T04:51:34Z</time>
      </trkpt>
      <trkpt lat="45.55678" lon="0.58468">
        <ele>174</ele>
        <time>2011-07-14T04:51:45Z</time>
      </trkpt>
      <trkpt lat="45.55686" lon="0.58299">
        <ele>169</ele>
        <time>2011-07-14T04:51:58Z</time>
      </trkpt>
      <trkpt lat="45.55693" lon="0.58102">
        <ele>162</ele>
        <time>2011-07-14T04:52:13Z</time>
      </trkpt>
      <trkpt lat="45.55703" lon="0.58008">
        <ele>157</ele>
        <time>2011-07-14T04:52:19Z</time>
      </trkpt>
      <trkpt lat="45.55697" lon="0.57941">
        <ele>152</ele>
        <time>2011-07-14T04:52:23Z</time>
      </trkpt>
      <trkpt lat="45.55671" lon="0.57839">
        <ele>151</ele>
        <time>2011-07-14T04:52:29Z</time>
      </trkpt>
      <trkpt lat="45.55646" lon="0.57777">
        <ele>149</ele>
        <time>2011-07-14T04:52:33Z</time>
      </trkpt>
      <trkpt lat="45.55642" lon="0.57706">
        <ele>144</ele>
        <time>2011-07-14T04:52:37Z</time>
      </trkpt>
      <trkpt lat="45.55655" lon="0.57637">
        <ele>142</ele>
        <time>2011-07-14T04:52:41Z</time>
      </trkpt>
      <trkpt lat="45.55708" lon="0.5757">
        <ele>135</ele>
        <time>2011-07-14T04:52:47Z</time>
      </trkpt>
      <trkpt lat="45.5573" lon="0.5756">
        <ele>134</ele>
        <time>2011-07-14T04:52:49Z</time>
      </trkpt>
      <trkpt lat="45.55755" lon="0.57503">
        <ele>130</ele>
        <time>2011-07-14T04:52:54Z</time>
      </trkpt>
      <trkpt lat="45.55757" lon="0.57409">
        <ele>128</ele>
        <time>2011-07-14T04:53:00Z</time>
      </trkpt>
      <trkpt lat="45.55777" lon="0.57338">
        <ele>128</ele>
        <time>2011-07-14T04:53:05Z</time>
      </trkpt>
      <trkpt lat="45.55794" lon="0.57307">
        <ele>127</ele>
        <time>2011-07-14T04:53:09Z</time>
      </trkpt>
      <trkpt lat="45.55822" lon="0.57325">
        <ele>126</ele>
        <time>2011-07-14T04:53:16Z</time>
      </trkpt>
      <trkpt lat="45.5584" lon="0.57332">
        <ele>125</ele>
        <time>2011-07-14T04:53:19Z</time>
      </trkpt>
      <trkpt lat="45.55915" lon="0.57333">
        <ele>124</ele>
        <time>2011-07-14T04:53:30Z</time>
      </trkpt>
      <trkpt lat="45.55941" lon="0.57327">
        <ele>125</ele>
        <time>2011-07-14T04:53:34Z</time>
      </trkpt>
      <trkpt lat="45.56034" lon="0.5727">
        <ele>130</ele>
        <time>2011-07-14T04:53:49Z</time>
      </trkpt>
      <trkpt lat="45.56134" lon="0.57239">
        <ele>130</ele>
        <time>2011-07-14T04:54:03Z</time>
      </trkpt>
      <trkpt lat="45.56239" lon="0.57185">
        <ele>133</ele>
        <time>2011-07-14T04:54:17Z</time>
      </trkpt>
      <trkpt lat="45.56367" lon="0.57091">
        <ele>141</ele>
        <time>2011-07-14T04:54:33Z</time>
      </trkpt>
      <trkpt lat="45.56471" lon="0.56979">
        <ele>138</ele>
        <time>2011-07-14T04:54:48Z</time>
      </trkpt>
      <trkpt lat="45.56512" lon="0.569">
        <ele>137</ele>
        <time>2011-07-14T04:54:56Z</time>
      </trkpt>
      <trkpt lat="45.56526" lon="0.5687">
        <ele>138</ele>
        <time>2011-07-14T04:54:59Z</time>
      </trkpt>
      <trkpt lat="45.56573" lon="0.56706">
        <ele>129</ele>
        <time>2011-07-14T04:55:14Z</time>
      </trkpt>
      <trkpt lat="45.56591" lon="0.56511">
        <ele>127</ele>
        <time>2011-07-14T04:55:31Z</time>
      </trkpt>
      <trkpt lat="45.56595" lon="0.5649">
        <ele>125</ele>
        <time>2011-07-14T04:55:33Z</time>
      </trkpt>
      <trkpt lat="45.5661" lon="0.5645">
        <ele>125</ele>
        <time>2011-07-14T04:55:37Z</time>
      </trkpt>
      <trkpt lat="45.56705" lon="0.56295">
        <ele>122</ele>
        <time>2011-07-14T04:55:54Z</time>
      </trkpt>
      <trkpt lat="45.56789" lon="0.56182">
        <ele>123</ele>
        <time>2011-07-14T04:56:08Z</time>
      </trkpt>
      <trkpt lat="45.56928" lon="0.56015">
        <ele>125</ele>
        <time>2011-07-14T04:56:30Z</time>
      </trkpt>
      <trkpt lat="45.5705" lon="0.5587">
        <ele>123</ele>
        <time>2011-07-14T04:56:50Z</time>
      </trkpt>
      <trkpt lat="45.57091" lon="0.55824">
        <ele>123</ele>
        <time>2011-07-14T04:56:57Z</time>
      </trkpt>
      <trkpt lat="45.57108" lon="0.55812">
        <ele>123</ele>
        <time>2011-07-14T04:57:00Z</time>
      </trkpt>
      <trkpt lat="45.57175" lon="0.55762">
        <ele>123</ele>
        <time>2011-07-14T04:57:11Z</time>
      </trkpt>
      <trkpt lat="45.57197" lon="0.55735">
        <ele>122</ele>
        <time>2011-07-14T04:57:15Z</time>
      </trkpt>
      <trkpt lat="45.57285" lon="0.55588">
        <ele>124</ele>
        <time>2011-07-14T04:57:33Z</time>
      </trkpt>
      <trkpt lat="45.5738" lon="0.55486">
        <ele>123</ele>
        <time>2011-07-14T04:57:49Z</time>
      </trkpt>
      <trkpt lat="45.57513" lon="0.55325">
        <ele>126</ele>
        <time>2011-07-14T04:58:12Z</time>
      </trkpt>
      <trkpt lat="45.5758" lon="0.55179">
        <ele>125</ele>
        <time>2011-07-14T04:58:27Z</time>
      </trkpt>
      <trkpt lat="45.57673" lon="0.54948">
        <ele>131</ele>
        <time>2011-07-14T04:58:48Z</time>
      </trkpt>
      <trkpt lat="45.57716" lon="0.54761">
        <ele>126</ele>
        <time>2011-07-14T04:59:03Z</time>
      </trkpt>
      <trkpt lat="45.57767" lon="0.54583">
        <ele>124</ele>
        <time>2011-07-14T04:59:19Z</time>
      </trkpt>
      <trkpt lat="45.57875" lon="0.54435">
        <ele>121</ele>
        <time>2011-07-14T04:59:37Z</time>
      </trkpt>
      <trkpt lat="45.57999" lon="0.54287">
        <ele>118</ele>
        <time>2011-07-14T04:59:57Z</time>
      </trkpt>
      <trkpt lat="45.58117" lon="0.54218">
        <ele>121</ele>
        <time>2011-07-14T05:00:13Z</time>
      </trkpt>
      <trkpt lat="45.58239" lon="0.54119">
        <ele>120</ele>
        <time>2011-07-14T05:00:31Z</time>
      </trkpt>
      <trkpt lat="45.5829" lon="0.53986">
        <ele>121</ele>
        <time>2011-07-14T05:00:44Z</time>
      </trkpt>
      <trkpt lat="45.58347" lon="0.5379">
        <ele>127</ele>
        <time>2011-07-14T05:01:02Z</time>
      </trkpt>
      <trkpt lat="45.58403" lon="0.53551">
        <ele>124</ele>
        <time>2011-07-14T05:01:23Z</time>
      </trkpt>
      <trkpt lat="45.58404" lon="0.5354">
        <ele>124</ele>
        <time>2011-07-14T05:01:24Z</time>
      </trkpt>
      <trkpt lat="45.5841" lon="0.53507">
        <ele>124</ele>
        <time>2011-07-14T05:01:27Z</time>
      </trkpt>
      <trkpt lat="45.58416" lon="0.53394">
        <ele>121</ele>
        <time>2011-07-14T05:01:37Z</time>
      </trkpt>
      <trkpt lat="45.58419" lon="0.5335">
        <ele>123</ele>
        <time>2011-07-14T05:01:41Z</time>
      </trkpt>
      <trkpt lat="45.5846" lon="0.53221">
        <ele>119</ele>
        <time>2011-07-14T05:01:54Z</time>
      </trkpt>
      <trkpt lat="45.58545" lon="0.53009">
        <ele>119</ele>
        <time>2011-07-14T05:02:15Z</time>
      </trkpt>
      <trkpt lat="45.58593" lon="0.52904">
        <ele>119</ele>
        <time>2011-07-14T05:02:26Z</time>
      </trkpt>
      <trkpt lat="45.58703" lon="0.52778">
        <ele>120</ele>
        <time>2011-07-14T05:02:44Z</time>
      </trkpt>
      <trkpt lat="45.58809" lon="0.5263">
        <ele>119</ele>
        <time>2011-07-14T05:03:03Z</time>
      </trkpt>
      <trkpt lat="45.58866" lon="0.5245">
        <ele>120</ele>
        <time>2011-07-14T05:03:20Z</time>
      </trkpt>
      <trkpt lat="45.58926" lon="0.52223">
        <ele>118</ele>
        <time>2011-07-14T05:03:41Z</time>
      </trkpt>
      <trkpt lat="45.58925" lon="0.52047">
        <ele>117</ele>
        <time>2011-07-14T05:03:56Z</time>
      </trkpt>
      <trkpt lat="45.58925" lon="0.51966">
        <ele>118</ele>
        <time>2011-07-14T05:04:03Z</time>
      </trkpt>
      <trkpt lat="45.58937" lon="0.51901">
        <ele>117</ele>
        <time>2011-07-14T05:04:09Z</time>
      </trkpt>
      <trkpt lat="45.58951" lon="0.5186">
        <ele>117</ele>
        <time>2011-07-14T05:04:13Z</time>
      </trkpt>
      <trkpt lat="45.59042" lon="0.5173">
        <ele>116</ele>
        <time>2011-07-14T05:04:30Z</time>
      </trkpt>
      <trkpt lat="45.59158" lon="0.51572">
        <ele>116</ele>
        <time>2011-07-14T05:04:51Z</time>
      </trkpt>
      <trkpt lat="45.59326" lon="0.51347">
        <ele>118</ele>
        <time>2011-07-14T05:05:21Z</time>
      </trkpt>
      <trkpt lat="45.59446" lon="0.51185">
        <ele>119</ele>
        <time>2011-07-14T05:05:42Z</time>
      </trkpt>
      <trkpt lat="45.59575" lon="0.51015">
        <ele>117</ele>
        <time>2011-07-14T05:06:04Z</time>
      </trkpt>
      <trkpt lat="45.59673" lon="0.50856">
        <ele>117</ele>
        <time>2011-07-14T05:06:24Z</time>
      </trkpt>
      <trkpt lat="45.59733" lon="0.50692">
        <ele>116</ele>
        <time>2011-07-14T05:06:40Z</time>
      </trkpt>
      <trkpt lat="45.59826" lon="0.50443">
        <ele>117</ele>
        <time>2011-07-14T05:07:04Z</time>
      </trkpt>
      <trkpt lat="45.59891" lon="0.5027">
        <ele>119</ele>
        <time>2011-07-14T05:07:21Z</time>
      </trkpt>
      <trkpt lat="45.59978" lon="0.50038">
        <ele>117</ele>
        <time>2011-07-14T05:07:44Z</time>
      </trkpt>
      <trkpt lat="45.60032" lon="0.49888">
        <ele>120</ele>
        <time>2011-07-14T05:07:59Z</time>
      </trkpt>
      <trkpt lat="45.60041" lon="0.49883">
        <ele>120</ele>
        <time>2011-07-14T05:08:02Z</time>
      </trkpt>
      <trkpt lat="45.60048" lon="0.49873">
        <ele>120</ele>
        <time>2011-07-14T05:08:09Z</time>
      </trkpt>
      <trkpt lat="45.60056" lon="0.49867">
        <ele>120</ele>
        <time>2011-07-14T05:08:13Z</time>
      </trkpt>
      <trkpt lat="45.60067" lon="0.49844">
        <ele>120</ele>
        <time>2011-07-14T05:08:18Z</time>
      </trkpt>
      <trkpt lat="45.60083" lon="0.49792">
        <ele>119</ele>
        <time>2011-07-14T05:08:25Z</time>
      </trkpt>
      <trkpt lat="45.60095" lon="0.49764">
        <ele>120</ele>
        <time>2011-07-14T05:08:29Z</time>
      </trkpt>
      <trkpt lat="45.60142" lon="0.49648">
        <ele>119</ele>
        <time>2011-07-14T05:08:46Z</time>
      </trkpt>
      <trkpt lat="45.60198" lon="0.49514">
        <ele>121</ele>
        <time>2011-07-14T05:09:02Z</time>
      </trkpt>
      <trkpt lat="45.60263" lon="0.4936">
        <ele>121</ele>
        <time>2011-07-14T05:09:19Z</time>
      </trkpt>
      <trkpt lat="45.60333" lon="0.49194">
        <ele>116</ele>
        <time>2011-07-14T05:09:35Z</time>
      </trkpt>
      <trkpt lat="45.60423" lon="0.48964">
        <ele>117</ele>
        <time>2011-07-14T05:09:56Z</time>
      </trkpt>
      <trkpt lat="45.60487" lon="0.48715">
        <ele>114</ele>
        <time>2011-07-14T05:10:17Z</time>
      </trkpt>
      <trkpt lat="45.60513" lon="0.4859">
        <ele>118</ele>
        <time>2011-07-14T05:10:29Z</time>
      </trkpt>
      <trkpt lat="45.60531" lon="0.48502">
        <ele>115</ele>
        <time>2011-07-14T05:10:37Z</time>
      </trkpt>
      <trkpt lat="45.60534" lon="0.4849">
        <ele>113</ele>
        <time>2011-07-14T05:10:39Z</time>
      </trkpt>
      <trkpt lat="45.60535" lon="0.48466">
        <ele>114</ele>
        <time>2011-07-14T05:10:47Z</time>
      </trkpt>
      <trkpt lat="45.60536" lon="0.48464">
        <ele>114</ele>
        <time>2011-07-14T05:10:48Z</time>
      </trkpt>
      <trkpt lat="45.60547" lon="0.48411">
        <ele>114</ele>
        <time>2011-07-14T05:11:00Z</time>
      </trkpt>
      <trkpt lat="45.60557" lon="0.48364">
        <ele>115</ele>
        <time>2011-07-14T05:11:07Z</time>
      </trkpt>
      <trkpt lat="45.60582" lon="0.48237">
        <ele>117</ele>
        <time>2011-07-14T05:11:22Z</time>
      </trkpt>
      <trkpt lat="45.60591" lon="0.48195">
        <ele>119</ele>
        <time>2011-07-14T05:11:27Z</time>
      </trkpt>
      <trkpt lat="45.60611" lon="0.48099">
        <ele>116</ele>
        <time>2011-07-14T05:11:37Z</time>
      </trkpt>
      <trkpt lat="45.60636" lon="0.47979">
        <ele>111</ele>
        <time>2011-07-14T05:11:49Z</time>
      </trkpt>
      <trkpt lat="45.60683" lon="0.47834">
        <ele>110</ele>
        <time>2011-07-14T05:12:03Z</time>
      </trkpt>
      <trkpt lat="45.60692" lon="0.47812">
        <ele>112</ele>
        <time>2011-07-14T05:12:06Z</time>
      </trkpt>
      <trkpt lat="45.60693" lon="0.47804">
        <ele>112</ele>
        <time>2011-07-14T05:12:10Z</time>
      </trkpt>
      <trkpt lat="45.6072" lon="0.47767">
        <ele>113</ele>
        <time>2011-07-14T05:12:23Z</time>
      </trkpt>
      <trkpt lat="45.60724" lon="0.47763">
        <ele>113</ele>
        <time>2011-07-14T05:12:24Z</time>
      </trkpt>
      <trkpt lat="45.60762" lon="0.47719">
        <ele>114</ele>
        <time>2011-07-14T05:12:34Z</time>
      </trkpt>
      <trkpt lat="45.60765" lon="0.47693">
        <ele>113</ele>
        <time>2011-07-14T05:12:39Z</time>
      </trkpt>
      <trkpt lat="45.60756" lon="0.47661">
        <ele>112</ele>
        <time>2011-07-14T05:12:45Z</time>
      </trkpt>
      <trkpt lat="45.60764" lon="0.47622">
        <ele>110</ele>
        <time>2011-07-14T05:12:50Z</time>
      </trkpt>
      <trkpt lat="45.60788" lon="0.47581">
        <ele>109</ele>
        <time>2011-07-14T05:12:56Z</time>
      </trkpt>
      <trkpt lat="45.60794" lon="0.47565">
        <ele>109</ele>
        <time>2011-07-14T05:12:58Z</time>
      </trkpt>
      <trkpt lat="45.60786" lon="0.47523">
        <ele>108</ele>
        <time>2011-07-14T05:13:06Z</time>
      </trkpt>
      <trkpt lat="45.60793" lon="0.47507">
        <ele>108</ele>
        <time>2011-07-14T05:13:10Z</time>
      </trkpt>
      <trkpt lat="45.60805" lon="0.47496">
        <ele>108</ele>
        <time>2011-07-14T05:13:13Z</time>
      </trkpt>
      <trkpt lat="45.60885" lon="0.47429">
        <ele>108</ele>
        <time>2011-07-14T05:13:27Z</time>
      </trkpt>
      <trkpt lat="45.6094" lon="0.47382">
        <ele>107</ele>
        <time>2011-07-14T05:13:36Z</time>
      </trkpt>
      <trkpt lat="45.60988" lon="0.47388">
        <ele>108</ele>
        <time>2011-07-14T05:13:44Z</time>
      </trkpt>
      <trkpt lat="45.61011" lon="0.47382">
        <ele>109</ele>
        <time>2011-07-14T05:13:49Z</time>
      </trkpt>
      <trkpt lat="45.61034" lon="0.47338">
        <ele>108</ele>
        <time>2011-07-14T05:13:55Z</time>
      </trkpt>
      <trkpt lat="45.61069" lon="0.47301">
        <ele>107</ele>
        <time>2011-07-14T05:14:01Z</time>
      </trkpt>
      <trkpt lat="45.61094" lon="0.47288">
        <ele>108</ele>
        <time>2011-07-14T05:14:05Z</time>
      </trkpt>
      <trkpt lat="45.61164" lon="0.47282">
        <ele>109</ele>
        <time>2011-07-14T05:14:16Z</time>
      </trkpt>
      <trkpt lat="45.61176" lon="0.47278">
        <ele>112</ele>
        <time>2011-07-14T05:14:18Z</time>
      </trkpt>
      <trkpt lat="45.612" lon="0.47251">
        <ele>112</ele>
        <time>2011-07-14T05:14:23Z</time>
      </trkpt>
      <trkpt lat="45.61233" lon="0.4717">
        <ele>112</ele>
        <time>2011-07-14T05:14:32Z</time>
      </trkpt>
      <trkpt lat="45.61259" lon="0.47137">
        <ele>112</ele>
        <time>2011-07-14T05:14:37Z</time>
      </trkpt>
      <trkpt lat="45.61267" lon="0.47117">
        <ele>112</ele>
        <time>2011-07-14T05:14:43Z</time>
      </trkpt>
      <trkpt lat="45.61272" lon="0.47109">
        <ele>111</ele>
        <time>2011-07-14T05:14:45Z</time>
      </trkpt>
      <trkpt lat="45.6131" lon="0.47018">
        <ele>109</ele>
        <time>2011-07-14T05:14:58Z</time>
      </trkpt>
      <trkpt lat="45.61397" lon="0.4681">
        <ele>106</ele>
        <time>2011-07-14T05:15:20Z</time>
      </trkpt>
      <trkpt lat="45.61466" lon="0.46614">
        <ele>107</ele>
        <time>2011-07-14T05:15:39Z</time>
      </trkpt>
      <trkpt lat="45.61518" lon="0.46411">
        <ele>106</ele>
        <time>2011-07-14T05:15:57Z</time>
      </trkpt>
      <trkpt lat="45.61552" lon="0.4621">
        <ele>106</ele>
        <time>2011-07-14T05:16:15Z</time>
      </trkpt>
      <trkpt lat="45.61555" lon="0.4619">
        <ele>106</ele>
        <time>2011-07-14T05:16:17Z</time>
      </trkpt>
      <trkpt lat="45.61557" lon="0.46169">
        <ele>106</ele>
        <time>2011-07-14T05:16:21Z</time>
      </trkpt>
      <trkpt lat="45.61561" lon="0.46147">
        <ele>107</ele>
        <time>2011-07-14T05:16:27Z</time>
      </trkpt>
      <trkpt lat="45.6156" lon="0.46142">
        <ele>106</ele>
        <time>2011-07-14T05:16:29Z</time>
      </trkpt>
      <trkpt lat="45.61563" lon="0.46131">
        <ele>106</ele>
        <time>2011-07-14T05:16:32Z</time>
      </trkpt>
      <trkpt lat="45.61577" lon="0.46026">
        <ele>105</ele>
        <time>2011-07-14T05:16:46Z</time>
      </trkpt>
      <trkpt lat="45.61601" lon="0.45854">
        <ele>107</ele>
        <time>2011-07-14T05:17:03Z</time>
      </trkpt>
      <trkpt lat="45.61611" lon="0.45779">
        <ele>109</ele>
        <time>2011-07-14T05:17:10Z</time>
      </trkpt>
      <trkpt lat="45.61627" lon="0.45677">
        <ele>110</ele>
        <time>2011-07-14T05:17:20Z</time>
      </trkpt>
      <trkpt lat="45.61633" lon="0.45649">
        <ele>109</ele>
        <time>2011-07-14T05:17:23Z</time>
      </trkpt>
      <trkpt lat="45.61647" lon="0.45536">
        <ele>107</ele>
        <time>2011-07-14T05:17:34Z</time>
      </trkpt>
      <trkpt lat="45.61668" lon="0.45387">
        <ele>109</ele>
        <time>2011-07-14T05:17:46Z</time>
      </trkpt>
      <trkpt lat="45.61695" lon="0.45187">
        <ele>106</ele>
        <time>2011-07-14T05:18:03Z</time>
      </trkpt>
      <trkpt lat="45.61717" lon="0.45019">
        <ele>104</ele>
        <time>2011-07-14T05:18:19Z</time>
      </trkpt>
      <trkpt lat="45.61731" lon="0.44904">
        <ele>104</ele>
        <time>2011-07-14T05:18:32Z</time>
      </trkpt>
      <trkpt lat="45.61733" lon="0.44899">
        <ele>104</ele>
        <time>2011-07-14T05:18:34Z</time>
      </trkpt>
      <trkpt lat="45.61738" lon="0.44887">
        <ele>103</ele>
        <time>2011-07-14T05:18:37Z</time>
      </trkpt>
      <trkpt lat="45.61745" lon="0.4487">
        <ele>103</ele>
        <time>2011-07-14T05:18:40Z</time>
      </trkpt>
      <trkpt lat="45.61768" lon="0.44719">
        <ele>105</ele>
        <time>2011-07-14T05:18:58Z</time>
      </trkpt>
      <trkpt lat="45.6179" lon="0.44571">
        <ele>108</ele>
        <time>2011-07-14T05:19:13Z</time>
      </trkpt>
      <trkpt lat="45.61794" lon="0.44545">
        <ele>108</ele>
        <time>2011-07-14T05:19:16Z</time>
      </trkpt>
      <trkpt lat="45.6181" lon="0.44505">
        <ele>109</ele>
        <time>2011-07-14T05:19:23Z</time>
      </trkpt>
      <trkpt lat="45.61805" lon="0.4449">
        <ele>108</ele>
        <time>2011-07-14T05:19:27Z</time>
      </trkpt>
      <trkpt lat="45.61796" lon="0.44459">
        <ele>108</ele>
        <time>2011-07-14T05:19:33Z</time>
      </trkpt>
      <trkpt lat="45.618" lon="0.44441">
        <ele>108</ele>
        <time>2011-07-14T05:19:36Z</time>
      </trkpt>
      <trkpt lat="45.618" lon="0.44424">
        <ele>108</ele>
        <time>2011-07-14T05:19:41Z</time>
      </trkpt>
      <trkpt lat="45.61812" lon="0.44346">
        <ele>109</ele>
        <time>2011-07-14T05:19:52Z</time>
      </trkpt>
      <trkpt lat="45.61823" lon="0.44257">
        <ele>108</ele>
        <time>2011-07-14T05:20:01Z</time>
      </trkpt>
      <trkpt lat="45.61848" lon="0.44089">
        <ele>108</ele>
        <time>2011-07-14T05:20:17Z</time>
      </trkpt>
      <trkpt lat="45.6186" lon="0.43994">
        <ele>108</ele>
        <time>2011-07-14T05:20:27Z</time>
      </trkpt>
      <trkpt lat="45.61862" lon="0.43986">
        <ele>108</ele>
        <time>2011-07-14T05:20:30Z</time>
      </trkpt>
      <trkpt lat="45.61864" lon="0.43968">
        <ele>108</ele>
        <time>2011-07-14T05:20:34Z</time>
      </trkpt>
      <trkpt lat="45.61868" lon="0.43948">
        <ele>108</ele>
        <time>2011-07-14T05:20:38Z</time>
      </trkpt>
      <trkpt lat="45.61869" lon="0.43933">
        <ele>108</ele>
        <time>2011-07-14T05:20:43Z</time>
      </trkpt>
      <trkpt lat="45.61872" lon="0.43922">
        <ele>108</ele>
        <time>2011-07-14T05:20:45Z</time>
      </trkpt>
      <trkpt lat="45.6189" lon="0.43791">
        <ele>110</ele>
        <time>2011-07-14T05:21:00Z</time>
      </trkpt>
      <trkpt lat="45.61909" lon="0.43647">
        <ele>110</ele>
        <time>2011-07-14T05:21:14Z</time>
      </trkpt>
      <trkpt lat="45.61912" lon="0.43617">
        <ele>109</ele>
        <time>2011-07-14T05:21:17Z</time>
      </trkpt>
      <trkpt lat="45.61914" lon="0.4355">
        <ele>107</ele>
        <time>2011-07-14T05:21:25Z</time>
      </trkpt>
      <trkpt lat="45.61914" lon="0.43524">
        <ele>107</ele>
        <time>2011-07-14T05:21:33Z</time>
      </trkpt>
      <trkpt lat="45.61921" lon="0.4345">
        <ele>109</ele>
        <time>2011-07-14T05:21:44Z</time>
      </trkpt>
      <trkpt lat="45.6193" lon="0.43303">
        <ele>111</ele>
        <time>2011-07-14T05:21:59Z</time>
      </trkpt>
      <trkpt lat="45.61945" lon="0.43064">
        <ele>108</ele>
        <time>2011-07-14T05:22:20Z</time>
      </trkpt>
      <trkpt lat="45.61936" lon="0.42905">
        <ele>109</ele>
        <time>2011-07-14T05:22:34Z</time>
      </trkpt>
      <trkpt lat="45.61929" lon="0.42855">
        <ele>109</ele>
        <time>2011-07-14T05:22:40Z</time>
      </trkpt>
      <trkpt lat="45.61931" lon="0.42842">
        <ele>108</ele>
        <time>2011-07-14T05:22:44Z</time>
      </trkpt>
      <trkpt lat="45.61929" lon="0.42824">
        <ele>108</ele>
        <time>2011-07-14T05:22:48Z</time>
      </trkpt>
      <trkpt lat="45.61926" lon="0.42807">
        <ele>109</ele>
        <time>2011-07-14T05:22:53Z</time>
      </trkpt>
      <trkpt lat="45.61924" lon="0.42696">
        <ele>110</ele>
        <time>2011-07-14T05:23:07Z</time>
      </trkpt>
      <trkpt lat="45.61948" lon="0.42519">
        <ele>106</ele>
        <time>2011-07-14T05:23:25Z</time>
      </trkpt>
      <trkpt lat="45.62001" lon="0.42306">
        <ele>107</ele>
        <time>2011-07-14T05:23:45Z</time>
      </trkpt>
      <trkpt lat="45.62039" lon="0.42151">
        <ele>105</ele>
        <time>2011-07-14T05:23:59Z</time>
      </trkpt>
      <trkpt lat="45.62086" lon="0.4196">
        <ele>105</ele>
        <time>2011-07-14T05:24:16Z</time>
      </trkpt>
      <trkpt lat="45.62133" lon="0.41775">
        <ele>106</ele>
        <time>2011-07-14T05:24:32Z</time>
      </trkpt>
      <trkpt lat="45.62139" lon="0.41752">
        <ele>106</ele>
        <time>2011-07-14T05:24:34Z</time>
      </trkpt>
      <trkpt lat="45.62161" lon="0.41666">
        <ele>108</ele>
        <time>2011-07-14T05:24:42Z</time>
      </trkpt>
      <trkpt lat="45.62172" lon="0.41531">
        <ele>107</ele>
        <time>2011-07-14T05:24:53Z</time>
      </trkpt>
      <trkpt lat="45.6216" lon="0.4134">
        <ele>101</ele>
        <time>2011-07-14T05:25:08Z</time>
      </trkpt>
      <trkpt lat="45.62158" lon="0.41328">
        <ele>101</ele>
        <time>2011-07-14T05:25:09Z</time>
      </trkpt>
      <trkpt lat="45.621" lon="0.41121">
        <ele>98</ele>
        <time>2011-07-14T05:25:27Z</time>
      </trkpt>
      <trkpt lat="45.62046" lon="0.40935">
        <ele>97</ele>
        <time>2011-07-14T05:25:44Z</time>
      </trkpt>
      <trkpt lat="45.62034" lon="0.40857">
        <ele>97</ele>
        <time>2011-07-14T05:25:51Z</time>
      </trkpt>
      <trkpt lat="45.62029" lon="0.40809">
        <ele>98</ele>
        <time>2011-07-14T05:25:56Z</time>
      </trkpt>
      <trkpt lat="45.62026" lon="0.40748">
        <ele>98</ele>
        <time>2011-07-14T05:26:02Z</time>
      </trkpt>
      <trkpt lat="45.62047" lon="0.40568">
        <ele>98</ele>
        <time>2011-07-14T05:26:18Z</time>
      </trkpt>
      <trkpt lat="45.62091" lon="0.40406">
        <ele>98</ele>
        <time>2011-07-14T05:26:32Z</time>
      </trkpt>
      <trkpt lat="45.62137" lon="0.40264">
        <ele>100</ele>
        <time>2011-07-14T05:26:45Z</time>
      </trkpt>
      <trkpt lat="45.62165" lon="0.40067">
        <ele>99</ele>
        <time>2011-07-14T05:27:02Z</time>
      </trkpt>
      <trkpt lat="45.62182" lon="0.3988">
        <ele>98</ele>
        <time>2011-07-14T05:27:18Z</time>
      </trkpt>
      <trkpt lat="45.62188" lon="0.39811">
        <ele>99</ele>
        <time>2011-07-14T05:27:24Z</time>
      </trkpt>
      <trkpt lat="45.62205" lon="0.39634">
        <ele>99</ele>
        <time>2011-07-14T05:27:40Z</time>
      </trkpt>
      <trkpt lat="45.62206" lon="0.39616">
        <ele>99</ele>
        <time>2011-07-14T05:27:43Z</time>
      </trkpt>
      <trkpt lat="45.62206" lon="0.39595">
        <ele>99</ele>
        <time>2011-07-14T05:27:50Z</time>
      </trkpt>
      <trkpt lat="45.62215" lon="0.39533">
        <ele>100</ele>
        <time>2011-07-14T05:27:59Z</time>
      </trkpt>
      <trkpt lat="45.62224" lon="0.3942">
        <ele>101</ele>
        <time>2011-07-14T05:28:12Z</time>
      </trkpt>
      <trkpt lat="45.62241" lon="0.39286">
        <ele>103</ele>
        <time>2011-07-14T05:28:25Z</time>
      </trkpt>
      <trkpt lat="45.62261" lon="0.39178">
        <ele>101</ele>
        <time>2011-07-14T05:28:35Z</time>
      </trkpt>
      <trkpt lat="45.62292" lon="0.39036">
        <ele>102</ele>
        <time>2011-07-14T05:28:49Z</time>
      </trkpt>
      <trkpt lat="45.62305" lon="0.38987">
        <ele>100</ele>
        <time>2011-07-14T05:28:54Z</time>
      </trkpt>
      <trkpt lat="45.62358" lon="0.38838">
        <ele>95</ele>
        <time>2011-07-14T05:29:09Z</time>
      </trkpt>
      <trkpt lat="45.62413" lon="0.38696">
        <ele>96</ele>
        <time>2011-07-14T05:29:25Z</time>
      </trkpt>
      <trkpt lat="45.62419" lon="0.38688">
        <ele>95</ele>
        <time>2011-07-14T05:29:29Z</time>
      </trkpt>
      <trkpt lat="45.62422" lon="0.38675">
        <ele>95</ele>
        <time>2011-07-14T05:29:33Z</time>
      </trkpt>
      <trkpt lat="45.62428" lon="0.38665">
        <ele>95</ele>
        <time>2011-07-14T05:29:37Z</time>
      </trkpt>
      <trkpt lat="45.62438" lon="0.38644">
        <ele>95</ele>
        <time>2011-07-14T05:29:41Z</time>
      </trkpt>
      <trkpt lat="45.62495" lon="0.38535">
        <ele>99</ele>
        <time>2011-07-14T05:29:56Z</time>
      </trkpt>
      <trkpt lat="45.62579" lon="0.38389">
        <ele>103</ele>
        <time>2011-07-14T05:30:14Z</time>
      </trkpt>
      <trkpt lat="45.62646" lon="0.38282">
        <ele>103</ele>
        <time>2011-07-14T05:30:27Z</time>
      </trkpt>
      <trkpt lat="45.627" lon="0.3819">
        <ele>100</ele>
        <time>2011-07-14T05:30:38Z</time>
      </trkpt>
      <trkpt lat="45.62721" lon="0.38151">
        <ele>99</ele>
        <time>2011-07-14T05:30:44Z</time>
      </trkpt>
      <trkpt lat="45.62725" lon="0.38147">
        <ele>99</ele>
        <time>2011-07-14T05:30:46Z</time>
      </trkpt>
      <trkpt lat="45.62758" lon="0.38092">
        <ele>95</ele>
        <time>2011-07-14T05:30:57Z</time>
      </trkpt>
      <trkpt lat="45.62846" lon="0.37944">
        <ele>96</ele>
        <time>2011-07-14T05:31:16Z</time>
      </trkpt>
      <trkpt lat="45.62885" lon="0.37879">
        <ele>98</ele>
        <time>2011-07-14T05:31:24Z</time>
      </trkpt>
      <trkpt lat="45.62969" lon="0.37737">
        <ele>95</ele>
        <time>2011-07-14T05:31:42Z</time>
      </trkpt>
      <trkpt lat="45.62982" lon="0.37718">
        <ele>95</ele>
        <time>2011-07-14T05:31:50Z</time>
      </trkpt>
      <trkpt lat="45.62982" lon="0.37718">
        <ele>95</ele>
        <time>2011-07-14T05:31:53Z</time>
      </trkpt>
      <trkpt lat="45.62984" lon="0.37712">
        <ele>95</ele>
        <time>2011-07-14T05:31:57Z</time>
      </trkpt>
      <trkpt lat="45.62988" lon="0.37708">
        <ele>95</ele>
        <time>2011-07-14T05:31:59Z</time>
      </trkpt>
      <trkpt lat="45.63006" lon="0.37674">
        <ele>93</ele>
        <time>2011-07-14T05:32:07Z</time>
      </trkpt>
      <trkpt lat="45.63058" lon="0.37589">
        <ele>95</ele>
        <time>2011-07-14T05:32:21Z</time>
      </trkpt>
      <trkpt lat="45.63129" lon="0.3747">
        <ele>98</ele>
        <time>2011-07-14T05:32:36Z</time>
      </trkpt>
      <trkpt lat="45.63154" lon="0.37428">
        <ele>98</ele>
        <time>2011-07-14T05:32:41Z</time>
      </trkpt>
      <trkpt lat="45.6319" lon="0.37369">
        <ele>97</ele>
        <time>2011-07-14T05:32:48Z</time>
      </trkpt>
      <trkpt lat="45.63225" lon="0.37307">
        <ele>99</ele>
        <time>2011-07-14T05:32:57Z</time>
      </trkpt>
      <trkpt lat="45.63237" lon="0.37287">
        <ele>100</ele>
        <time>2011-07-14T05:33:06Z</time>
      </trkpt>
      <trkpt lat="45.63271" lon="0.37243">
        <ele>99</ele>
        <time>2011-07-14T05:33:15Z</time>
      </trkpt>
      <trkpt lat="45.6328" lon="0.37232">
        <ele>99</ele>
        <time>2011-07-14T05:33:17Z</time>
      </trkpt>
      <trkpt lat="45.63366" lon="0.3715">
        <ele>101</ele>
        <time>2011-07-14T05:33:32Z</time>
      </trkpt>
      <trkpt lat="45.63439" lon="0.37105">
        <ele>100</ele>
        <time>2011-07-14T05:33:43Z</time>
      </trkpt>
      <trkpt lat="45.63501" lon="0.37067">
        <ele>101</ele>
        <time>2011-07-14T05:33:52Z</time>
      </trkpt>
      <trkpt lat="45.63525" lon="0.37051">
        <ele>101</ele>
        <time>2011-07-14T05:33:56Z</time>
      </trkpt>
      <trkpt lat="45.63623" lon="0.36958">
        <ele>99</ele>
        <time>2011-07-14T05:34:10Z</time>
      </trkpt>
      <trkpt lat="45.63665" lon="0.36899">
        <ele>98</ele>
        <time>2011-07-14T05:34:17Z</time>
      </trkpt>
      <trkpt lat="45.63772" lon="0.36752">
        <ele>94</ele>
        <time>2011-07-14T05:34:34Z</time>
      </trkpt>
      <trkpt lat="45.63867" lon="0.36607">
        <ele>94</ele>
        <time>2011-07-14T05:34:50Z</time>
      </trkpt>
      <trkpt lat="45.63975" lon="0.36471">
        <ele>94</ele>
        <time>2011-07-14T05:35:07Z</time>
      </trkpt>
      <trkpt lat="45.64046" lon="0.36394">
        <ele>91</ele>
        <time>2011-07-14T05:35:19Z</time>
      </trkpt>
      <trkpt lat="45.64063" lon="0.36376">
        <ele>91</ele>
        <time>2011-07-14T05:35:27Z</time>
      </trkpt>
      <trkpt lat="45.64068" lon="0.36371">
        <ele>91</ele>
        <time>2011-07-14T05:35:29Z</time>
      </trkpt>
      <trkpt lat="45.64134" lon="0.36302">
        <ele>92</ele>
        <time>2011-07-14T05:35:43Z</time>
      </trkpt>
      <trkpt lat="45.64205" lon="0.36224">
        <ele>92</ele>
        <time>2011-07-14T05:35:56Z</time>
      </trkpt>
      <trkpt lat="45.64291" lon="0.36132">
        <ele>92</ele>
        <time>2011-07-14T05:36:11Z</time>
      </trkpt>
      <trkpt lat="45.64308" lon="0.36113">
        <ele>92</ele>
        <time>2011-07-14T05:36:14Z</time>
      </trkpt>
      <trkpt lat="45.64372" lon="0.36042">
        <ele>94</ele>
        <time>2011-07-14T05:36:26Z</time>
      </trkpt>
      <trkpt lat="45.64388" lon="0.36024">
        <ele>94</ele>
        <time>2011-07-14T05:36:34Z</time>
      </trkpt>
      <trkpt lat="45.64392" lon="0.36019">
        <ele>94</ele>
        <time>2011-07-14T05:36:43Z</time>
      </trkpt>
      <trkpt lat="45.64432" lon="0.35983">
        <ele>94</ele>
        <time>2011-07-14T05:36:55Z</time>
      </trkpt>
      <trkpt lat="45.6444" lon="0.35974">
        <ele>94</ele>
        <time>2011-07-14T05:36:58Z</time>
      </trkpt>
      <trkpt lat="45.64446" lon="0.35969">
        <ele>94</ele>
        <time>2011-07-14T05:37:02Z</time>
      </trkpt>
      <trkpt lat="45.64453" lon="0.35958">
        <ele>94</ele>
        <time>2011-07-14T05:37:07Z</time>
      </trkpt>
      <trkpt lat="45.64466" lon="0.35944">
        <ele>94</ele>
        <time>2011-07-14T05:37:13Z</time>
      </trkpt>
      <trkpt lat="45.6454" lon="0.35865">
        <ele>94</ele>
        <time>2011-07-14T05:37:27Z</time>
      </trkpt>
      <trkpt lat="45.64628" lon="0.35768">
        <ele>94</ele>
        <time>2011-07-14T05:37:42Z</time>
      </trkpt>
      <trkpt lat="45.64708" lon="0.35681">
        <ele>94</ele>
        <time>2011-07-14T05:37:54Z</time>
      </trkpt>
      <trkpt lat="45.64779" lon="0.35609">
        <ele>96</ele>
        <time>2011-07-14T05:38:05Z</time>
      </trkpt>
      <trkpt lat="45.64798" lon="0.35588">
        <ele>96</ele>
        <time>2011-07-14T05:38:08Z</time>
      </trkpt>
      <trkpt lat="45.64823" lon="0.35561">
        <ele>99</ele>
        <time>2011-07-14T05:38:12Z</time>
      </trkpt>
      <trkpt lat="45.64874" lon="0.35505">
        <ele>96</ele>
        <time>2011-07-14T05:38:21Z</time>
      </trkpt>
      <trkpt lat="45.64945" lon="0.35427">
        <ele>97</ele>
        <time>2011-07-14T05:38:33Z</time>
      </trkpt>
      <trkpt lat="45.64953" lon="0.35417">
        <ele>97</ele>
        <time>2011-07-14T05:38:35Z</time>
      </trkpt>
      <trkpt lat="45.64974" lon="0.35394">
        <ele>98</ele>
        <time>2011-07-14T05:38:38Z</time>
      </trkpt>
      <trkpt lat="45.65068" lon="0.35293">
        <ele>99</ele>
        <time>2011-07-14T05:38:53Z</time>
      </trkpt>
      <trkpt lat="45.65115" lon="0.3524">
        <ele>100</ele>
        <time>2011-07-14T05:39:01Z</time>
      </trkpt>
      <trkpt lat="45.65162" lon="0.35192">
        <ele>100</ele>
        <time>2011-07-14T05:39:09Z</time>
      </trkpt>
      <trkpt lat="45.65255" lon="0.35088">
        <ele>100</ele>
        <time>2011-07-14T05:39:25Z</time>
      </trkpt>
      <trkpt lat="45.65353" lon="0.34986">
        <ele>101</ele>
        <time>2011-07-14T05:39:42Z</time>
      </trkpt>
      <trkpt lat="45.65452" lon="0.34885">
        <ele>104</ele>
        <time>2011-07-14T05:39:59Z</time>
      </trkpt>
      <trkpt lat="45.65538" lon="0.34799">
        <ele>105</ele>
        <time>2011-07-14T05:40:14Z</time>
      </trkpt>
      <trkpt lat="45.65602" lon="0.34729">
        <ele>104</ele>
        <time>2011-07-14T05:40:27Z</time>
      </trkpt>
      <trkpt lat="45.65606" lon="0.34727">
        <ele>104</ele>
        <time>2011-07-14T05:40:29Z</time>
      </trkpt>
      <trkpt lat="45.65616" lon="0.34712">
        <ele>104</ele>
        <time>2011-07-14T05:40:35Z</time>
      </trkpt>
      <trkpt lat="45.65633" lon="0.34698">
        <ele>104</ele>
        <time>2011-07-14T05:40:40Z</time>
      </trkpt>
      <trkpt lat="45.65706" lon="0.34625">
        <ele>104</ele>
        <time>2011-07-14T05:40:54Z</time>
      </trkpt>
      <trkpt lat="45.65718" lon="0.34612">
        <ele>104</ele>
        <time>2011-07-14T05:40:56Z</time>
      </trkpt>
      <trkpt lat="45.65733" lon="0.34595">
        <ele>104</ele>
        <time>2011-07-14T05:40:59Z</time>
      </trkpt>
      <trkpt lat="45.65838" lon="0.34493">
        <ele>105</ele>
        <time>2011-07-14T05:41:16Z</time>
      </trkpt>
      <trkpt lat="45.6594" lon="0.34387">
        <ele>105</ele>
        <time>2011-07-14T05:41:33Z</time>
      </trkpt>
      <trkpt lat="45.6598" lon="0.34346">
        <ele>107</ele>
        <time>2011-07-14T05:41:41Z</time>
      </trkpt>
      <trkpt lat="45.65989" lon="0.34334">
        <ele>108</ele>
        <time>2011-07-14T05:41:44Z</time>
      </trkpt>
      <trkpt lat="45.65999" lon="0.34323">
        <ele>109</ele>
        <time>2011-07-14T05:41:51Z</time>
      </trkpt>
      <trkpt lat="45.66015" lon="0.34303">
        <ele>109</ele>
        <time>2011-07-14T05:41:57Z</time>
      </trkpt>
      <trkpt lat="45.66062" lon="0.34229">
        <ele>111</ele>
        <time>2011-07-14T05:42:09Z</time>
      </trkpt>
      <trkpt lat="45.66116" lon="0.34113">
        <ele>112</ele>
        <time>2011-07-14T05:42:24Z</time>
      </trkpt>
      <trkpt lat="45.66135" lon="0.34065">
        <ele>112</ele>
        <time>2011-07-14T05:42:30Z</time>
      </trkpt>
      <trkpt lat="45.6617" lon="0.33907">
        <ele>110</ele>
        <time>2011-07-14T05:42:46Z</time>
      </trkpt>
      <trkpt lat="45.66181" lon="0.33717">
        <ele>114</ele>
        <time>2011-07-14T05:43:05Z</time>
      </trkpt>
      <trkpt lat="45.66179" lon="0.33607">
        <ele>115</ele>
        <time>2011-07-14T05:43:15Z</time>
      </trkpt>
      <trkpt lat="45.66177" lon="0.33472">
        <ele>116</ele>
        <time>2011-07-14T05:43:27Z</time>
      </trkpt>
      <trkpt lat="45.66172" lon="0.33314">
        <ele>115</ele>
        <time>2011-07-14T05:43:41Z</time>
      </trkpt>
      <trkpt lat="45.66175" lon="0.33184">
        <ele>114</ele>
        <time>2011-07-14T05:43:52Z</time>
      </trkpt>
      <trkpt lat="45.6619" lon="0.33082">
        <ele>114</ele>
        <time>2011-07-14T05:44:01Z</time>
      </trkpt>
      <trkpt lat="45.6624" lon="0.32922">
        <ele>111</ele>
        <time>2011-07-14T05:44:16Z</time>
      </trkpt>
      <trkpt lat="45.66242" lon="0.32915">
        <ele>110</ele>
        <time>2011-07-14T05:44:17Z</time>
      </trkpt>
      <trkpt lat="45.6625" lon="0.32906">
        <ele>109</ele>
        <time>2011-07-14T05:44:21Z</time>
      </trkpt>
      <trkpt lat="45.66255" lon="0.32894">
        <ele>109</ele>
        <time>2011-07-14T05:44:25Z</time>
      </trkpt>
      <trkpt lat="45.66261" lon="0.32886">
        <ele>109</ele>
        <time>2011-07-14T05:44:27Z</time>
      </trkpt>
      <trkpt lat="45.6632" lon="0.32795">
        <ele>107</ele>
        <time>2011-07-14T05:44:40Z</time>
      </trkpt>
      <trkpt lat="45.66429" lon="0.32693">
        <ele>106</ele>
        <time>2011-07-14T05:44:56Z</time>
      </trkpt>
      <trkpt lat="45.66494" lon="0.32658">
        <ele>106</ele>
        <time>2011-07-14T05:45:04Z</time>
      </trkpt>
      <trkpt lat="45.66652" lon="0.32616">
        <ele>106</ele>
        <time>2011-07-14T05:45:25Z</time>
      </trkpt>
      <trkpt lat="45.66662" lon="0.32615">
        <ele>106</ele>
        <time>2011-07-14T05:45:30Z</time>
      </trkpt>
      <trkpt lat="45.66669" lon="0.32614">
        <ele>107</ele>
        <time>2011-07-14T05:45:33Z</time>
      </trkpt>
      <trkpt lat="45.66677" lon="0.32612">
        <ele>107</ele>
        <time>2011-07-14T05:45:37Z</time>
      </trkpt>
      <trkpt lat="45.66765" lon="0.3259">
        <ele>110</ele>
        <time>2011-07-14T05:45:52Z</time>
      </trkpt>
      <trkpt lat="45.66864" lon="0.32542">
        <ele>110</ele>
        <time>2011-07-14T05:46:06Z</time>
      </trkpt>
      <trkpt lat="45.66975" lon="0.3243">
        <ele>107</ele>
        <time>2011-07-14T05:46:22Z</time>
      </trkpt>
      <trkpt lat="45.67026" lon="0.3234">
        <ele>108</ele>
        <time>2011-07-14T05:46:32Z</time>
      </trkpt>
      <trkpt lat="45.67042" lon="0.32295">
        <ele>107</ele>
        <time>2011-07-14T05:46:38Z</time>
      </trkpt>
      <trkpt lat="45.6705" lon="0.32282">
        <ele>107</ele>
        <time>2011-07-14T05:46:43Z</time>
      </trkpt>
      <trkpt lat="45.67062" lon="0.32262">
        <ele>107</ele>
        <time>2011-07-14T05:46:47Z</time>
      </trkpt>
      <trkpt lat="45.67095" lon="0.32147">
        <ele>104</ele>
        <time>2011-07-14T05:46:59Z</time>
      </trkpt>
      <trkpt lat="45.67111" lon="0.32058">
        <ele>105</ele>
        <time>2011-07-14T05:47:09Z</time>
      </trkpt>
      <trkpt lat="45.67118" lon="0.31986">
        <ele>107</ele>
        <time>2011-07-14T05:47:20Z</time>
      </trkpt>
      <trkpt lat="45.67118" lon="0.31977">
        <ele>107</ele>
        <time>2011-07-14T05:47:21Z</time>
      </trkpt>
      <trkpt lat="45.67115" lon="0.31929">
        <ele>107</ele>
        <time>2011-07-14T05:47:26Z</time>
      </trkpt>
      <trkpt lat="45.67112" lon="0.31888">
        <ele>109</ele>
        <time>2011-07-14T05:47:30Z</time>
      </trkpt>
      <trkpt lat="45.67103" lon="0.31858">
        <ele>109</ele>
        <time>2011-07-14T05:47:34Z</time>
      </trkpt>
      <trkpt lat="45.67116" lon="0.31826">
        <ele>109</ele>
        <time>2011-07-14T05:47:42Z</time>
      </trkpt>
      <trkpt lat="45.6712" lon="0.31802">
        <ele>109</ele>
        <time>2011-07-14T05:47:46Z</time>
      </trkpt>
      <trkpt lat="45.67126" lon="0.31781">
        <ele>109</ele>
        <time>2011-07-14T05:47:49Z</time>
      </trkpt>
      <trkpt lat="45.67137" lon="0.3171">
        <ele>109</ele>
        <time>2011-07-14T05:47:58Z</time>
      </trkpt>
      <trkpt lat="45.67142" lon="0.31687">
        <ele>109</ele>
        <time>2011-07-14T05:48:01Z</time>
      </trkpt>
      <trkpt lat="45.67146" lon="0.31636">
        <ele>109</ele>
        <time>2011-07-14T05:48:07Z</time>
      </trkpt>
      <trkpt lat="45.67144" lon="0.31592">
        <ele>110</ele>
        <time>2011-07-14T05:48:12Z</time>
      </trkpt>
      <trkpt lat="45.67112" lon="0.31477">
        <ele>110</ele>
        <time>2011-07-14T05:48:25Z</time>
      </trkpt>
      <trkpt lat="45.67105" lon="0.31464">
        <ele>110</ele>
        <time>2011-07-14T05:48:28Z</time>
      </trkpt>
      <trkpt lat="45.67097" lon="0.31457">
        <ele>110</ele>
        <time>2011-07-14T05:48:32Z</time>
      </trkpt>
      <trkpt lat="45.67092" lon="0.31449">
        <ele>110</ele>
        <time>2011-07-14T05:48:34Z</time>
      </trkpt>
      <trkpt lat="45.67083" lon="0.31435">
        <ele>109</ele>
        <time>2011-07-14T05:48:37Z</time>
      </trkpt>
      <trkpt lat="45.67082" lon="0.31415">
        <ele>109</ele>
        <time>2011-07-14T05:48:40Z</time>
      </trkpt>
      <trkpt lat="45.67066" lon="0.31353">
        <ele>110</ele>
        <time>2011-07-14T05:48:49Z</time>
      </trkpt>
      <trkpt lat="45.67038" lon="0.31214">
        <ele>110</ele>
        <time>2011-07-14T05:49:05Z</time>
      </trkpt>
      <trkpt lat="45.6703" lon="0.31164">
        <ele>110</ele>
        <time>2011-07-14T05:49:10Z</time>
      </trkpt>
      <trkpt lat="45.67033" lon="0.3102">
        <ele>112</ele>
        <time>2011-07-14T05:49:25Z</time>
      </trkpt>
      <trkpt lat="45.67026" lon="0.30957">
        <ele>113</ele>
        <time>2011-07-14T05:49:32Z</time>
      </trkpt>
      <trkpt lat="45.67012" lon="0.30926">
        <ele>114</ele>
        <time>2011-07-14T05:49:37Z</time>
      </trkpt>
      <trkpt lat="45.66998" lon="0.30909">
        <ele>116</ele>
        <time>2011-07-14T05:49:42Z</time>
      </trkpt>
      <trkpt lat="45.66996" lon="0.30897">
        <ele>116</ele>
        <time>2011-07-14T05:49:47Z</time>
      </trkpt>
      <trkpt lat="45.66991" lon="0.30871">
        <ele>117</ele>
        <time>2011-07-14T05:49:52Z</time>
      </trkpt>
      <trkpt lat="45.66993" lon="0.30764">
        <ele>119</ele>
        <time>2011-07-14T05:50:07Z</time>
      </trkpt>
      <trkpt lat="45.66995" lon="0.30715">
        <ele>121</ele>
        <time>2011-07-14T05:50:13Z</time>
      </trkpt>
      <trkpt lat="45.66994" lon="0.30676">
        <ele>122</ele>
        <time>2011-07-14T05:50:18Z</time>
      </trkpt>
      <trkpt lat="45.66989" lon="0.30644">
        <ele>123</ele>
        <time>2011-07-14T05:50:22Z</time>
      </trkpt>
      <trkpt lat="45.66989" lon="0.3062">
        <ele>123</ele>
        <time>2011-07-14T05:50:25Z</time>
      </trkpt>
      <trkpt lat="45.66997" lon="0.30557">
        <ele>124</ele>
        <time>2011-07-14T05:50:33Z</time>
      </trkpt>
      <trkpt lat="45.66992" lon="0.30491">
        <ele>126</ele>
        <time>2011-07-14T05:50:41Z</time>
      </trkpt>
      <trkpt lat="45.6696" lon="0.30366">
        <ele>126</ele>
        <time>2011-07-14T05:50:57Z</time>
      </trkpt>
      <trkpt lat="45.66954" lon="0.30332">
        <ele>126</ele>
        <time>2011-07-14T05:51:01Z</time>
      </trkpt>
      <trkpt lat="45.66941" lon="0.30278">
        <ele>126</ele>
        <time>2011-07-14T05:51:08Z</time>
      </trkpt>
      <trkpt lat="45.66935" lon="0.3024">
        <ele>127</ele>
        <time>2011-07-14T05:51:13Z</time>
      </trkpt>
      <trkpt lat="45.6694" lon="0.30149">
        <ele>131</ele>
        <time>2011-07-14T05:51:25Z</time>
      </trkpt>
      <trkpt lat="45.66929" lon="0.3014">
        <ele>131</ele>
        <time>2011-07-14T05:51:30Z</time>
      </trkpt>
      <trkpt lat="45.66897" lon="0.30149">
        <ele>129</ele>
        <time>2011-07-14T05:51:36Z</time>
      </trkpt>
      <trkpt lat="45.66873" lon="0.30138">
        <ele>129</ele>
        <time>2011-07-14T05:51:40Z</time>
      </trkpt>
      <trkpt lat="45.66792" lon="0.30053">
        <ele>129</ele>
        <time>2011-07-14T05:51:56Z</time>
      </trkpt>
      <trkpt lat="45.66774" lon="0.30034">
        <ele>129</ele>
        <time>2011-07-14T05:52:00Z</time>
      </trkpt>
      <trkpt lat="45.66755" lon="0.30015">
        <ele>130</ele>
        <time>2011-07-14T05:52:04Z</time>
      </trkpt>
      <trkpt lat="45.6667" lon="0.29926">
        <ele>135</ele>
        <time>2011-07-14T05:52:24Z</time>
      </trkpt>
      <trkpt lat="45.66653" lon="0.2991">
        <ele>136</ele>
        <time>2011-07-14T05:52:33Z</time>
      </trkpt>
      <trkpt lat="45.66653" lon="0.2991">
        <ele>136</ele>
        <time>2011-07-14T05:52:34Z</time>
      </trkpt>
      <trkpt lat="45.66656" lon="0.29891">
        <ele>136</ele>
        <time>2011-07-14T05:52:39Z</time>
      </trkpt>
      <trkpt lat="45.66663" lon="0.2986">
        <ele>136</ele>
        <time>2011-07-14T05:52:44Z</time>
      </trkpt>
      <trkpt lat="45.66663" lon="0.2983">
        <ele>136</ele>
        <time>2011-07-14T05:52:49Z</time>
      </trkpt>
      <trkpt lat="45.66673" lon="0.29772">
        <ele>136</ele>
        <time>2011-07-14T05:52:57Z</time>
      </trkpt>
      <trkpt lat="45.66679" lon="0.2975">
        <ele>136</ele>
        <time>2011-07-14T05:53:00Z</time>
      </trkpt>
      <trkpt lat="45.667" lon="0.29624">
        <ele>136</ele>
        <time>2011-07-14T05:53:14Z</time>
      </trkpt>
      <trkpt lat="45.66718" lon="0.29445">
        <ele>132</ele>
        <time>2011-07-14T05:53:29Z</time>
      </trkpt>
      <trkpt lat="45.66711" lon="0.29221">
        <ele>134</ele>
        <time>2011-07-14T05:53:47Z</time>
      </trkpt>
      <trkpt lat="45.66705" lon="0.2906">
        <ele>138</ele>
        <time>2011-07-14T05:54:02Z</time>
      </trkpt>
      <trkpt lat="45.667" lon="0.28967">
        <ele>141</ele>
        <time>2011-07-14T05:54:12Z</time>
      </trkpt>
      <trkpt lat="45.66699" lon="0.28941">
        <ele>142</ele>
        <time>2011-07-14T05:54:15Z</time>
      </trkpt>
      <trkpt lat="45.66697" lon="0.28918">
        <ele>142</ele>
        <time>2011-07-14T05:54:18Z</time>
      </trkpt>
      <trkpt lat="45.66673" lon="0.28768">
        <ele>147</ele>
        <time>2011-07-14T05:54:39Z</time>
      </trkpt>
      <trkpt lat="45.66671" lon="0.28753">
        <ele>147</ele>
        <time>2011-07-14T05:54:41Z</time>
      </trkpt>
      <trkpt lat="45.66632" lon="0.28577">
        <ele>152</ele>
        <time>2011-07-14T05:55:06Z</time>
      </trkpt>
      <trkpt lat="45.66615" lon="0.28489">
        <ele>153</ele>
        <time>2011-07-14T05:55:22Z</time>
      </trkpt>
      <trkpt lat="45.66613" lon="0.28477">
        <ele>153</ele>
        <time>2011-07-14T05:55:33Z</time>
      </trkpt>
      <trkpt lat="45.66613" lon="0.28478">
        <ele>153</ele>
        <time>2011-07-14T05:55:49Z</time>
      </trkpt>
      <trkpt lat="45.66604" lon="0.28435">
        <ele>154</ele>
        <time>2011-07-14T05:56:00Z</time>
      </trkpt>
      <trkpt lat="45.66577" lon="0.2831">
        <ele>156</ele>
        <time>2011-07-14T05:56:17Z</time>
      </trkpt>
      <trkpt lat="45.66555" lon="0.28201">
        <ele>158</ele>
        <time>2011-07-14T05:56:31Z</time>
      </trkpt>
      <trkpt lat="45.66529" lon="0.28092">
        <ele>158</ele>
        <time>2011-07-14T05:56:45Z</time>
      </trkpt>
      <trkpt lat="45.66493" lon="0.27943">
        <ele>154</ele>
        <time>2011-07-14T05:57:01Z</time>
      </trkpt>
      <trkpt lat="45.66443" lon="0.2773">
        <ele>148</ele>
        <time>2011-07-14T05:57:17Z</time>
      </trkpt>
      <trkpt lat="45.66425" lon="0.27632">
        <ele>146</ele>
        <time>2011-07-14T05:57:24Z</time>
      </trkpt>
      <trkpt lat="45.66435" lon="0.27535">
        <ele>144</ele>
        <time>2011-07-14T05:57:31Z</time>
      </trkpt>
      <trkpt lat="45.66484" lon="0.27375">
        <ele>136</ele>
        <time>2011-07-14T05:57:43Z</time>
      </trkpt>
      <trkpt lat="45.66475" lon="0.27288">
        <ele>133</ele>
        <time>2011-07-14T05:57:49Z</time>
      </trkpt>
      <trkpt lat="45.66374" lon="0.27002">
        <ele>120</ele>
        <time>2011-07-14T05:58:10Z</time>
      </trkpt>
      <trkpt lat="45.66279" lon="0.26748">
        <ele>106</ele>
        <time>2011-07-14T05:58:27Z</time>
      </trkpt>
      <trkpt lat="45.66216" lon="0.26562">
        <ele>95</ele>
        <time>2011-07-14T05:58:39Z</time>
      </trkpt>
      <trkpt lat="45.6623" lon="0.26424">
        <ele>90</ele>
        <time>2011-07-14T05:58:47Z</time>
      </trkpt>
      <trkpt lat="45.66266" lon="0.26363">
        <ele>88</ele>
        <time>2011-07-14T05:58:52Z</time>
      </trkpt>
      <trkpt lat="45.66294" lon="0.26273">
        <ele>82</ele>
        <time>2011-07-14T05:58:59Z</time>
      </trkpt>
      <trkpt lat="45.66265" lon="0.26241">
        <ele>78</ele>
        <time>2011-07-14T05:59:03Z</time>
      </trkpt>
      <trkpt lat="45.66247" lon="0.26227">
        <ele>77</ele>
        <time>2011-07-14T05:59:05Z</time>
      </trkpt>
      <trkpt lat="45.66226" lon="0.26177">
        <ele>75</ele>
        <time>2011-07-14T05:59:09Z</time>
      </trkpt>
      <trkpt lat="45.66209" lon="0.26117">
        <ele>72</ele>
        <time>2011-07-14T05:59:13Z</time>
      </trkpt>
      <trkpt lat="45.66179" lon="0.26057">
        <ele>70</ele>
        <time>2011-07-14T05:59:18Z</time>
      </trkpt>
      <trkpt lat="45.66144" lon="0.26008">
        <ele>68</ele>
        <time>2011-07-14T05:59:23Z</time>
      </trkpt>
      <trkpt lat="45.66124" lon="0.25977">
        <ele>64</ele>
        <time>2011-07-14T05:59:26Z</time>
      </trkpt>
      <trkpt lat="45.66119" lon="0.2593">
        <ele>63</ele>
        <time>2011-07-14T05:59:31Z</time>
      </trkpt>
      <trkpt lat="45.66123" lon="0.259">
        <ele>59</ele>
        <time>2011-07-14T05:59:39Z</time>
      </trkpt>
      <trkpt lat="45.66121" lon="0.25897">
        <ele>59</ele>
        <time>2011-07-14T05:59:41Z</time>
      </trkpt>
      <trkpt lat="45.66093" lon="0.25894">
        <ele>58</ele>
        <time>2011-07-14T05:59:49Z</time>
      </trkpt>
      <trkpt lat="45.66073" lon="0.25854">
        <ele>55</ele>
        <time>2011-07-14T05:59:56Z</time>
      </trkpt>
      <trkpt lat="45.66075" lon="0.25843">
        <ele>55</ele>
        <time>2011-07-14T05:59:57Z</time>
      </trkpt>
      <trkpt lat="45.66077" lon="0.2582">
        <ele>53</ele>
        <time>2011-07-14T05:59:59Z</time>
      </trkpt>
      <trkpt lat="45.66026" lon="0.25649">
        <ele>49</ele>
        <time>2011-07-14T06:00:13Z</time>
      </trkpt>
      <trkpt lat="45.65972" lon="0.25468">
        <ele>49</ele>
        <time>2011-07-14T06:00:29Z</time>
      </trkpt>
      <trkpt lat="45.65955" lon="0.25421">
        <ele>48</ele>
        <time>2011-07-14T06:00:34Z</time>
      </trkpt>
      <trkpt lat="45.65963" lon="0.25392">
        <ele>49</ele>
        <time>2011-07-14T06:00:39Z</time>
      </trkpt>
      <trkpt lat="45.66007" lon="0.25355">
        <ele>49</ele>
        <time>2011-07-14T06:00:47Z</time>
      </trkpt>
      <trkpt lat="45.66016" lon="0.25347">
        <ele>49</ele>
        <time>2011-07-14T06:00:49Z</time>
      </trkpt>
      <trkpt lat="45.66011" lon="0.25308">
        <ele>49</ele>
        <time>2011-07-14T06:00:55Z</time>
      </trkpt>
      <trkpt lat="45.65998" lon="0.25287">
        <ele>50</ele>
        <time>2011-07-14T06:00:58Z</time>
      </trkpt>
      <trkpt lat="45.65976" lon="0.25239">
        <ele>49</ele>
        <time>2011-07-14T06:01:04Z</time>
      </trkpt>
      <trkpt lat="45.65942" lon="0.25115">
        <ele>48</ele>
        <time>2011-07-14T06:01:17Z</time>
      </trkpt>
      <trkpt lat="45.65923" lon="0.24971">
        <ele>49</ele>
        <time>2011-07-14T06:01:31Z</time>
      </trkpt>
      <trkpt lat="45.65927" lon="0.2482">
        <ele>50</ele>
        <time>2011-07-14T06:01:45Z</time>
      </trkpt>
      <trkpt lat="45.65963" lon="0.24651">
        <ele>49</ele>
        <time>2011-07-14T06:02:01Z</time>
      </trkpt>
      <trkpt lat="45.66035" lon="0.2447">
        <ele>52</ele>
        <time>2011-07-14T06:02:19Z</time>
      </trkpt>
      <trkpt lat="45.66058" lon="0.24434">
        <ele>53</ele>
        <time>2011-07-14T06:02:24Z</time>
      </trkpt>
      <trkpt lat="45.66067" lon="0.24425">
        <ele>53</ele>
        <time>2011-07-14T06:02:26Z</time>
      </trkpt>
      <trkpt lat="45.66066" lon="0.24399">
        <ele>56</ele>
        <time>2011-07-14T06:02:34Z</time>
      </trkpt>
      <trkpt lat="45.6606" lon="0.244">
        <ele>56</ele>
        <time>2011-07-14T06:02:36Z</time>
      </trkpt>
      <trkpt lat="45.66051" lon="0.24403">
        <ele>56</ele>
        <time>2011-07-14T06:02:39Z</time>
      </trkpt>
      <trkpt lat="45.6604" lon="0.24374">
        <ele>57</ele>
        <time>2011-07-14T06:02:47Z</time>
      </trkpt>
      <trkpt lat="45.66045" lon="0.24368">
        <ele>57</ele>
        <time>2011-07-14T06:02:49Z</time>
      </trkpt>
      <trkpt lat="45.66052" lon="0.24361">
        <ele>57</ele>
        <time>2011-07-14T06:02:51Z</time>
      </trkpt>
      <trkpt lat="45.66111" lon="0.24271">
        <ele>55</ele>
        <time>2011-07-14T06:03:05Z</time>
      </trkpt>
      <trkpt lat="45.66169" lon="0.24133">
        <ele>54</ele>
        <time>2011-07-14T06:03:21Z</time>
      </trkpt>
      <trkpt lat="45.66232" lon="0.24001">
        <ele>58</ele>
        <time>2011-07-14T06:03:38Z</time>
      </trkpt>
      <trkpt lat="45.66266" lon="0.23928">
        <ele>60</ele>
        <time>2011-07-14T06:03:49Z</time>
      </trkpt>
      <trkpt lat="45.66291" lon="0.23876">
        <ele>60</ele>
        <time>2011-07-14T06:03:57Z</time>
      </trkpt>
      <trkpt lat="45.66298" lon="0.23858">
        <ele>60</ele>
        <time>2011-07-14T06:04:00Z</time>
      </trkpt>
      <trkpt lat="45.6636" lon="0.23753">
        <ele>57</ele>
        <time>2011-07-14T06:04:13Z</time>
      </trkpt>
      <trkpt lat="45.66376" lon="0.2373">
        <ele>58</ele>
        <time>2011-07-14T06:04:16Z</time>
      </trkpt>
      <trkpt lat="45.6639" lon="0.23698">
        <ele>58</ele>
        <time>2011-07-14T06:04:20Z</time>
      </trkpt>
      <trkpt lat="45.6642" lon="0.23658">
        <ele>57</ele>
        <time>2011-07-14T06:04:30Z</time>
      </trkpt>
      <trkpt lat="45.66438" lon="0.23651">
        <ele>56</ele>
        <time>2011-07-14T06:04:40Z</time>
      </trkpt>
      <trkpt lat="45.66453" lon="0.23652">
        <ele>56</ele>
        <time>2011-07-14T06:04:43Z</time>
      </trkpt>
      <trkpt lat="45.66476" lon="0.2364">
        <ele>56</ele>
        <time>2011-07-14T06:04:47Z</time>
      </trkpt>
      <trkpt lat="45.66582" lon="0.23582">
        <ele>56</ele>
        <time>2011-07-14T06:05:02Z</time>
      </trkpt>
      <trkpt lat="45.66627" lon="0.23571">
        <ele>59</ele>
        <time>2011-07-14T06:05:10Z</time>
      </trkpt>
      <trkpt lat="45.66719" lon="0.23563">
        <ele>60</ele>
        <time>2011-07-14T06:05:28Z</time>
      </trkpt>
      <trkpt lat="45.6678" lon="0.23565">
        <ele>60</ele>
        <time>2011-07-14T06:05:38Z</time>
      </trkpt>
      <trkpt lat="45.66806" lon="0.23553">
        <ele>60</ele>
        <time>2011-07-14T06:05:42Z</time>
      </trkpt>
      <trkpt lat="45.66865" lon="0.23503">
        <ele>58</ele>
        <time>2011-07-14T06:05:51Z</time>
      </trkpt>
      <trkpt lat="45.66884" lon="0.23506">
        <ele>57</ele>
        <time>2011-07-14T06:05:57Z</time>
      </trkpt>
      <trkpt lat="45.66883" lon="0.23511">
        <ele>57</ele>
        <time>2011-07-14T06:05:58Z</time>
      </trkpt>
      <trkpt lat="45.66851" lon="0.23591">
        <ele>57</ele>
        <time>2011-07-14T06:06:11Z</time>
      </trkpt>
      <trkpt lat="45.66847" lon="0.23599">
        <ele>56</ele>
        <time>2011-07-14T06:06:13Z</time>
      </trkpt>
      <trkpt lat="45.6686" lon="0.23616">
        <ele>56</ele>
        <time>2011-07-14T06:06:19Z</time>
      </trkpt>
      <trkpt lat="45.66867" lon="0.23616">
        <ele>56</ele>
        <time>2011-07-14T06:06:29Z</time>
      </trkpt>
      <trkpt lat="45.66903" lon="0.23604">
        <ele>55</ele>
        <time>2011-07-14T06:06:39Z</time>
      </trkpt>
      <trkpt lat="45.66977" lon="0.23574">
        <ele>53</ele>
        <time>2011-07-14T06:06:52Z</time>
      </trkpt>
      <trkpt lat="45.67097" lon="0.23514">
        <ele>51</ele>
        <time>2011-07-14T06:07:08Z</time>
      </trkpt>
      <trkpt lat="45.67208" lon="0.23407">
        <ele>49</ele>
        <time>2011-07-14T06:07:25Z</time>
      </trkpt>
      <trkpt lat="45.67223" lon="0.23385">
        <ele>49</ele>
        <time>2011-07-14T06:07:29Z</time>
      </trkpt>
      <trkpt lat="45.67238" lon="0.2337">
        <ele>49</ele>
        <time>2011-07-14T06:07:38Z</time>
      </trkpt>
      <trkpt lat="45.67239" lon="0.2337">
        <ele>49</ele>
        <time>2011-07-14T06:08:10Z</time>
      </trkpt>
      <trkpt lat="45.67238" lon="0.23369">
        <ele>49</ele>
        <time>2011-07-14T06:08:38Z</time>
      </trkpt>
      <trkpt lat="45.67258" lon="0.23336">
        <ele>49</ele>
        <time>2011-07-14T06:08:49Z</time>
      </trkpt>
      <trkpt lat="45.67282" lon="0.23296">
        <ele>50</ele>
        <time>2011-07-14T06:08:56Z</time>
      </trkpt>
      <trkpt lat="45.67343" lon="0.23156">
        <ele>49</ele>
        <time>2011-07-14T06:09:12Z</time>
      </trkpt>
      <trkpt lat="45.67403" lon="0.22989">
        <ele>51</ele>
        <time>2011-07-14T06:09:29Z</time>
      </trkpt>
      <trkpt lat="45.67474" lon="0.22805">
        <ele>47</ele>
        <time>2011-07-14T06:09:47Z</time>
      </trkpt>
      <trkpt lat="45.67532" lon="0.22633">
        <ele>46</ele>
        <time>2011-07-14T06:10:02Z</time>
      </trkpt>
      <trkpt lat="45.67542" lon="0.22602">
        <ele>46</ele>
        <time>2011-07-14T06:10:05Z</time>
      </trkpt>
      <trkpt lat="45.6756" lon="0.22546">
        <ele>48</ele>
        <time>2011-07-14T06:10:13Z</time>
      </trkpt>
      <trkpt lat="45.67575" lon="0.22497">
        <ele>48</ele>
        <time>2011-07-14T06:10:21Z</time>
      </trkpt>
      <trkpt lat="45.67571" lon="0.22481">
        <ele>49</ele>
        <time>2011-07-14T06:10:25Z</time>
      </trkpt>
      <trkpt lat="45.67574" lon="0.22457">
        <ele>49</ele>
        <time>2011-07-14T06:10:30Z</time>
      </trkpt>
      <trkpt lat="45.67596" lon="0.22352">
        <ele>48</ele>
        <time>2011-07-14T06:10:44Z</time>
      </trkpt>
      <trkpt lat="45.67598" lon="0.22343">
        <ele>48</ele>
        <time>2011-07-14T06:10:45Z</time>
      </trkpt>
      <trkpt lat="45.67614" lon="0.22304">
        <ele>47</ele>
        <time>2011-07-14T06:10:50Z</time>
      </trkpt>
      <trkpt lat="45.67616" lon="0.22278">
        <ele>47</ele>
        <time>2011-07-14T06:10:53Z</time>
      </trkpt>
      <trkpt lat="45.67626" lon="0.22246">
        <ele>48</ele>
        <time>2011-07-14T06:10:57Z</time>
      </trkpt>
      <trkpt lat="45.67628" lon="0.2223">
        <ele>48</ele>
        <time>2011-07-14T06:10:59Z</time>
      </trkpt>
      <trkpt lat="45.67641" lon="0.22194">
        <ele>49</ele>
        <time>2011-07-14T06:11:05Z</time>
      </trkpt>
      <trkpt lat="45.67651" lon="0.22192">
        <ele>48</ele>
        <time>2011-07-14T06:11:09Z</time>
      </trkpt>
      <trkpt lat="45.67658" lon="0.22195">
        <ele>48</ele>
        <time>2011-07-14T06:11:11Z</time>
      </trkpt>
      <trkpt lat="45.67744" lon="0.22219">
        <ele>48</ele>
        <time>2011-07-14T06:11:26Z</time>
      </trkpt>
      <trkpt lat="45.67749" lon="0.22221">
        <ele>48</ele>
        <time>2011-07-14T06:11:27Z</time>
      </trkpt>
      <trkpt lat="45.67762" lon="0.22204">
        <ele>47</ele>
        <time>2011-07-14T06:11:34Z</time>
      </trkpt>
      <trkpt lat="45.67726" lon="0.22074">
        <ele>48</ele>
        <time>2011-07-14T06:11:52Z</time>
      </trkpt>
      <trkpt lat="45.67695" lon="0.21954">
        <ele>49</ele>
        <time>2011-07-14T06:12:07Z</time>
      </trkpt>
      <trkpt lat="45.67693" lon="0.21943">
        <ele>49</ele>
        <time>2011-07-14T06:12:25Z</time>
      </trkpt>
      <trkpt lat="45.67679" lon="0.21895">
        <ele>51</ele>
        <time>2011-07-14T06:12:35Z</time>
      </trkpt>
      <trkpt lat="45.6767" lon="0.21863">
        <ele>51</ele>
        <time>2011-07-14T06:12:40Z</time>
      </trkpt>
      <trkpt lat="45.67637" lon="0.21737">
        <ele>53</ele>
        <time>2011-07-14T06:12:59Z</time>
      </trkpt>
      <trkpt lat="45.67604" lon="0.21614">
        <ele>54</ele>
        <time>2011-07-14T06:13:13Z</time>
      </trkpt>
      <trkpt lat="45.67576" lon="0.21534">
        <ele>58</ele>
        <time>2011-07-14T06:13:23Z</time>
      </trkpt>
      <trkpt lat="45.67536" lon="0.21421">
        <ele>61</ele>
        <time>2011-07-14T06:13:41Z</time>
      </trkpt>
      <trkpt lat="45.67532" lon="0.21408">
        <ele>62</ele>
        <time>2011-07-14T06:13:43Z</time>
      </trkpt>
      <trkpt lat="45.67494" lon="0.21311">
        <ele>67</ele>
        <time>2011-07-14T06:13:59Z</time>
      </trkpt>
      <trkpt lat="45.67489" lon="0.213">
        <ele>68</ele>
        <time>2011-07-14T06:14:01Z</time>
      </trkpt>
      <trkpt lat="45.67442" lon="0.21171">
        <ele>73</ele>
        <time>2011-07-14T06:14:24Z</time>
      </trkpt>
      <trkpt lat="45.67417" lon="0.21111">
        <ele>78</ele>
        <time>2011-07-14T06:14:35Z</time>
      </trkpt>
      <trkpt lat="45.67344" lon="0.2103">
        <ele>80</ele>
        <time>2011-07-14T06:14:56Z</time>
      </trkpt>
      <trkpt lat="45.67266" lon="0.20959">
        <ele>81</ele>
        <time>2011-07-14T06:15:14Z</time>
      </trkpt>
      <trkpt lat="45.67208" lon="0.20904">
        <ele>80</ele>
        <time>2011-07-14T06:15:25Z</time>
      </trkpt>
      <trkpt lat="45.67201" lon="0.20876">
        <ele>80</ele>
        <time>2011-07-14T06:15:30Z</time>
      </trkpt>
      <trkpt lat="45.67201" lon="0.20864">
        <ele>80</ele>
        <time>2011-07-14T06:15:32Z</time>
      </trkpt>
      <trkpt lat="45.67174" lon="0.20816">
        <ele>79</ele>
        <time>2011-07-14T06:15:41Z</time>
      </trkpt>
      <trkpt lat="45.67159" lon="0.20803">
        <ele>80</ele>
        <time>2011-07-14T06:15:46Z</time>
      </trkpt>
      <trkpt lat="45.67157" lon="0.20803">
        <ele>80</ele>
        <time>2011-07-14T06:16:02Z</time>
      </trkpt>
      <trkpt lat="45.67158" lon="0.20807">
        <ele>80</ele>
        <time>2011-07-14T06:16:39Z</time>
      </trkpt>
      <trkpt lat="45.67158" lon="0.20809">
        <ele>80</ele>
        <time>2011-07-14T06:16:56Z</time>
      </trkpt>
      <trkpt lat="45.67159" lon="0.20809">
        <ele>80</ele>
        <time>2011-07-14T06:17:42Z</time>
      </trkpt>
      <trkpt lat="45.67134" lon="0.20839">
        <ele>81</ele>
        <time>2011-07-14T06:17:55Z</time>
      </trkpt>
      <trkpt lat="45.67129" lon="0.20849">
        <ele>81</ele>
        <time>2011-07-14T06:17:58Z</time>
      </trkpt>
      <trkpt lat="45.67138" lon="0.20909">
        <ele>81</ele>
        <time>2011-07-14T06:18:14Z</time>
      </trkpt>
      <trkpt lat="45.67152" lon="0.20924">
        <ele>81</ele>
        <time>2011-07-14T06:18:19Z</time>
      </trkpt>
      <trkpt lat="45.67195" lon="0.20899">
        <ele>80</ele>
        <time>2011-07-14T06:18:29Z</time>
      </trkpt>
      <trkpt lat="45.67202" lon="0.20873">
        <ele>80</ele>
        <time>2011-07-14T06:18:32Z</time>
      </trkpt>
      <trkpt lat="45.67206" lon="0.20853">
        <ele>80</ele>
        <time>2011-07-14T06:18:34Z</time>
      </trkpt>
      <trkpt lat="45.67243" lon="0.20803">
        <ele>77</ele>
        <time>2011-07-14T06:18:41Z</time>
      </trkpt>
      <trkpt lat="45.67294" lon="0.2068">
        <ele>71</ele>
        <time>2011-07-14T06:18:53Z</time>
      </trkpt>
      <trkpt lat="45.6731" lon="0.20505">
        <ele>74</ele>
        <time>2011-07-14T06:19:06Z</time>
      </trkpt>
      <trkpt lat="45.67322" lon="0.20192">
        <ele>73</ele>
        <time>2011-07-14T06:19:29Z</time>
      </trkpt>
      <trkpt lat="45.67336" lon="0.19855">
        <ele>61</ele>
        <time>2011-07-14T06:19:54Z</time>
      </trkpt>
      <trkpt lat="45.67355" lon="0.19447">
        <ele>52</ele>
        <time>2011-07-14T06:20:23Z</time>
      </trkpt>
      <trkpt lat="45.67349" lon="0.19206">
        <ele>48</ele>
        <time>2011-07-14T06:20:40Z</time>
      </trkpt>
      <trkpt lat="45.67317" lon="0.18927">
        <ele>49</ele>
        <time>2011-07-14T06:21:01Z</time>
      </trkpt>
      <trkpt lat="45.67301" lon="0.18804">
        <ele>49</ele>
        <time>2011-07-14T06:21:12Z</time>
      </trkpt>
      <trkpt lat="45.67312" lon="0.18762">
        <ele>49</ele>
        <time>2011-07-14T06:21:17Z</time>
      </trkpt>
      <trkpt lat="45.67306" lon="0.18729">
        <ele>50</ele>
        <time>2011-07-14T06:21:21Z</time>
      </trkpt>
      <trkpt lat="45.67296" lon="0.18709">
        <ele>50</ele>
        <time>2011-07-14T06:21:24Z</time>
      </trkpt>
      <trkpt lat="45.67276" lon="0.18692">
        <ele>50</ele>
        <time>2011-07-14T06:21:29Z</time>
      </trkpt>
      <trkpt lat="45.6724" lon="0.18648">
        <ele>51</ele>
        <time>2011-07-14T06:21:38Z</time>
      </trkpt>
      <trkpt lat="45.67223" lon="0.1861">
        <ele>50</ele>
        <time>2011-07-14T06:21:43Z</time>
      </trkpt>
      <trkpt lat="45.67204" lon="0.18581">
        <ele>49</ele>
        <time>2011-07-14T06:21:47Z</time>
      </trkpt>
      <trkpt lat="45.67139" lon="0.18445">
        <ele>47</ele>
        <time>2011-07-14T06:22:00Z</time>
      </trkpt>
      <trkpt lat="45.6707" lon="0.18386">
        <ele>49</ele>
        <time>2011-07-14T06:22:10Z</time>
      </trkpt>
      <trkpt lat="45.67046" lon="0.1837">
        <ele>50</ele>
        <time>2011-07-14T06:22:14Z</time>
      </trkpt>
      <trkpt lat="45.67022" lon="0.18344">
        <ele>50</ele>
        <time>2011-07-14T06:22:19Z</time>
      </trkpt>
      <trkpt lat="45.66995" lon="0.18337">
        <ele>53</ele>
        <time>2011-07-14T06:22:24Z</time>
      </trkpt>
      <trkpt lat="45.66914" lon="0.18284">
        <ele>59</ele>
        <time>2011-07-14T06:22:42Z</time>
      </trkpt>
      <trkpt lat="45.66832" lon="0.18233">
        <ele>61</ele>
        <time>2011-07-14T06:22:59Z</time>
      </trkpt>
      <trkpt lat="45.66742" lon="0.18169">
        <ele>63</ele>
        <time>2011-07-14T06:23:17Z</time>
      </trkpt>
      <trkpt lat="45.66722" lon="0.18141">
        <ele>62</ele>
        <time>2011-07-14T06:23:22Z</time>
      </trkpt>
      <trkpt lat="45.66661" lon="0.18083">
        <ele>60</ele>
        <time>2011-07-14T06:23:33Z</time>
      </trkpt>
      <trkpt lat="45.66587" lon="0.17943">
        <ele>57</ele>
        <time>2011-07-14T06:23:47Z</time>
      </trkpt>
      <trkpt lat="45.66487" lon="0.17712">
        <ele>50</ele>
        <time>2011-07-14T06:24:06Z</time>
      </trkpt>
      <trkpt lat="45.66459" lon="0.17645">
        <ele>48</ele>
        <time>2011-07-14T06:24:12Z</time>
      </trkpt>
      <trkpt lat="45.6645" lon="0.17594">
        <ele>48</ele>
        <time>2011-07-14T06:24:17Z</time>
      </trkpt>
      <trkpt lat="45.6643" lon="0.17574">
        <ele>48</ele>
        <time>2011-07-14T06:24:21Z</time>
      </trkpt>
      <trkpt lat="45.66418" lon="0.17569">
        <ele>48</ele>
        <time>2011-07-14T06:24:23Z</time>
      </trkpt>
      <trkpt lat="45.66397" lon="0.17552">
        <ele>49</ele>
        <time>2011-07-14T06:24:27Z</time>
      </trkpt>
      <trkpt lat="45.66386" lon="0.17544">
        <ele>49</ele>
        <time>2011-07-14T06:24:29Z</time>
      </trkpt>
      <trkpt lat="45.66256" lon="0.17484">
        <ele>54</ele>
        <time>2011-07-14T06:24:50Z</time>
      </trkpt>
      <trkpt lat="45.66144" lon="0.17426">
        <ele>58</ele>
        <time>2011-07-14T06:25:11Z</time>
      </trkpt>
      <trkpt lat="45.66115" lon="0.17408">
        <ele>58</ele>
        <time>2011-07-14T06:25:22Z</time>
      </trkpt>
      <trkpt lat="45.66054" lon="0.1737">
        <ele>58</ele>
        <time>2011-07-14T06:25:34Z</time>
      </trkpt>
      <trkpt lat="45.65888" lon="0.17261">
        <ele>54</ele>
        <time>2011-07-14T06:25:59Z</time>
      </trkpt>
      <trkpt lat="45.65881" lon="0.17257">
        <ele>54</ele>
        <time>2011-07-14T06:26:00Z</time>
      </trkpt>
      <trkpt lat="45.65862" lon="0.17232">
        <ele>54</ele>
        <time>2011-07-14T06:26:04Z</time>
      </trkpt>
      <trkpt lat="45.65855" lon="0.17218">
        <ele>54</ele>
        <time>2011-07-14T06:26:06Z</time>
      </trkpt>
      <trkpt lat="45.65827" lon="0.17201">
        <ele>54</ele>
        <time>2011-07-14T06:26:11Z</time>
      </trkpt>
      <trkpt lat="45.65728" lon="0.17102">
        <ele>56</ele>
        <time>2011-07-14T06:26:27Z</time>
      </trkpt>
      <trkpt lat="45.65611" lon="0.1697">
        <ele>50</ele>
        <time>2011-07-14T06:26:44Z</time>
      </trkpt>
      <trkpt lat="45.65472" lon="0.168">
        <ele>49</ele>
        <time>2011-07-14T06:27:04Z</time>
      </trkpt>
      <trkpt lat="45.65389" lon="0.16693">
        <ele>50</ele>
        <time>2011-07-14T06:27:18Z</time>
      </trkpt>
      <trkpt lat="45.65375" lon="0.16658">
        <ele>49</ele>
        <time>2011-07-14T06:27:22Z</time>
      </trkpt>
      <trkpt lat="45.65361" lon="0.16633">
        <ele>49</ele>
        <time>2011-07-14T06:27:25Z</time>
      </trkpt>
      <trkpt lat="45.65301" lon="0.16455">
        <ele>51</ele>
        <time>2011-07-14T06:27:44Z</time>
      </trkpt>
      <trkpt lat="45.65252" lon="0.16367">
        <ele>51</ele>
        <time>2011-07-14T06:27:58Z</time>
      </trkpt>
      <trkpt lat="45.65204" lon="0.16308">
        <ele>58</ele>
        <time>2011-07-14T06:28:12Z</time>
      </trkpt>
      <trkpt lat="45.65192" lon="0.16291">
        <ele>59</ele>
        <time>2011-07-14T06:28:16Z</time>
      </trkpt>
      <trkpt lat="45.65144" lon="0.16238">
        <ele>65</ele>
        <time>2011-07-14T06:28:31Z</time>
      </trkpt>
      <trkpt lat="45.65116" lon="0.16204">
        <ele>66</ele>
        <time>2011-07-14T06:28:43Z</time>
      </trkpt>
      <trkpt lat="45.65082" lon="0.16162">
        <ele>71</ele>
        <time>2011-07-14T06:28:56Z</time>
      </trkpt>
      <trkpt lat="45.65051" lon="0.16124">
        <ele>73</ele>
        <time>2011-07-14T06:29:07Z</time>
      </trkpt>
      <trkpt lat="45.65015" lon="0.16069">
        <ele>75</ele>
        <time>2011-07-14T06:29:22Z</time>
      </trkpt>
      <trkpt lat="45.64992" lon="0.16032">
        <ele>85</ele>
        <time>2011-07-14T06:29:34Z</time>
      </trkpt>
      <trkpt lat="45.64965" lon="0.15975">
        <ele>86</ele>
        <time>2011-07-14T06:29:47Z</time>
      </trkpt>
      <trkpt lat="45.64947" lon="0.15928">
        <ele>88</ele>
        <time>2011-07-14T06:30:01Z</time>
      </trkpt>
      <trkpt lat="45.64948" lon="0.15942">
        <ele>88</ele>
        <time>2011-07-14T06:30:08Z</time>
      </trkpt>
      <trkpt lat="45.64953" lon="0.15932">
        <ele>87</ele>
        <time>2011-07-14T06:30:18Z</time>
      </trkpt>
      <trkpt lat="45.64957" lon="0.15925">
        <ele>87</ele>
        <time>2011-07-14T06:30:48Z</time>
      </trkpt>
      <trkpt lat="45.64969" lon="0.15897">
        <ele>87</ele>
        <time>2011-07-14T06:30:57Z</time>
      </trkpt>
      <trkpt lat="45.64995" lon="0.15828">
        <ele>88</ele>
        <time>2011-07-14T06:31:11Z</time>
      </trkpt>
      <trkpt lat="45.65033" lon="0.15762">
        <ele>85</ele>
        <time>2011-07-14T06:31:26Z</time>
      </trkpt>
      <trkpt lat="45.65036" lon="0.15758">
        <ele>85</ele>
        <time>2011-07-14T06:31:27Z</time>
      </trkpt>
      <trkpt lat="45.6505" lon="0.15745">
        <ele>89</ele>
        <time>2011-07-14T06:31:31Z</time>
      </trkpt>
      <trkpt lat="45.65077" lon="0.15694">
        <ele>91</ele>
        <time>2011-07-14T06:31:43Z</time>
      </trkpt>
      <trkpt lat="45.6508" lon="0.15685">
        <ele>91</ele>
        <time>2011-07-14T06:31:45Z</time>
      </trkpt>
      <trkpt lat="45.65089" lon="0.15663">
        <ele>91</ele>
        <time>2011-07-14T06:31:49Z</time>
      </trkpt>
      <trkpt lat="45.65112" lon="0.15629">
        <ele>89</ele>
        <time>2011-07-14T06:31:55Z</time>
      </trkpt>
      <trkpt lat="45.65139" lon="0.15598">
        <ele>88</ele>
        <time>2011-07-14T06:32:01Z</time>
      </trkpt>
      <trkpt lat="45.65183" lon="0.15495">
        <ele>81</ele>
        <time>2011-07-14T06:32:16Z</time>
      </trkpt>
      <trkpt lat="45.65186" lon="0.15463">
        <ele>76</ele>
        <time>2011-07-14T06:32:20Z</time>
      </trkpt>
      <trkpt lat="45.65177" lon="0.15394">
        <ele>80</ele>
        <time>2011-07-14T06:32:29Z</time>
      </trkpt>
      <trkpt lat="45.65181" lon="0.15294">
        <ele>83</ele>
        <time>2011-07-14T06:32:41Z</time>
      </trkpt>
      <trkpt lat="45.65188" lon="0.15263">
        <ele>86</ele>
        <time>2011-07-14T06:32:45Z</time>
      </trkpt>
      <trkpt lat="45.65197" lon="0.15156">
        <ele>86</ele>
        <time>2011-07-14T06:32:58Z</time>
      </trkpt>
      <trkpt lat="45.652" lon="0.15115">
        <ele>84</ele>
        <time>2011-07-14T06:33:03Z</time>
      </trkpt>
      <trkpt lat="45.65201" lon="0.15046">
        <ele>86</ele>
        <time>2011-07-14T06:33:10Z</time>
      </trkpt>
      <trkpt lat="45.65216" lon="0.14967">
        <ele>85</ele>
        <time>2011-07-14T06:33:19Z</time>
      </trkpt>
      <trkpt lat="45.65229" lon="0.1484">
        <ele>87</ele>
        <time>2011-07-14T06:33:32Z</time>
      </trkpt>
      <trkpt lat="45.65222" lon="0.14777">
        <ele>91</ele>
        <time>2011-07-14T06:33:39Z</time>
      </trkpt>
      <trkpt lat="45.65216" lon="0.14749">
        <ele>89</ele>
        <time>2011-07-14T06:33:43Z</time>
      </trkpt>
      <trkpt lat="45.65197" lon="0.1472">
        <ele>90</ele>
        <time>2011-07-14T06:33:48Z</time>
      </trkpt>
      <trkpt lat="45.65181" lon="0.14709">
        <ele>91</ele>
        <time>2011-07-14T06:33:51Z</time>
      </trkpt>
      <trkpt lat="45.65153" lon="0.14706">
        <ele>98</ele>
        <time>2011-07-14T06:33:56Z</time>
      </trkpt>
      <trkpt lat="45.65103" lon="0.1472">
        <ele>98</ele>
        <time>2011-07-14T06:34:05Z</time>
      </trkpt>
      <trkpt lat="45.65023" lon="0.14747">
        <ele>93</ele>
        <time>2011-07-14T06:34:20Z</time>
      </trkpt>
      <trkpt lat="45.65017" lon="0.1475">
        <ele>93</ele>
        <time>2011-07-14T06:34:21Z</time>
      </trkpt>
      <trkpt lat="45.6498" lon="0.14799">
        <ele>91</ele>
        <time>2011-07-14T06:34:29Z</time>
      </trkpt>
      <trkpt lat="45.64944" lon="0.14915">
        <ele>94</ele>
        <time>2011-07-14T06:34:43Z</time>
      </trkpt>
      <trkpt lat="45.64935" lon="0.14941">
        <ele>96</ele>
        <time>2011-07-14T06:34:50Z</time>
      </trkpt>
      <trkpt lat="45.64926" lon="0.14971">
        <ele>97</ele>
        <time>2011-07-14T06:35:15Z</time>
      </trkpt>
      <trkpt lat="45.64918" lon="0.15027">
        <ele>98</ele>
        <time>2011-07-14T06:35:23Z</time>
      </trkpt>
      <trkpt lat="45.64919" lon="0.15063">
        <ele>99</ele>
        <time>2011-07-14T06:35:28Z</time>
      </trkpt>
      <trkpt lat="45.64913" lon="0.15066">
        <ele>92</ele>
        <time>2011-07-14T06:35:36Z</time>
      </trkpt>
      <trkpt lat="45.64913" lon="0.15066">
        <ele>92</ele>
        <time>2011-07-14T06:35:50Z</time>
      </trkpt>
      <trkpt lat="45.6491" lon="0.15018">
        <ele>91</ele>
        <time>2011-07-14T06:36:01Z</time>
      </trkpt>
      <trkpt lat="45.64911" lon="0.15015">
        <ele>91</ele>
        <time>2011-07-14T06:36:02Z</time>
      </trkpt>
      <trkpt lat="45.649" lon="0.15018">
        <ele>90</ele>
        <time>2011-07-14T06:36:09Z</time>
      </trkpt>
      <trkpt lat="45.64881" lon="0.1507">
        <ele>88</ele>
        <time>2011-07-14T06:36:22Z</time>
      </trkpt>
      <trkpt lat="45.64861" lon="0.1511">
        <ele>90</ele>
        <time>2011-07-14T06:36:28Z</time>
      </trkpt>
      <trkpt lat="45.64859" lon="0.15103">
        <ele>89</ele>
        <time>2011-07-14T06:36:33Z</time>
      </trkpt>
      <trkpt lat="45.64879" lon="0.15042">
        <ele>87</ele>
        <time>2011-07-14T06:36:46Z</time>
      </trkpt>
      <trkpt lat="45.64881" lon="0.15032">
        <ele>87</ele>
        <time>2011-07-14T06:36:48Z</time>
      </trkpt>
      <trkpt lat="45.64889" lon="0.14988">
        <ele>86</ele>
        <time>2011-07-14T06:36:54Z</time>
      </trkpt>
      <trkpt lat="45.64878" lon="0.14966">
        <ele>83</ele>
        <time>2011-07-14T06:37:01Z</time>
      </trkpt>
      <trkpt lat="45.64874" lon="0.14976">
        <ele>83</ele>
        <time>2011-07-14T06:37:03Z</time>
      </trkpt>
      <trkpt lat="45.64854" lon="0.15048">
        <ele>84</ele>
        <time>2011-07-14T06:37:15Z</time>
      </trkpt>
      <trkpt lat="45.64852" lon="0.15049">
        <ele>84</ele>
        <time>2011-07-14T06:37:23Z</time>
      </trkpt>
      <trkpt lat="45.64849" lon="0.15045">
        <ele>84</ele>
        <time>2011-07-14T06:37:29Z</time>
      </trkpt>
      <trkpt lat="45.64851" lon="0.15042">
        <ele>84</ele>
        <time>2011-07-14T06:37:31Z</time>
      </trkpt>
      <trkpt lat="45.64852" lon="0.15037">
        <ele>84</ele>
        <time>2011-07-14T06:37:33Z</time>
      </trkpt>
      <trkpt lat="45.64831" lon="0.15023">
        <ele>71</ele>
        <time>2011-07-14T06:37:41Z</time>
      </trkpt>
      <trkpt lat="45.64797" lon="0.14994">
        <ele>64</ele>
        <time>2011-07-14T06:37:52Z</time>
      </trkpt>
      <trkpt lat="45.64777" lon="0.14964">
        <ele>61</ele>
        <time>2011-07-14T06:38:00Z</time>
      </trkpt>
      <trkpt lat="45.64778" lon="0.14926">
        <ele>60</ele>
        <time>2011-07-14T06:38:09Z</time>
      </trkpt>
      <trkpt lat="45.64795" lon="0.14817">
        <ele>55</ele>
        <time>2011-07-14T06:38:23Z</time>
      </trkpt>
      <trkpt lat="45.64842" lon="0.1469">
        <ele>59</ele>
        <time>2011-07-14T06:38:38Z</time>
      </trkpt>
      <trkpt lat="45.64912" lon="0.14545">
        <ele>50</ele>
        <time>2011-07-14T06:38:56Z</time>
      </trkpt>
      <trkpt lat="45.64975" lon="0.14428">
        <ele>51</ele>
        <time>2011-07-14T06:39:12Z</time>
      </trkpt>
      <trkpt lat="45.64978" lon="0.14425">
        <ele>51</ele>
        <time>2011-07-14T06:39:14Z</time>
      </trkpt>
      <trkpt lat="45.64977" lon="0.14416">
        <ele>48</ele>
        <time>2011-07-14T06:39:18Z</time>
      </trkpt>
      <trkpt lat="45.64983" lon="0.14405">
        <ele>48</ele>
        <time>2011-07-14T06:39:22Z</time>
      </trkpt>
      <trkpt lat="45.65014" lon="0.14391">
        <ele>51</ele>
        <time>2011-07-14T06:39:30Z</time>
      </trkpt>
      <trkpt lat="45.65034" lon="0.14395">
        <ele>52</ele>
        <time>2011-07-14T06:39:35Z</time>
      </trkpt>
      <trkpt lat="45.65066" lon="0.14409">
        <ele>55</ele>
        <time>2011-07-14T06:39:47Z</time>
      </trkpt>
      <trkpt lat="45.65067" lon="0.14409">
        <ele>55</ele>
        <time>2011-07-14T06:39:52Z</time>
      </trkpt>
      <trkpt lat="45.65072" lon="0.14397">
        <ele>55</ele>
        <time>2011-07-14T06:39:57Z</time>
      </trkpt>
      <trkpt lat="45.65078" lon="0.14369">
        <ele>53</ele>
        <time>2011-07-14T06:40:02Z</time>
      </trkpt>
      <trkpt lat="45.65091" lon="0.14317">
        <ele>51</ele>
        <time>2011-07-14T06:40:10Z</time>
      </trkpt>
      <trkpt lat="45.65102" lon="0.14271">
        <ele>49</ele>
        <time>2011-07-14T06:40:18Z</time>
      </trkpt>
      <trkpt lat="45.65104" lon="0.1426">
        <ele>49</ele>
        <time>2011-07-14T06:40:20Z</time>
      </trkpt>
      <trkpt lat="45.65137" lon="0.14169">
        <ele>42</ele>
        <time>2011-07-14T06:40:31Z</time>
      </trkpt>
      <trkpt lat="45.65164" lon="0.14093">
        <ele>36</ele>
        <time>2011-07-14T06:40:38Z</time>
      </trkpt>
      <trkpt lat="45.65171" lon="0.13988">
        <ele>34</ele>
        <time>2011-07-14T06:40:48Z</time>
      </trkpt>
      <trkpt lat="45.65171" lon="0.13956">
        <ele>34</ele>
        <time>2011-07-14T06:40:51Z</time>
      </trkpt>
      <trkpt lat="45.65145" lon="0.13829">
        <ele>38</ele>
        <time>2011-07-14T06:41:04Z</time>
      </trkpt>
      <trkpt lat="45.65137" lon="0.13703">
        <ele>40</ele>
        <time>2011-07-14T06:41:19Z</time>
      </trkpt>
      <trkpt lat="45.65142" lon="0.13653">
        <ele>42</ele>
        <time>2011-07-14T06:41:26Z</time>
      </trkpt>
      <trkpt lat="45.65149" lon="0.13588">
        <ele>44</ele>
        <time>2011-07-14T06:41:36Z</time>
      </trkpt>
      <trkpt lat="45.65152" lon="0.13562">
        <ele>45</ele>
        <time>2011-07-14T06:41:40Z</time>
      </trkpt>
      <trkpt lat="45.65169" lon="0.13435">
        <ele>47</ele>
        <time>2011-07-14T06:41:58Z</time>
      </trkpt>
      <trkpt lat="45.65174" lon="0.13395">
        <ele>49</ele>
        <time>2011-07-14T06:42:04Z</time>
      </trkpt>
      <trkpt lat="45.6518" lon="0.13335">
        <ele>51</ele>
        <time>2011-07-14T06:42:13Z</time>
      </trkpt>
      <trkpt lat="45.65179" lon="0.13274">
        <ele>53</ele>
        <time>2011-07-14T06:42:22Z</time>
      </trkpt>
      <trkpt lat="45.65178" lon="0.13235">
        <ele>55</ele>
        <time>2011-07-14T06:42:28Z</time>
      </trkpt>
      <trkpt lat="45.65171" lon="0.13111">
        <ele>58</ele>
        <time>2011-07-14T06:42:47Z</time>
      </trkpt>
      <trkpt lat="45.65169" lon="0.13085">
        <ele>59</ele>
        <time>2011-07-14T06:42:51Z</time>
      </trkpt>
      <trkpt lat="45.65164" lon="0.12924">
        <ele>63</ele>
        <time>2011-07-14T06:43:15Z</time>
      </trkpt>
      <trkpt lat="45.65157" lon="0.1278">
        <ele>65</ele>
        <time>2011-07-14T06:43:35Z</time>
      </trkpt>
      <trkpt lat="45.65152" lon="0.1262">
        <ele>66</ele>
        <time>2011-07-14T06:43:53Z</time>
      </trkpt>
      <trkpt lat="45.65144" lon="0.12428">
        <ele>67</ele>
        <time>2011-07-14T06:44:14Z</time>
      </trkpt>
      <trkpt lat="45.65134" lon="0.12171">
        <ele>66</ele>
        <time>2011-07-14T06:44:38Z</time>
      </trkpt>
      <trkpt lat="45.65124" lon="0.11957">
        <ele>65</ele>
        <time>2011-07-14T06:44:58Z</time>
      </trkpt>
      <trkpt lat="45.65124" lon="0.11938">
        <ele>64</ele>
        <time>2011-07-14T06:45:00Z</time>
      </trkpt>
      <trkpt lat="45.65114" lon="0.11722">
        <ele>65</ele>
        <time>2011-07-14T06:45:22Z</time>
      </trkpt>
      <trkpt lat="45.65109" lon="0.11573">
        <ele>64</ele>
        <time>2011-07-14T06:45:39Z</time>
      </trkpt>
      <trkpt lat="45.65105" lon="0.11501">
        <ele>64</ele>
        <time>2011-07-14T06:45:48Z</time>
      </trkpt>
      <trkpt lat="45.65097" lon="0.11336">
        <ele>63</ele>
        <time>2011-07-14T06:46:05Z</time>
      </trkpt>
      <trkpt lat="45.65088" lon="0.11106">
        <ele>55</ele>
        <time>2011-07-14T06:46:24Z</time>
      </trkpt>
      <trkpt lat="45.65106" lon="0.11059">
        <ele>52</ele>
        <time>2011-07-14T06:46:29Z</time>
      </trkpt>
      <trkpt lat="45.6521" lon="0.10901">
        <ele>45</ele>
        <time>2011-07-14T06:46:45Z</time>
      </trkpt>
      <trkpt lat="45.65299" lon="0.10762">
        <ele>38</ele>
        <time>2011-07-14T06:46:57Z</time>
      </trkpt>
      <trkpt lat="45.6531" lon="0.10658">
        <ele>30</ele>
        <time>2011-07-14T06:47:04Z</time>
      </trkpt>
      <trkpt lat="45.65279" lon="0.10503">
        <ele>29</ele>
        <time>2011-07-14T06:47:16Z</time>
      </trkpt>
      <trkpt lat="45.65229" lon="0.10298">
        <ele>27</ele>
        <time>2011-07-14T06:47:34Z</time>
      </trkpt>
      <trkpt lat="45.65138" lon="0.10108">
        <ele>27</ele>
        <time>2011-07-14T06:47:53Z</time>
      </trkpt>
      <trkpt lat="45.65072" lon="0.09969">
        <ele>29</ele>
        <time>2011-07-14T06:48:09Z</time>
      </trkpt>
      <trkpt lat="45.65065" lon="0.09952">
        <ele>29</ele>
        <time>2011-07-14T06:48:11Z</time>
      </trkpt>
      <trkpt lat="45.65061" lon="0.09909">
        <ele>29</ele>
        <time>2011-07-14T06:48:16Z</time>
      </trkpt>
      <trkpt lat="45.65063" lon="0.09891">
        <ele>30</ele>
        <time>2011-07-14T06:48:18Z</time>
      </trkpt>
      <trkpt lat="45.65067" lon="0.09875">
        <ele>30</ele>
        <time>2011-07-14T06:48:20Z</time>
      </trkpt>
      <trkpt lat="45.65118" lon="0.09763">
        <ele>33</ele>
        <time>2011-07-14T06:48:36Z</time>
      </trkpt>
      <trkpt lat="45.65121" lon="0.09757">
        <ele>33</ele>
        <time>2011-07-14T06:48:37Z</time>
      </trkpt>
      <trkpt lat="45.65146" lon="0.09715">
        <ele>34</ele>
        <time>2011-07-14T06:48:44Z</time>
      </trkpt>
      <trkpt lat="45.65214" lon="0.09642">
        <ele>37</ele>
        <time>2011-07-14T06:48:59Z</time>
      </trkpt>
      <trkpt lat="45.65277" lon="0.09539">
        <ele>41</ele>
        <time>2011-07-14T06:49:16Z</time>
      </trkpt>
      <trkpt lat="45.65283" lon="0.09526">
        <ele>41</ele>
        <time>2011-07-14T06:49:18Z</time>
      </trkpt>
      <trkpt lat="45.65314" lon="0.09406">
        <ele>47</ele>
        <time>2011-07-14T06:49:37Z</time>
      </trkpt>
      <trkpt lat="45.65342" lon="0.0932">
        <ele>50</ele>
        <time>2011-07-14T06:49:52Z</time>
      </trkpt>
      <trkpt lat="45.65372" lon="0.09243">
        <ele>55</ele>
        <time>2011-07-14T06:50:06Z</time>
      </trkpt>
      <trkpt lat="45.65376" lon="0.09219">
        <ele>55</ele>
        <time>2011-07-14T06:50:10Z</time>
      </trkpt>
      <trkpt lat="45.65386" lon="0.09185">
        <ele>55</ele>
        <time>2011-07-14T06:50:16Z</time>
      </trkpt>
      <trkpt lat="45.65413" lon="0.09112">
        <ele>56</ele>
        <time>2011-07-14T06:50:28Z</time>
      </trkpt>
      <trkpt lat="45.6543" lon="0.09084">
        <ele>56</ele>
        <time>2011-07-14T06:50:33Z</time>
      </trkpt>
      <trkpt lat="45.65496" lon="0.08987">
        <ele>58</ele>
        <time>2011-07-14T06:50:51Z</time>
      </trkpt>
      <trkpt lat="45.65568" lon="0.0885">
        <ele>61</ele>
        <time>2011-07-14T06:51:11Z</time>
      </trkpt>
      <trkpt lat="45.65597" lon="0.08723">
        <ele>63</ele>
        <time>2011-07-14T06:51:26Z</time>
      </trkpt>
      <trkpt lat="45.65598" lon="0.08676">
        <ele>64</ele>
        <time>2011-07-14T06:51:31Z</time>
      </trkpt>
      <trkpt lat="45.65629" lon="0.08559">
        <ele>64</ele>
        <time>2011-07-14T06:51:45Z</time>
      </trkpt>
      <trkpt lat="45.65665" lon="0.08398">
        <ele>60</ele>
        <time>2011-07-14T06:52:01Z</time>
      </trkpt>
      <trkpt lat="45.65722" lon="0.08209">
        <ele>52</ele>
        <time>2011-07-14T06:52:16Z</time>
      </trkpt>
      <trkpt lat="45.65746" lon="0.08058">
        <ele>49</ele>
        <time>2011-07-14T06:52:28Z</time>
      </trkpt>
      <trkpt lat="45.65761" lon="0.08015">
        <ele>50</ele>
        <time>2011-07-14T06:52:33Z</time>
      </trkpt>
      <trkpt lat="45.65755" lon="0.08005">
        <ele>50</ele>
        <time>2011-07-14T06:52:37Z</time>
      </trkpt>
      <trkpt lat="45.65755" lon="0.07933">
        <ele>48</ele>
        <time>2011-07-14T06:52:47Z</time>
      </trkpt>
      <trkpt lat="45.6575" lon="0.07762">
        <ele>43</ele>
        <time>2011-07-14T06:53:03Z</time>
      </trkpt>
      <trkpt lat="45.6576" lon="0.07586">
        <ele>35</ele>
        <time>2011-07-14T06:53:16Z</time>
      </trkpt>
      <trkpt lat="45.65789" lon="0.07479">
        <ele>35</ele>
        <time>2011-07-14T06:53:25Z</time>
      </trkpt>
      <trkpt lat="45.65866" lon="0.07351">
        <ele>36</ele>
        <time>2011-07-14T06:53:40Z</time>
      </trkpt>
      <trkpt lat="45.65901" lon="0.0723">
        <ele>33</ele>
        <time>2011-07-14T06:53:51Z</time>
      </trkpt>
      <trkpt lat="45.65947" lon="0.07093">
        <ele>33</ele>
        <time>2011-07-14T06:54:04Z</time>
      </trkpt>
      <trkpt lat="45.65973" lon="0.07051">
        <ele>33</ele>
        <time>2011-07-14T06:54:09Z</time>
      </trkpt>
      <trkpt lat="45.66003" lon="0.06963">
        <ele>33</ele>
        <time>2011-07-14T06:54:18Z</time>
      </trkpt>
      <trkpt lat="45.66014" lon="0.06935">
        <ele>33</ele>
        <time>2011-07-14T06:54:21Z</time>
      </trkpt>
      <trkpt lat="45.66099" lon="0.06805">
        <ele>36</ele>
        <time>2011-07-14T06:54:39Z</time>
      </trkpt>
      <trkpt lat="45.66172" lon="0.06679">
        <ele>38</ele>
        <time>2011-07-14T06:54:57Z</time>
      </trkpt>
      <trkpt lat="45.66228" lon="0.06544">
        <ele>43</ele>
        <time>2011-07-14T06:55:15Z</time>
      </trkpt>
      <trkpt lat="45.66271" lon="0.06432">
        <ele>47</ele>
        <time>2011-07-14T06:55:33Z</time>
      </trkpt>
      <trkpt lat="45.66282" lon="0.06393">
        <ele>48</ele>
        <time>2011-07-14T06:55:39Z</time>
      </trkpt>
      <trkpt lat="45.66288" lon="0.06304">
        <ele>51</ele>
        <time>2011-07-14T06:55:54Z</time>
      </trkpt>
      <trkpt lat="45.66285" lon="0.06261">
        <ele>52</ele>
        <time>2011-07-14T06:56:01Z</time>
      </trkpt>
      <trkpt lat="45.66272" lon="0.06153">
        <ele>57</ele>
        <time>2011-07-14T06:56:18Z</time>
      </trkpt>
      <trkpt lat="45.66268" lon="0.0611">
        <ele>57</ele>
        <time>2011-07-14T06:56:25Z</time>
      </trkpt>
      <trkpt lat="45.66266" lon="0.06097">
        <ele>58</ele>
        <time>2011-07-14T06:56:27Z</time>
      </trkpt>
      <trkpt lat="45.66259" lon="0.06034">
        <ele>61</ele>
        <time>2011-07-14T06:56:37Z</time>
      </trkpt>
      <trkpt lat="45.66257" lon="0.06015">
        <ele>62</ele>
        <time>2011-07-14T06:56:40Z</time>
      </trkpt>
      <trkpt lat="45.66243" lon="0.05891">
        <ele>69</ele>
        <time>2011-07-14T06:57:00Z</time>
      </trkpt>
      <trkpt lat="45.66238" lon="0.05767">
        <ele>73</ele>
        <time>2011-07-14T06:57:19Z</time>
      </trkpt>
      <trkpt lat="45.66245" lon="0.05618">
        <ele>74</ele>
        <time>2011-07-14T06:57:40Z</time>
      </trkpt>
      <trkpt lat="45.66248" lon="0.05508">
        <ele>77</ele>
        <time>2011-07-14T06:57:53Z</time>
      </trkpt>
      <trkpt lat="45.66253" lon="0.05407">
        <ele>79</ele>
        <time>2011-07-14T06:58:05Z</time>
      </trkpt>
      <trkpt lat="45.66241" lon="0.05222">
        <ele>78</ele>
        <time>2011-07-14T06:58:27Z</time>
      </trkpt>
      <trkpt lat="45.66212" lon="0.0505">
        <ele>79</ele>
        <time>2011-07-14T06:58:46Z</time>
      </trkpt>
      <trkpt lat="45.66186" lon="0.04897">
        <ele>82</ele>
        <time>2011-07-14T06:59:03Z</time>
      </trkpt>
      <trkpt lat="45.66181" lon="0.04835">
        <ele>84</ele>
        <time>2011-07-14T06:59:13Z</time>
      </trkpt>
      <trkpt lat="45.66176" lon="0.04725">
        <ele>90</ele>
        <time>2011-07-14T06:59:32Z</time>
      </trkpt>
      <trkpt lat="45.6617" lon="0.04696">
        <ele>92</ele>
        <time>2011-07-14T06:59:37Z</time>
      </trkpt>
      <trkpt lat="45.66131" lon="0.04608">
        <ele>96</ele>
        <time>2011-07-14T06:59:53Z</time>
      </trkpt>
      <trkpt lat="45.66114" lon="0.0457">
        <ele>98</ele>
        <time>2011-07-14T06:59:59Z</time>
      </trkpt>
      <trkpt lat="45.66082" lon="0.04464">
        <ele>99</ele>
        <time>2011-07-14T07:00:14Z</time>
      </trkpt>
      <trkpt lat="45.66071" lon="0.04433">
        <ele>100</ele>
        <time>2011-07-14T07:00:19Z</time>
      </trkpt>
      <trkpt lat="45.66079" lon="0.044">
        <ele>101</ele>
        <time>2011-07-14T07:00:27Z</time>
      </trkpt>
      <trkpt lat="45.66086" lon="0.04397">
        <ele>102</ele>
        <time>2011-07-14T07:00:29Z</time>
      </trkpt>
      <trkpt lat="45.66114" lon="0.04369">
        <ele>103</ele>
        <time>2011-07-14T07:00:37Z</time>
      </trkpt>
      <trkpt lat="45.66161" lon="0.04328">
        <ele>104</ele>
        <time>2011-07-14T07:00:48Z</time>
      </trkpt>
      <trkpt lat="45.66186" lon="0.04291">
        <ele>103</ele>
        <time>2011-07-14T07:00:55Z</time>
      </trkpt>
      <trkpt lat="45.66217" lon="0.04116">
        <ele>102</ele>
        <time>2011-07-14T07:01:16Z</time>
      </trkpt>
      <trkpt lat="45.66224" lon="0.04088">
        <ele>102</ele>
        <time>2011-07-14T07:01:19Z</time>
      </trkpt>
      <trkpt lat="45.66246" lon="0.04049">
        <ele>101</ele>
        <time>2011-07-14T07:01:24Z</time>
      </trkpt>
      <trkpt lat="45.66346" lon="0.03982">
        <ele>101</ele>
        <time>2011-07-14T07:01:39Z</time>
      </trkpt>
      <trkpt lat="45.66479" lon="0.03899">
        <ele>106</ele>
        <time>2011-07-14T07:01:59Z</time>
      </trkpt>
      <trkpt lat="45.66485" lon="0.03894">
        <ele>106</ele>
        <time>2011-07-14T07:02:00Z</time>
      </trkpt>
      <trkpt lat="45.66537" lon="0.03793">
        <ele>106</ele>
        <time>2011-07-14T07:02:13Z</time>
      </trkpt>
      <trkpt lat="45.66582" lon="0.03667">
        <ele>104</ele>
        <time>2011-07-14T07:02:27Z</time>
      </trkpt>
      <trkpt lat="45.66592" lon="0.03504">
        <ele>106</ele>
        <time>2011-07-14T07:02:44Z</time>
      </trkpt>
      <trkpt lat="45.66594" lon="0.03407">
        <ele>107</ele>
        <time>2011-07-14T07:02:54Z</time>
      </trkpt>
      <trkpt lat="45.66599" lon="0.03378">
        <ele>107</ele>
        <time>2011-07-14T07:02:57Z</time>
      </trkpt>
      <trkpt lat="45.66613" lon="0.03345">
        <ele>107</ele>
        <time>2011-07-14T07:03:01Z</time>
      </trkpt>
      <trkpt lat="45.66708" lon="0.03206">
        <ele>105</ele>
        <time>2011-07-14T07:03:19Z</time>
      </trkpt>
      <trkpt lat="45.6679" lon="0.03057">
        <ele>99</ele>
        <time>2011-07-14T07:03:35Z</time>
      </trkpt>
      <trkpt lat="45.66915" lon="0.02826">
        <ele>94</ele>
        <time>2011-07-14T07:03:56Z</time>
      </trkpt>
      <trkpt lat="45.67026" lon="0.02623">
        <ele>95</ele>
        <time>2011-07-14T07:04:17Z</time>
      </trkpt>
      <trkpt lat="45.67042" lon="0.02588">
        <ele>96</ele>
        <time>2011-07-14T07:04:21Z</time>
      </trkpt>
      <trkpt lat="45.67054" lon="0.02518">
        <ele>96</ele>
        <time>2011-07-14T07:04:28Z</time>
      </trkpt>
      <trkpt lat="45.6704" lon="0.02298">
        <ele>94</ele>
        <time>2011-07-14T07:04:47Z</time>
      </trkpt>
      <trkpt lat="45.67024" lon="0.02047">
        <ele>87</ele>
        <time>2011-07-14T07:05:06Z</time>
      </trkpt>
      <trkpt lat="45.67006" lon="0.0176">
        <ele>82</ele>
        <time>2011-07-14T07:05:26Z</time>
      </trkpt>
      <trkpt lat="45.66993" lon="0.01528">
        <ele>78</ele>
        <time>2011-07-14T07:05:44Z</time>
      </trkpt>
      <trkpt lat="45.66978" lon="0.01308">
        <ele>79</ele>
        <time>2011-07-14T07:06:03Z</time>
      </trkpt>
      <trkpt lat="45.66962" lon="0.01059">
        <ele>79</ele>
        <time>2011-07-14T07:06:25Z</time>
      </trkpt>
      <trkpt lat="45.66955" lon="0.00978">
        <ele>79</ele>
        <time>2011-07-14T07:06:35Z</time>
      </trkpt>
      <trkpt lat="45.66955" lon="0.00972">
        <ele>79</ele>
        <time>2011-07-14T07:06:36Z</time>
      </trkpt>
      <trkpt lat="45.66954" lon="0.00948">
        <ele>79</ele>
        <time>2011-07-14T07:06:39Z</time>
      </trkpt>
      <trkpt lat="45.66945" lon="0.00771">
        <ele>80</ele>
        <time>2011-07-14T07:06:56Z</time>
      </trkpt>
      <trkpt lat="45.66945" lon="0.00561">
        <ele>83</ele>
        <time>2011-07-14T07:07:16Z</time>
      </trkpt>
      <trkpt lat="45.66946" lon="0.00496">
        <ele>84</ele>
        <time>2011-07-14T07:07:23Z</time>
      </trkpt>
      <trkpt lat="45.6695" lon="0.00368">
        <ele>83</ele>
        <time>2011-07-14T07:07:38Z</time>
      </trkpt>
      <trkpt lat="45.66948" lon="0.0035">
        <ele>83</ele>
        <time>2011-07-14T07:07:40Z</time>
      </trkpt>
      <trkpt lat="45.66954" lon="0.00159">
        <ele>78</ele>
        <time>2011-07-14T07:07:58Z</time>
      </trkpt>
      <trkpt lat="45.66978" lon="0.0001">
        <ele>76</ele>
        <time>2011-07-14T07:08:12Z</time>
      </trkpt>
      <trkpt lat="45.6699" lon="-0.00046">
        <ele>76</ele>
        <time>2011-07-14T07:08:19Z</time>
      </trkpt>
      <trkpt lat="45.66984" lon="-0.0004">
        <ele>76</ele>
        <time>2011-07-14T07:08:25Z</time>
      </trkpt>
      <trkpt lat="45.66969" lon="0.00042">
        <ele>76</ele>
        <time>2011-07-14T07:08:38Z</time>
      </trkpt>
      <trkpt lat="45.66966" lon="0.00052">
        <ele>76</ele>
        <time>2011-07-14T07:08:40Z</time>
      </trkpt>
      <trkpt lat="45.66946" lon="0.00033">
        <ele>76</ele>
        <time>2011-07-14T07:08:47Z</time>
      </trkpt>
      <trkpt lat="45.66939" lon="2.0E-5">
        <ele>76</ele>
        <time>2011-07-14T07:08:51Z</time>
      </trkpt>
      <trkpt lat="45.66935" lon="-0.00163">
        <ele>75</ele>
        <time>2011-07-14T07:09:09Z</time>
      </trkpt>
      <trkpt lat="45.66937" lon="-0.00353">
        <ele>73</ele>
        <time>2011-07-14T07:09:27Z</time>
      </trkpt>
      <trkpt lat="45.6694" lon="-0.00614">
        <ele>68</ele>
        <time>2011-07-14T07:09:48Z</time>
      </trkpt>
      <trkpt lat="45.66939" lon="-0.00691">
        <ele>67</ele>
        <time>2011-07-14T07:09:54Z</time>
      </trkpt>
      <trkpt lat="45.66909" lon="-0.00768">
        <ele>64</ele>
        <time>2011-07-14T07:10:01Z</time>
      </trkpt>
      <trkpt lat="45.66886" lon="-0.00793">
        <ele>63</ele>
        <time>2011-07-14T07:10:04Z</time>
      </trkpt>
      <trkpt lat="45.66845" lon="-0.00899">
        <ele>61</ele>
        <time>2011-07-14T07:10:13Z</time>
      </trkpt>
      <trkpt lat="45.66792" lon="-0.01026">
        <ele>58</ele>
        <time>2011-07-14T07:10:24Z</time>
      </trkpt>
      <trkpt lat="45.66708" lon="-0.01185">
        <ele>53</ele>
        <time>2011-07-14T07:10:39Z</time>
      </trkpt>
      <trkpt lat="45.66639" lon="-0.01336">
        <ele>55</ele>
        <time>2011-07-14T07:10:54Z</time>
      </trkpt>
      <trkpt lat="45.66588" lon="-0.0145">
        <ele>57</ele>
        <time>2011-07-14T07:11:09Z</time>
      </trkpt>
      <trkpt lat="45.66525" lon="-0.01526">
        <ele>60</ele>
        <time>2011-07-14T07:11:24Z</time>
      </trkpt>
      <trkpt lat="45.66469" lon="-0.01566">
        <ele>63</ele>
        <time>2011-07-14T07:11:37Z</time>
      </trkpt>
      <trkpt lat="45.6642" lon="-0.01644">
        <ele>67</ele>
        <time>2011-07-14T07:11:54Z</time>
      </trkpt>
      <trkpt lat="45.66415" lon="-0.01653">
        <ele>69</ele>
        <time>2011-07-14T07:11:56Z</time>
      </trkpt>
      <trkpt lat="45.66403" lon="-0.01676">
        <ele>70</ele>
        <time>2011-07-14T07:12:01Z</time>
      </trkpt>
      <trkpt lat="45.66397" lon="-0.01704">
        <ele>71</ele>
        <time>2011-07-14T07:12:06Z</time>
      </trkpt>
      <trkpt lat="45.664" lon="-0.01771">
        <ele>72</ele>
        <time>2011-07-14T07:12:16Z</time>
      </trkpt>
      <trkpt lat="45.66389" lon="-0.01832">
        <ele>73</ele>
        <time>2011-07-14T07:12:25Z</time>
      </trkpt>
      <trkpt lat="45.66347" lon="-0.01902">
        <ele>75</ele>
        <time>2011-07-14T07:12:38Z</time>
      </trkpt>
      <trkpt lat="45.6631" lon="-0.02068">
        <ele>80</ele>
        <time>2011-07-14T07:13:02Z</time>
      </trkpt>
      <trkpt lat="45.66296" lon="-0.02186">
        <ele>85</ele>
        <time>2011-07-14T07:13:20Z</time>
      </trkpt>
      <trkpt lat="45.66293" lon="-0.02212">
        <ele>86</ele>
        <time>2011-07-14T07:13:24Z</time>
      </trkpt>
      <trkpt lat="45.66292" lon="-0.02231">
        <ele>86</ele>
        <time>2011-07-14T07:13:27Z</time>
      </trkpt>
      <trkpt lat="45.66287" lon="-0.02291">
        <ele>88</ele>
        <time>2011-07-14T07:13:37Z</time>
      </trkpt>
      <trkpt lat="45.66285" lon="-0.02314">
        <ele>89</ele>
        <time>2011-07-14T07:13:41Z</time>
      </trkpt>
      <trkpt lat="45.66274" lon="-0.02433">
        <ele>91</ele>
        <time>2011-07-14T07:13:58Z</time>
      </trkpt>
      <trkpt lat="45.66273" lon="-0.02448">
        <ele>91</ele>
        <time>2011-07-14T07:14:00Z</time>
      </trkpt>
      <trkpt lat="45.66266" lon="-0.02494">
        <ele>92</ele>
        <time>2011-07-14T07:14:06Z</time>
      </trkpt>
      <trkpt lat="45.66248" lon="-0.02645">
        <ele>95</ele>
        <time>2011-07-14T07:14:25Z</time>
      </trkpt>
      <trkpt lat="45.66246" lon="-0.02727">
        <ele>96</ele>
        <time>2011-07-14T07:14:35Z</time>
      </trkpt>
      <trkpt lat="45.66235" lon="-0.02807">
        <ele>98</ele>
        <time>2011-07-14T07:14:46Z</time>
      </trkpt>
      <trkpt lat="45.66196" lon="-0.02952">
        <ele>99</ele>
        <time>2011-07-14T07:15:05Z</time>
      </trkpt>
      <trkpt lat="45.66188" lon="-0.02984">
        <ele>99</ele>
        <time>2011-07-14T07:15:09Z</time>
      </trkpt>
      <trkpt lat="45.66168" lon="-0.03038">
        <ele>100</ele>
        <time>2011-07-14T07:15:16Z</time>
      </trkpt>
      <trkpt lat="45.66158" lon="-0.0307">
        <ele>100</ele>
        <time>2011-07-14T07:15:20Z</time>
      </trkpt>
      <trkpt lat="45.66157" lon="-0.03084">
        <ele>101</ele>
        <time>2011-07-14T07:15:22Z</time>
      </trkpt>
      <trkpt lat="45.6616" lon="-0.03126">
        <ele>101</ele>
        <time>2011-07-14T07:15:28Z</time>
      </trkpt>
      <trkpt lat="45.6616" lon="-0.03142">
        <ele>101</ele>
        <time>2011-07-14T07:15:31Z</time>
      </trkpt>
      <trkpt lat="45.66163" lon="-0.03152">
        <ele>101</ele>
        <time>2011-07-14T07:15:44Z</time>
      </trkpt>
      <trkpt lat="45.66162" lon="-0.03152">
        <ele>101</ele>
        <time>2011-07-14T07:20:56Z</time>
      </trkpt>
      <trkpt lat="45.66162" lon="-0.03152">
        <ele>101</ele>
        <time>2011-07-14T07:20:59Z</time>
      </trkpt>
      <trkpt lat="45.66158" lon="-0.03157">
        <ele>101</ele>
        <time>2011-07-14T07:21:03Z</time>
      </trkpt>
      <trkpt lat="45.66122" lon="-0.032">
        <ele>101</ele>
        <time>2011-07-14T07:21:16Z</time>
      </trkpt>
      <trkpt lat="45.66071" lon="-0.03256">
        <ele>101</ele>
        <time>2011-07-14T07:21:28Z</time>
      </trkpt>
      <trkpt lat="45.6606" lon="-0.03279">
        <ele>100</ele>
        <time>2011-07-14T07:21:31Z</time>
      </trkpt>
      <trkpt lat="45.66047" lon="-0.03333">
        <ele>100</ele>
        <time>2011-07-14T07:21:37Z</time>
      </trkpt>
      <trkpt lat="45.66061" lon="-0.03472">
        <ele>98</ele>
        <time>2011-07-14T07:21:51Z</time>
      </trkpt>
      <trkpt lat="45.66114" lon="-0.03645">
        <ele>94</ele>
        <time>2011-07-14T07:22:07Z</time>
      </trkpt>
      <trkpt lat="45.66131" lon="-0.03739">
        <ele>92</ele>
        <time>2011-07-14T07:22:16Z</time>
      </trkpt>
      <trkpt lat="45.66133" lon="-0.03781">
        <ele>91</ele>
        <time>2011-07-14T07:22:25Z</time>
      </trkpt>
      <trkpt lat="45.66149" lon="-0.03855">
        <ele>88</ele>
        <time>2011-07-14T07:22:40Z</time>
      </trkpt>
      <trkpt lat="45.66152" lon="-0.03868">
        <ele>87</ele>
        <time>2011-07-14T07:22:42Z</time>
      </trkpt>
      <trkpt lat="45.66172" lon="-0.03888">
        <ele>87</ele>
        <time>2011-07-14T07:22:48Z</time>
      </trkpt>
      <trkpt lat="45.66192" lon="-0.03918">
        <ele>82</ele>
        <time>2011-07-14T07:22:54Z</time>
      </trkpt>
      <trkpt lat="45.66207" lon="-0.04037">
        <ele>74</ele>
        <time>2011-07-14T07:23:04Z</time>
      </trkpt>
      <trkpt lat="45.66223" lon="-0.0408">
        <ele>73</ele>
        <time>2011-07-14T07:23:08Z</time>
      </trkpt>
      <trkpt lat="45.66242" lon="-0.04106">
        <ele>69</ele>
        <time>2011-07-14T07:23:11Z</time>
      </trkpt>
      <trkpt lat="45.66271" lon="-0.04126">
        <ele>67</ele>
        <time>2011-07-14T07:23:15Z</time>
      </trkpt>
      <trkpt lat="45.66294" lon="-0.04138">
        <ele>67</ele>
        <time>2011-07-14T07:23:18Z</time>
      </trkpt>
      <trkpt lat="45.66307" lon="-0.04166">
        <ele>67</ele>
        <time>2011-07-14T07:23:22Z</time>
      </trkpt>
      <trkpt lat="45.66333" lon="-0.04342">
        <ele>59</ele>
        <time>2011-07-14T07:23:36Z</time>
      </trkpt>
      <trkpt lat="45.66359" lon="-0.04499">
        <ele>56</ele>
        <time>2011-07-14T07:23:48Z</time>
      </trkpt>
      <trkpt lat="45.66387" lon="-0.04617">
        <ele>53</ele>
        <time>2011-07-14T07:23:58Z</time>
      </trkpt>
      <trkpt lat="45.66385" lon="-0.04691">
        <ele>52</ele>
        <time>2011-07-14T07:24:04Z</time>
      </trkpt>
      <trkpt lat="45.66387" lon="-0.04717">
        <ele>51</ele>
        <time>2011-07-14T07:24:08Z</time>
      </trkpt>
      <trkpt lat="45.66397" lon="-0.04738">
        <ele>51</ele>
        <time>2011-07-14T07:24:13Z</time>
      </trkpt>
      <trkpt lat="45.66459" lon="-0.04787">
        <ele>49</ele>
        <time>2011-07-14T07:24:24Z</time>
      </trkpt>
      <trkpt lat="45.66485" lon="-0.04826">
        <ele>48</ele>
        <time>2011-07-14T07:24:29Z</time>
      </trkpt>
      <trkpt lat="45.66529" lon="-0.04967">
        <ele>43</ele>
        <time>2011-07-14T07:24:41Z</time>
      </trkpt>
      <trkpt lat="45.66564" lon="-0.05151">
        <ele>41</ele>
        <time>2011-07-14T07:24:56Z</time>
      </trkpt>
      <trkpt lat="45.66564" lon="-0.05224">
        <ele>42</ele>
        <time>2011-07-14T07:25:02Z</time>
      </trkpt>
      <trkpt lat="45.66591" lon="-0.05357">
        <ele>39</ele>
        <time>2011-07-14T07:25:14Z</time>
      </trkpt>
      <trkpt lat="45.66595" lon="-0.05374">
        <ele>39</ele>
        <time>2011-07-14T07:25:16Z</time>
      </trkpt>
      <trkpt lat="45.66582" lon="-0.05407">
        <ele>39</ele>
        <time>2011-07-14T07:25:23Z</time>
      </trkpt>
      <trkpt lat="45.6659" lon="-0.05421">
        <ele>39</ele>
        <time>2011-07-14T07:25:29Z</time>
      </trkpt>
      <trkpt lat="45.66605" lon="-0.05441">
        <ele>38</ele>
        <time>2011-07-14T07:25:35Z</time>
      </trkpt>
      <trkpt lat="45.66598" lon="-0.05466">
        <ele>39</ele>
        <time>2011-07-14T07:25:40Z</time>
      </trkpt>
      <trkpt lat="45.66591" lon="-0.05474">
        <ele>39</ele>
        <time>2011-07-14T07:25:42Z</time>
      </trkpt>
      <trkpt lat="45.66592" lon="-0.05487">
        <ele>39</ele>
        <time>2011-07-14T07:25:46Z</time>
      </trkpt>
      <trkpt lat="45.66598" lon="-0.05503">
        <ele>39</ele>
        <time>2011-07-14T07:25:51Z</time>
      </trkpt>
      <trkpt lat="45.66607" lon="-0.05567">
        <ele>37</ele>
        <time>2011-07-14T07:26:03Z</time>
      </trkpt>
      <trkpt lat="45.66608" lon="-0.0557">
        <ele>37</ele>
        <time>2011-07-14T07:26:04Z</time>
      </trkpt>
      <trkpt lat="45.66621" lon="-0.05604">
        <ele>36</ele>
        <time>2011-07-14T07:26:12Z</time>
      </trkpt>
      <trkpt lat="45.66645" lon="-0.05667">
        <ele>35</ele>
        <time>2011-07-14T07:26:23Z</time>
      </trkpt>
      <trkpt lat="45.66667" lon="-0.05717">
        <ele>35</ele>
        <time>2011-07-14T07:26:32Z</time>
      </trkpt>
      <trkpt lat="45.66679" lon="-0.05751">
        <ele>35</ele>
        <time>2011-07-14T07:26:38Z</time>
      </trkpt>
      <trkpt lat="45.66676" lon="-0.05776">
        <ele>34</ele>
        <time>2011-07-14T07:26:43Z</time>
      </trkpt>
      <trkpt lat="45.66686" lon="-0.05807">
        <ele>34</ele>
        <time>2011-07-14T07:26:55Z</time>
      </trkpt>
      <trkpt lat="45.66697" lon="-0.05836">
        <ele>33</ele>
        <time>2011-07-14T07:27:10Z</time>
      </trkpt>
      <trkpt lat="45.66738" lon="-0.05933">
        <ele>32</ele>
        <time>2011-07-14T07:27:26Z</time>
      </trkpt>
      <trkpt lat="45.66756" lon="-0.05978">
        <ele>31</ele>
        <time>2011-07-14T07:27:32Z</time>
      </trkpt>
      <trkpt lat="45.66762" lon="-0.06021">
        <ele>31</ele>
        <time>2011-07-14T07:27:37Z</time>
      </trkpt>
      <trkpt lat="45.6674" lon="-0.06158">
        <ele>32</ele>
        <time>2011-07-14T07:27:53Z</time>
      </trkpt>
      <trkpt lat="45.66723" lon="-0.06334">
        <ele>34</ele>
        <time>2011-07-14T07:28:13Z</time>
      </trkpt>
      <trkpt lat="45.66748" lon="-0.06477">
        <ele>34</ele>
        <time>2011-07-14T07:28:29Z</time>
      </trkpt>
      <trkpt lat="45.66772" lon="-0.06585">
        <ele>32</ele>
        <time>2011-07-14T07:28:41Z</time>
      </trkpt>
      <trkpt lat="45.6682" lon="-0.06754">
        <ele>29</ele>
        <time>2011-07-14T07:29:00Z</time>
      </trkpt>
      <trkpt lat="45.66877" lon="-0.06898">
        <ele>28</ele>
        <time>2011-07-14T07:29:19Z</time>
      </trkpt>
      <trkpt lat="45.66919" lon="-0.07044">
        <ele>26</ele>
        <time>2011-07-14T07:29:37Z</time>
      </trkpt>
      <trkpt lat="45.66964" lon="-0.07194">
        <ele>26</ele>
        <time>2011-07-14T07:29:58Z</time>
      </trkpt>
      <trkpt lat="45.66981" lon="-0.07325">
        <ele>28</ele>
        <time>2011-07-14T07:30:15Z</time>
      </trkpt>
      <trkpt lat="45.6699" lon="-0.0744">
        <ele>27</ele>
        <time>2011-07-14T07:30:28Z</time>
      </trkpt>
      <trkpt lat="45.66984" lon="-0.07491">
        <ele>26</ele>
        <time>2011-07-14T07:30:33Z</time>
      </trkpt>
      <trkpt lat="45.66964" lon="-0.07561">
        <ele>26</ele>
        <time>2011-07-14T07:30:40Z</time>
      </trkpt>
      <trkpt lat="45.66932" lon="-0.07656">
        <ele>28</ele>
        <time>2011-07-14T07:30:53Z</time>
      </trkpt>
      <trkpt lat="45.66931" lon="-0.07662">
        <ele>29</ele>
        <time>2011-07-14T07:30:54Z</time>
      </trkpt>
      <trkpt lat="45.66936" lon="-0.07743">
        <ele>29</ele>
        <time>2011-07-14T07:31:06Z</time>
      </trkpt>
      <trkpt lat="45.66978" lon="-0.0783">
        <ele>29</ele>
        <time>2011-07-14T07:31:20Z</time>
      </trkpt>
      <trkpt lat="45.66995" lon="-0.07849">
        <ele>29</ele>
        <time>2011-07-14T07:31:24Z</time>
      </trkpt>
      <trkpt lat="45.67078" lon="-0.07967">
        <ele>27</ele>
        <time>2011-07-14T07:31:44Z</time>
      </trkpt>
      <trkpt lat="45.67087" lon="-0.07981">
        <ele>27</ele>
        <time>2011-07-14T07:31:46Z</time>
      </trkpt>
      <trkpt lat="45.67109" lon="-0.08009">
        <ele>25</ele>
        <time>2011-07-14T07:31:50Z</time>
      </trkpt>
      <trkpt lat="45.6713" lon="-0.08051">
        <ele>25</ele>
        <time>2011-07-14T07:31:55Z</time>
      </trkpt>
      <trkpt lat="45.67139" lon="-0.08087">
        <ele>26</ele>
        <time>2011-07-14T07:31:59Z</time>
      </trkpt>
      <trkpt lat="45.67145" lon="-0.08173">
        <ele>30</ele>
        <time>2011-07-14T07:32:09Z</time>
      </trkpt>
      <trkpt lat="45.67147" lon="-0.08199">
        <ele>31</ele>
        <time>2011-07-14T07:32:13Z</time>
      </trkpt>
      <trkpt lat="45.67154" lon="-0.08283">
        <ele>34</ele>
        <time>2011-07-14T07:32:28Z</time>
      </trkpt>
      <trkpt lat="45.67164" lon="-0.08344">
        <ele>35</ele>
        <time>2011-07-14T07:32:38Z</time>
      </trkpt>
      <trkpt lat="45.67182" lon="-0.08484">
        <ele>38</ele>
        <time>2011-07-14T07:32:57Z</time>
      </trkpt>
      <trkpt lat="45.67201" lon="-0.08585">
        <ele>39</ele>
        <time>2011-07-14T07:33:12Z</time>
      </trkpt>
      <trkpt lat="45.67205" lon="-0.08635">
        <ele>39</ele>
        <time>2011-07-14T07:33:19Z</time>
      </trkpt>
      <trkpt lat="45.6721" lon="-0.08667">
        <ele>39</ele>
        <time>2011-07-14T07:33:23Z</time>
      </trkpt>
      <trkpt lat="45.67242" lon="-0.08814">
        <ele>38</ele>
        <time>2011-07-14T07:33:39Z</time>
      </trkpt>
      <trkpt lat="45.67293" lon="-0.09008">
        <ele>36</ele>
        <time>2011-07-14T07:33:57Z</time>
      </trkpt>
      <trkpt lat="45.67341" lon="-0.09262">
        <ele>33</ele>
        <time>2011-07-14T07:34:19Z</time>
      </trkpt>
      <trkpt lat="45.67365" lon="-0.09483">
        <ele>27</ele>
        <time>2011-07-14T07:34:36Z</time>
      </trkpt>
      <trkpt lat="45.67369" lon="-0.0975">
        <ele>25</ele>
        <time>2011-07-14T07:34:57Z</time>
      </trkpt>
      <trkpt lat="45.67387" lon="-0.09959">
        <ele>25</ele>
        <time>2011-07-14T07:35:14Z</time>
      </trkpt>
      <trkpt lat="45.67375" lon="-0.10081">
        <ele>25</ele>
        <time>2011-07-14T07:35:27Z</time>
      </trkpt>
      <trkpt lat="45.67375" lon="-0.10114">
        <ele>24</ele>
        <time>2011-07-14T07:35:31Z</time>
      </trkpt>
      <trkpt lat="45.67388" lon="-0.10267">
        <ele>24</ele>
        <time>2011-07-14T07:35:48Z</time>
      </trkpt>
      <trkpt lat="45.67404" lon="-0.10463">
        <ele>22</ele>
        <time>2011-07-14T07:36:06Z</time>
      </trkpt>
      <trkpt lat="45.67444" lon="-0.10655">
        <ele>23</ele>
        <time>2011-07-14T07:36:23Z</time>
      </trkpt>
      <trkpt lat="45.67493" lon="-0.10776">
        <ele>21</ele>
        <time>2011-07-14T07:36:35Z</time>
      </trkpt>
      <trkpt lat="45.67522" lon="-0.10892">
        <ele>22</ele>
        <time>2011-07-14T07:36:46Z</time>
      </trkpt>
      <trkpt lat="45.67562" lon="-0.11058">
        <ele>23</ele>
        <time>2011-07-14T07:37:01Z</time>
      </trkpt>
      <trkpt lat="45.6763" lon="-0.11209">
        <ele>26</ele>
        <time>2011-07-14T07:37:19Z</time>
      </trkpt>
      <trkpt lat="45.67701" lon="-0.11369">
        <ele>26</ele>
        <time>2011-07-14T07:37:38Z</time>
      </trkpt>
      <trkpt lat="45.67743" lon="-0.11473">
        <ele>25</ele>
        <time>2011-07-14T07:37:51Z</time>
      </trkpt>
      <trkpt lat="45.6775" lon="-0.11478">
        <ele>23</ele>
        <time>2011-07-14T07:37:53Z</time>
      </trkpt>
      <trkpt lat="45.67765" lon="-0.11484">
        <ele>23</ele>
        <time>2011-07-14T07:37:56Z</time>
      </trkpt>
      <trkpt lat="45.67785" lon="-0.11519">
        <ele>22</ele>
        <time>2011-07-14T07:38:01Z</time>
      </trkpt>
      <trkpt lat="45.67795" lon="-0.11558">
        <ele>21</ele>
        <time>2011-07-14T07:38:05Z</time>
      </trkpt>
      <trkpt lat="45.67788" lon="-0.116">
        <ele>20</ele>
        <time>2011-07-14T07:38:10Z</time>
      </trkpt>
      <trkpt lat="45.67766" lon="-0.11639">
        <ele>20</ele>
        <time>2011-07-14T07:38:16Z</time>
      </trkpt>
      <trkpt lat="45.67772" lon="-0.11661">
        <ele>19</ele>
        <time>2011-07-14T07:38:21Z</time>
      </trkpt>
      <trkpt lat="45.67849" lon="-0.1174">
        <ele>17</ele>
        <time>2011-07-14T07:38:36Z</time>
      </trkpt>
      <trkpt lat="45.67883" lon="-0.11782">
        <ele>18</ele>
        <time>2011-07-14T07:38:43Z</time>
      </trkpt>
      <trkpt lat="45.67933" lon="-0.11906">
        <ele>18</ele>
        <time>2011-07-14T07:38:59Z</time>
      </trkpt>
      <trkpt lat="45.67984" lon="-0.12068">
        <ele>19</ele>
        <time>2011-07-14T07:39:15Z</time>
      </trkpt>
      <trkpt lat="45.68041" lon="-0.12251">
        <ele>19</ele>
        <time>2011-07-14T07:39:34Z</time>
      </trkpt>
      <trkpt lat="45.68098" lon="-0.12431">
        <ele>19</ele>
        <time>2011-07-14T07:39:54Z</time>
      </trkpt>
      <trkpt lat="45.68146" lon="-0.12605">
        <ele>16</ele>
        <time>2011-07-14T07:40:10Z</time>
      </trkpt>
      <trkpt lat="45.6822" lon="-0.12824">
        <ele>17</ele>
        <time>2011-07-14T07:40:30Z</time>
      </trkpt>
      <trkpt lat="45.68279" lon="-0.13003">
        <ele>19</ele>
        <time>2011-07-14T07:40:48Z</time>
      </trkpt>
      <trkpt lat="45.6829" lon="-0.13188">
        <ele>20</ele>
        <time>2011-07-14T07:41:06Z</time>
      </trkpt>
      <trkpt lat="45.6831" lon="-0.1345">
        <ele>16</ele>
        <time>2011-07-14T07:41:29Z</time>
      </trkpt>
      <trkpt lat="45.6833" lon="-0.13697">
        <ele>16</ele>
        <time>2011-07-14T07:41:51Z</time>
      </trkpt>
      <trkpt lat="45.68334" lon="-0.1375">
        <ele>16</ele>
        <time>2011-07-14T07:41:57Z</time>
      </trkpt>
      <trkpt lat="45.68327" lon="-0.13893">
        <ele>16</ele>
        <time>2011-07-14T07:42:13Z</time>
      </trkpt>
      <trkpt lat="45.68349" lon="-0.1402">
        <ele>16</ele>
        <time>2011-07-14T07:42:29Z</time>
      </trkpt>
      <trkpt lat="45.68401" lon="-0.14162">
        <ele>15</ele>
        <time>2011-07-14T07:42:46Z</time>
      </trkpt>
      <trkpt lat="45.68444" lon="-0.14317">
        <ele>15</ele>
        <time>2011-07-14T07:42:59Z</time>
      </trkpt>
      <trkpt lat="45.68465" lon="-0.14548">
        <ele>14</ele>
        <time>2011-07-14T07:43:19Z</time>
      </trkpt>
      <trkpt lat="45.68468" lon="-0.14582">
        <ele>14</ele>
        <time>2011-07-14T07:43:22Z</time>
      </trkpt>
      <trkpt lat="45.68484" lon="-0.14689">
        <ele>16</ele>
        <time>2011-07-14T07:43:32Z</time>
      </trkpt>
      <trkpt lat="45.68552" lon="-0.14842">
        <ele>18</ele>
        <time>2011-07-14T07:43:50Z</time>
      </trkpt>
      <trkpt lat="45.68621" lon="-0.14985">
        <ele>19</ele>
        <time>2011-07-14T07:44:07Z</time>
      </trkpt>
      <trkpt lat="45.6869" lon="-0.15135">
        <ele>17</ele>
        <time>2011-07-14T07:44:25Z</time>
      </trkpt>
      <trkpt lat="45.68698" lon="-0.15154">
        <ele>17</ele>
        <time>2011-07-14T07:44:32Z</time>
      </trkpt>
      <trkpt lat="45.6869" lon="-0.15176">
        <ele>17</ele>
        <time>2011-07-14T07:44:44Z</time>
      </trkpt>
      <trkpt lat="45.68687" lon="-0.15179">
        <ele>17</ele>
        <time>2011-07-14T07:44:45Z</time>
      </trkpt>
      <trkpt lat="45.68605" lon="-0.15231">
        <ele>17</ele>
        <time>2011-07-14T07:45:00Z</time>
      </trkpt>
      <trkpt lat="45.68479" lon="-0.15306">
        <ele>17</ele>
        <time>2011-07-14T07:45:19Z</time>
      </trkpt>
      <trkpt lat="45.68455" lon="-0.15323">
        <ele>17</ele>
        <time>2011-07-14T07:45:23Z</time>
      </trkpt>
      <trkpt lat="45.68448" lon="-0.15373">
        <ele>17</ele>
        <time>2011-07-14T07:45:30Z</time>
      </trkpt>
      <trkpt lat="45.68489" lon="-0.15527">
        <ele>17</ele>
        <time>2011-07-14T07:45:46Z</time>
      </trkpt>
      <trkpt lat="45.68505" lon="-0.15712">
        <ele>16</ele>
        <time>2011-07-14T07:46:04Z</time>
      </trkpt>
      <trkpt lat="45.68522" lon="-0.1591">
        <ele>18</ele>
        <time>2011-07-14T07:46:24Z</time>
      </trkpt>
      <trkpt lat="45.6854" lon="-0.1611">
        <ele>20</ele>
        <time>2011-07-14T07:46:45Z</time>
      </trkpt>
      <trkpt lat="45.68555" lon="-0.16307">
        <ele>21</ele>
        <time>2011-07-14T07:47:06Z</time>
      </trkpt>
      <trkpt lat="45.68576" lon="-0.16558">
        <ele>22</ele>
        <time>2011-07-14T07:47:32Z</time>
      </trkpt>
      <trkpt lat="45.68592" lon="-0.16741">
        <ele>22</ele>
        <time>2011-07-14T07:47:49Z</time>
      </trkpt>
      <trkpt lat="45.68603" lon="-0.16928">
        <ele>21</ele>
        <time>2011-07-14T07:48:06Z</time>
      </trkpt>
      <trkpt lat="45.68571" lon="-0.17051">
        <ele>20</ele>
        <time>2011-07-14T07:48:18Z</time>
      </trkpt>
      <trkpt lat="45.68568" lon="-0.17061">
        <ele>20</ele>
        <time>2011-07-14T07:48:19Z</time>
      </trkpt>
      <trkpt lat="45.68549" lon="-0.17215">
        <ele>21</ele>
        <time>2011-07-14T07:48:34Z</time>
      </trkpt>
      <trkpt lat="45.68534" lon="-0.17307">
        <ele>20</ele>
        <time>2011-07-14T07:48:45Z</time>
      </trkpt>
      <trkpt lat="45.68526" lon="-0.17341">
        <ele>20</ele>
        <time>2011-07-14T07:49:10Z</time>
      </trkpt>
      <trkpt lat="45.685" lon="-0.17471">
        <ele>20</ele>
        <time>2011-07-14T07:49:25Z</time>
      </trkpt>
      <trkpt lat="45.68493" lon="-0.17509">
        <ele>19</ele>
        <time>2011-07-14T07:49:29Z</time>
      </trkpt>
      <trkpt lat="45.6843" lon="-0.1765">
        <ele>18</ele>
        <time>2011-07-14T07:49:45Z</time>
      </trkpt>
      <trkpt lat="45.68426" lon="-0.17658">
        <ele>18</ele>
        <time>2011-07-14T07:49:46Z</time>
      </trkpt>
      <trkpt lat="45.68406" lon="-0.17687">
        <ele>19</ele>
        <time>2011-07-14T07:49:50Z</time>
      </trkpt>
      <trkpt lat="45.6832" lon="-0.17747">
        <ele>18</ele>
        <time>2011-07-14T07:50:04Z</time>
      </trkpt>
      <trkpt lat="45.68274" lon="-0.17755">
        <ele>18</ele>
        <time>2011-07-14T07:50:12Z</time>
      </trkpt>
      <trkpt lat="45.68267" lon="-0.17773">
        <ele>18</ele>
        <time>2011-07-14T07:50:16Z</time>
      </trkpt>
      <trkpt lat="45.68267" lon="-0.1789">
        <ele>17</ele>
        <time>2011-07-14T07:50:29Z</time>
      </trkpt>
      <trkpt lat="45.6827" lon="-0.17955">
        <ele>17</ele>
        <time>2011-07-14T07:50:35Z</time>
      </trkpt>
      <trkpt lat="45.68259" lon="-0.1804">
        <ele>16</ele>
        <time>2011-07-14T07:50:43Z</time>
      </trkpt>
      <trkpt lat="45.68262" lon="-0.18109">
        <ele>15</ele>
        <time>2011-07-14T07:50:50Z</time>
      </trkpt>
      <trkpt lat="45.68259" lon="-0.18141">
        <ele>15</ele>
        <time>2011-07-14T07:50:58Z</time>
      </trkpt>
      <trkpt lat="45.68264" lon="-0.18172">
        <ele>15</ele>
        <time>2011-07-14T07:51:09Z</time>
      </trkpt>
      <trkpt lat="45.68282" lon="-0.18288">
        <ele>16</ele>
        <time>2011-07-14T07:51:24Z</time>
      </trkpt>
      <trkpt lat="45.68309" lon="-0.18424">
        <ele>16</ele>
        <time>2011-07-14T07:51:39Z</time>
      </trkpt>
      <trkpt lat="45.68348" lon="-0.18607">
        <ele>15</ele>
        <time>2011-07-14T07:51:59Z</time>
      </trkpt>
      <trkpt lat="45.68375" lon="-0.18798">
        <ele>15</ele>
        <time>2011-07-14T07:52:19Z</time>
      </trkpt>
      <trkpt lat="45.68387" lon="-0.18922">
        <ele>14</ele>
        <time>2011-07-14T07:52:33Z</time>
      </trkpt>
      <trkpt lat="45.6841" lon="-0.19116">
        <ele>13</ele>
        <time>2011-07-14T07:52:52Z</time>
      </trkpt>
      <trkpt lat="45.68406" lon="-0.19292">
        <ele>13</ele>
        <time>2011-07-14T07:53:08Z</time>
      </trkpt>
      <trkpt lat="45.68422" lon="-0.19415">
        <ele>12</ele>
        <time>2011-07-14T07:53:20Z</time>
      </trkpt>
      <trkpt lat="45.68454" lon="-0.19595">
        <ele>17</ele>
        <time>2011-07-14T07:53:40Z</time>
      </trkpt>
      <trkpt lat="45.68461" lon="-0.19648">
        <ele>19</ele>
        <time>2011-07-14T07:53:47Z</time>
      </trkpt>
      <trkpt lat="45.68474" lon="-0.19742">
        <ele>25</ele>
        <time>2011-07-14T07:54:02Z</time>
      </trkpt>
      <trkpt lat="45.68483" lon="-0.19838">
        <ele>29</ele>
        <time>2011-07-14T07:54:17Z</time>
      </trkpt>
      <trkpt lat="45.68489" lon="-0.19942">
        <ele>29</ele>
        <time>2011-07-14T07:54:33Z</time>
      </trkpt>
      <trkpt lat="45.68497" lon="-0.20072">
        <ele>29</ele>
        <time>2011-07-14T07:54:50Z</time>
      </trkpt>
      <trkpt lat="45.68532" lon="-0.20232">
        <ele>30</ele>
        <time>2011-07-14T07:55:08Z</time>
      </trkpt>
      <trkpt lat="45.68572" lon="-0.20438">
        <ele>26</ele>
        <time>2011-07-14T07:55:29Z</time>
      </trkpt>
      <trkpt lat="45.68557" lon="-0.20564">
        <ele>24</ele>
        <time>2011-07-14T07:55:41Z</time>
      </trkpt>
      <trkpt lat="45.68547" lon="-0.20789">
        <ele>20</ele>
        <time>2011-07-14T07:56:00Z</time>
      </trkpt>
      <trkpt lat="45.68562" lon="-0.20909">
        <ele>19</ele>
        <time>2011-07-14T07:56:10Z</time>
      </trkpt>
      <trkpt lat="45.68543" lon="-0.21071">
        <ele>16</ele>
        <time>2011-07-14T07:56:23Z</time>
      </trkpt>
      <trkpt lat="45.68499" lon="-0.21299">
        <ele>13</ele>
        <time>2011-07-14T07:56:42Z</time>
      </trkpt>
      <trkpt lat="45.68466" lon="-0.21531">
        <ele>11</ele>
        <time>2011-07-14T07:57:02Z</time>
      </trkpt>
      <trkpt lat="45.68475" lon="-0.21735">
        <ele>14</ele>
        <time>2011-07-14T07:57:21Z</time>
      </trkpt>
      <trkpt lat="45.68492" lon="-0.21939">
        <ele>13</ele>
        <time>2011-07-14T07:57:40Z</time>
      </trkpt>
      <trkpt lat="45.68495" lon="-0.21979">
        <ele>14</ele>
        <time>2011-07-14T07:57:44Z</time>
      </trkpt>
      <trkpt lat="45.68491" lon="-0.22028">
        <ele>15</ele>
        <time>2011-07-14T07:57:50Z</time>
      </trkpt>
      <trkpt lat="45.6847" lon="-0.2213">
        <ele>18</ele>
        <time>2011-07-14T07:58:07Z</time>
      </trkpt>
      <trkpt lat="45.68463" lon="-0.22206">
        <ele>22</ele>
        <time>2011-07-14T07:58:20Z</time>
      </trkpt>
      <trkpt lat="45.68451" lon="-0.22326">
        <ele>25</ele>
        <time>2011-07-14T07:58:41Z</time>
      </trkpt>
      <trkpt lat="45.6845" lon="-0.22338">
        <ele>26</ele>
        <time>2011-07-14T07:58:43Z</time>
      </trkpt>
      <trkpt lat="45.68434" lon="-0.22465">
        <ele>27</ele>
        <time>2011-07-14T07:59:04Z</time>
      </trkpt>
      <trkpt lat="45.68429" lon="-0.22519">
        <ele>28</ele>
        <time>2011-07-14T07:59:11Z</time>
      </trkpt>
      <trkpt lat="45.6843" lon="-0.2266">
        <ele>26</ele>
        <time>2011-07-14T07:59:25Z</time>
      </trkpt>
      <trkpt lat="45.68454" lon="-0.22839">
        <ele>27</ele>
        <time>2011-07-14T07:59:42Z</time>
      </trkpt>
      <trkpt lat="45.68477" lon="-0.22988">
        <ele>25</ele>
        <time>2011-07-14T07:59:55Z</time>
      </trkpt>
      <trkpt lat="45.68479" lon="-0.23136">
        <ele>28</ele>
        <time>2011-07-14T08:00:10Z</time>
      </trkpt>
      <trkpt lat="45.68482" lon="-0.23274">
        <ele>32</ele>
        <time>2011-07-14T08:00:27Z</time>
      </trkpt>
      <trkpt lat="45.68505" lon="-0.23387">
        <ele>35</ele>
        <time>2011-07-14T08:00:42Z</time>
      </trkpt>
      <trkpt lat="45.68511" lon="-0.23475">
        <ele>39</ele>
        <time>2011-07-14T08:00:54Z</time>
      </trkpt>
      <trkpt lat="45.68518" lon="-0.23543">
        <ele>40</ele>
        <time>2011-07-14T08:01:03Z</time>
      </trkpt>
      <trkpt lat="45.68522" lon="-0.23575">
        <ele>41</ele>
        <time>2011-07-14T08:01:07Z</time>
      </trkpt>
      <trkpt lat="45.68522" lon="-0.23609">
        <ele>40</ele>
        <time>2011-07-14T08:01:11Z</time>
      </trkpt>
      <trkpt lat="45.68494" lon="-0.23738">
        <ele>44</ele>
        <time>2011-07-14T08:01:26Z</time>
      </trkpt>
      <trkpt lat="45.68466" lon="-0.23837">
        <ele>42</ele>
        <time>2011-07-14T08:01:40Z</time>
      </trkpt>
      <trkpt lat="45.68457" lon="-0.23903">
        <ele>43</ele>
        <time>2011-07-14T08:01:53Z</time>
      </trkpt>
      <trkpt lat="45.68451" lon="-0.23978">
        <ele>43</ele>
        <time>2011-07-14T08:02:07Z</time>
      </trkpt>
      <trkpt lat="45.68458" lon="-0.24072">
        <ele>43</ele>
        <time>2011-07-14T08:02:23Z</time>
      </trkpt>
      <trkpt lat="45.68483" lon="-0.24168">
        <ele>45</ele>
        <time>2011-07-14T08:02:39Z</time>
      </trkpt>
      <trkpt lat="45.68531" lon="-0.24335">
        <ele>44</ele>
        <time>2011-07-14T08:02:59Z</time>
      </trkpt>
      <trkpt lat="45.68574" lon="-0.24393">
        <ele>43</ele>
        <time>2011-07-14T08:03:08Z</time>
      </trkpt>
      <trkpt lat="45.68658" lon="-0.24466">
        <ele>45</ele>
        <time>2011-07-14T08:03:23Z</time>
      </trkpt>
      <trkpt lat="45.68768" lon="-0.24601">
        <ele>45</ele>
        <time>2011-07-14T08:03:43Z</time>
      </trkpt>
      <trkpt lat="45.68889" lon="-0.24772">
        <ele>45</ele>
        <time>2011-07-14T08:04:07Z</time>
      </trkpt>
      <trkpt lat="45.68968" lon="-0.24899">
        <ele>48</ele>
        <time>2011-07-14T08:04:25Z</time>
      </trkpt>
      <trkpt lat="45.69024" lon="-0.25027">
        <ele>48</ele>
        <time>2011-07-14T08:04:41Z</time>
      </trkpt>
      <trkpt lat="45.69046" lon="-0.25171">
        <ele>45</ele>
        <time>2011-07-14T08:04:55Z</time>
      </trkpt>
      <trkpt lat="45.69051" lon="-0.25254">
        <ele>45</ele>
        <time>2011-07-14T08:05:03Z</time>
      </trkpt>
      <trkpt lat="45.69041" lon="-0.25302">
        <ele>45</ele>
        <time>2011-07-14T08:05:07Z</time>
      </trkpt>
      <trkpt lat="45.69009" lon="-0.25403">
        <ele>46</ele>
        <time>2011-07-14T08:05:16Z</time>
      </trkpt>
      <trkpt lat="45.69002" lon="-0.25446">
        <ele>46</ele>
        <time>2011-07-14T08:05:20Z</time>
      </trkpt>
      <trkpt lat="45.69009" lon="-0.25552">
        <ele>46</ele>
        <time>2011-07-14T08:05:32Z</time>
      </trkpt>
      <trkpt lat="45.69022" lon="-0.25619">
        <ele>46</ele>
        <time>2011-07-14T08:05:41Z</time>
      </trkpt>
      <trkpt lat="45.69013" lon="-0.25737">
        <ele>47</ele>
        <time>2011-07-14T08:05:55Z</time>
      </trkpt>
      <trkpt lat="45.69007" lon="-0.25789">
        <ele>46</ele>
        <time>2011-07-14T08:06:01Z</time>
      </trkpt>
      <trkpt lat="45.69001" lon="-0.25811">
        <ele>47</ele>
        <time>2011-07-14T08:06:04Z</time>
      </trkpt>
      <trkpt lat="45.68989" lon="-0.25842">
        <ele>49</ele>
        <time>2011-07-14T08:06:09Z</time>
      </trkpt>
      <trkpt lat="45.6897" lon="-0.25868">
        <ele>51</ele>
        <time>2011-07-14T08:06:15Z</time>
      </trkpt>
      <trkpt lat="45.68929" lon="-0.25906">
        <ele>53</ele>
        <time>2011-07-14T08:06:26Z</time>
      </trkpt>
      <trkpt lat="45.68911" lon="-0.25927">
        <ele>54</ele>
        <time>2011-07-14T08:06:31Z</time>
      </trkpt>
      <trkpt lat="45.68904" lon="-0.25976">
        <ele>54</ele>
        <time>2011-07-14T08:06:39Z</time>
      </trkpt>
      <trkpt lat="45.68933" lon="-0.26093">
        <ele>55</ele>
        <time>2011-07-14T08:06:55Z</time>
      </trkpt>
      <trkpt lat="45.68961" lon="-0.26267">
        <ele>53</ele>
        <time>2011-07-14T08:07:13Z</time>
      </trkpt>
      <trkpt lat="45.6895" lon="-0.26459">
        <ele>51</ele>
        <time>2011-07-14T08:07:32Z</time>
      </trkpt>
      <trkpt lat="45.68946" lon="-0.2661">
        <ele>50</ele>
        <time>2011-07-14T08:07:48Z</time>
      </trkpt>
      <trkpt lat="45.68932" lon="-0.26779">
        <ele>48</ele>
        <time>2011-07-14T08:08:05Z</time>
      </trkpt>
      <trkpt lat="45.68914" lon="-0.26989">
        <ele>42</ele>
        <time>2011-07-14T08:08:23Z</time>
      </trkpt>
      <trkpt lat="45.6891" lon="-0.27013">
        <ele>40</ele>
        <time>2011-07-14T08:08:25Z</time>
      </trkpt>
      <trkpt lat="45.68855" lon="-0.27152">
        <ele>34</ele>
        <time>2011-07-14T08:08:37Z</time>
      </trkpt>
      <trkpt lat="45.68813" lon="-0.27237">
        <ele>33</ele>
        <time>2011-07-14T08:08:44Z</time>
      </trkpt>
      <trkpt lat="45.68805" lon="-0.27292">
        <ele>32</ele>
        <time>2011-07-14T08:08:48Z</time>
      </trkpt>
      <trkpt lat="45.68807" lon="-0.27342">
        <ele>30</ele>
        <time>2011-07-14T08:08:52Z</time>
      </trkpt>
      <trkpt lat="45.68799" lon="-0.27407">
        <ele>29</ele>
        <time>2011-07-14T08:08:58Z</time>
      </trkpt>
      <trkpt lat="45.68797" lon="-0.2746">
        <ele>28</ele>
        <time>2011-07-14T08:09:03Z</time>
      </trkpt>
      <trkpt lat="45.68799" lon="-0.27492">
        <ele>28</ele>
        <time>2011-07-14T08:09:06Z</time>
      </trkpt>
      <trkpt lat="45.68848" lon="-0.27626">
        <ele>29</ele>
        <time>2011-07-14T08:09:20Z</time>
      </trkpt>
      <trkpt lat="45.68859" lon="-0.27654">
        <ele>28</ele>
        <time>2011-07-14T08:09:24Z</time>
      </trkpt>
      <trkpt lat="45.6885" lon="-0.27675">
        <ele>26</ele>
        <time>2011-07-14T08:09:28Z</time>
      </trkpt>
      <trkpt lat="45.6883" lon="-0.27692">
        <ele>24</ele>
        <time>2011-07-14T08:09:32Z</time>
      </trkpt>
      <trkpt lat="45.68819" lon="-0.27712">
        <ele>24</ele>
        <time>2011-07-14T08:09:37Z</time>
      </trkpt>
      <trkpt lat="45.68816" lon="-0.27713">
        <ele>24</ele>
        <time>2011-07-14T08:09:50Z</time>
      </trkpt>
      <trkpt lat="45.68815" lon="-0.27712">
        <ele>24</ele>
        <time>2011-07-14T08:09:53Z</time>
      </trkpt>
      <trkpt lat="45.68814" lon="-0.27709">
        <ele>24</ele>
        <time>2011-07-14T08:09:55Z</time>
      </trkpt>
      <trkpt lat="45.68805" lon="-0.27709">
        <ele>24</ele>
        <time>2011-07-14T08:09:59Z</time>
      </trkpt>
      <trkpt lat="45.68787" lon="-0.27718">
        <ele>23</ele>
        <time>2011-07-14T08:10:10Z</time>
      </trkpt>
      <trkpt lat="45.68767" lon="-0.27733">
        <ele>22</ele>
        <time>2011-07-14T08:10:22Z</time>
      </trkpt>
      <trkpt lat="45.68747" lon="-0.27749">
        <ele>21</ele>
        <time>2011-07-14T08:10:31Z</time>
      </trkpt>
      <trkpt lat="45.68749" lon="-0.27747">
        <ele>21</ele>
        <time>2011-07-14T08:10:38Z</time>
      </trkpt>
      <trkpt lat="45.68782" lon="-0.2772">
        <ele>23</ele>
        <time>2011-07-14T08:10:52Z</time>
      </trkpt>
      <trkpt lat="45.68815" lon="-0.27699">
        <ele>24</ele>
        <time>2011-07-14T08:11:02Z</time>
      </trkpt>
      <trkpt lat="45.68826" lon="-0.2771">
        <ele>24</ele>
        <time>2011-07-14T08:11:06Z</time>
      </trkpt>
      <trkpt lat="45.68841" lon="-0.27745">
        <ele>25</ele>
        <time>2011-07-14T08:11:13Z</time>
      </trkpt>
      <trkpt lat="45.68868" lon="-0.27793">
        <ele>24</ele>
        <time>2011-07-14T08:11:22Z</time>
      </trkpt>
      <trkpt lat="45.68901" lon="-0.27901">
        <ele>23</ele>
        <time>2011-07-14T08:11:35Z</time>
      </trkpt>
      <trkpt lat="45.68891" lon="-0.27948">
        <ele>20</ele>
        <time>2011-07-14T08:11:40Z</time>
      </trkpt>
      <trkpt lat="45.68872" lon="-0.27973">
        <ele>20</ele>
        <time>2011-07-14T08:11:43Z</time>
      </trkpt>
      <trkpt lat="45.6886" lon="-0.2803">
        <ele>18</ele>
        <time>2011-07-14T08:11:48Z</time>
      </trkpt>
      <trkpt lat="45.68863" lon="-0.28054">
        <ele>18</ele>
        <time>2011-07-14T08:11:50Z</time>
      </trkpt>
      <trkpt lat="45.68852" lon="-0.28106">
        <ele>17</ele>
        <time>2011-07-14T08:11:55Z</time>
      </trkpt>
      <trkpt lat="45.68842" lon="-0.28124">
        <ele>17</ele>
        <time>2011-07-14T08:11:57Z</time>
      </trkpt>
      <trkpt lat="45.68845" lon="-0.28175">
        <ele>16</ele>
        <time>2011-07-14T08:12:03Z</time>
      </trkpt>
      <trkpt lat="45.68912" lon="-0.28272">
        <ele>17</ele>
        <time>2011-07-14T08:12:20Z</time>
      </trkpt>
      <trkpt lat="45.68944" lon="-0.28342">
        <ele>18</ele>
        <time>2011-07-14T08:12:29Z</time>
      </trkpt>
      <trkpt lat="45.68952" lon="-0.28357">
        <ele>18</ele>
        <time>2011-07-14T08:12:31Z</time>
      </trkpt>
      <trkpt lat="45.68966" lon="-0.28376">
        <ele>18</ele>
        <time>2011-07-14T08:12:34Z</time>
      </trkpt>
      <trkpt lat="45.6896" lon="-0.28396">
        <ele>18</ele>
        <time>2011-07-14T08:12:38Z</time>
      </trkpt>
      <trkpt lat="45.68882" lon="-0.28458">
        <ele>12</ele>
        <time>2011-07-14T08:12:51Z</time>
      </trkpt>
      <trkpt lat="45.68803" lon="-0.28533">
        <ele>11</ele>
        <time>2011-07-14T08:13:05Z</time>
      </trkpt>
      <trkpt lat="45.68742" lon="-0.28591">
        <ele>11</ele>
        <time>2011-07-14T08:13:17Z</time>
      </trkpt>
      <trkpt lat="45.6873" lon="-0.28578">
        <ele>10</ele>
        <time>2011-07-14T08:13:25Z</time>
      </trkpt>
      <trkpt lat="45.68724" lon="-0.28581">
        <ele>10</ele>
        <time>2011-07-14T08:13:28Z</time>
      </trkpt>
      <trkpt lat="45.68721" lon="-0.28583">
        <ele>10</ele>
        <time>2011-07-14T08:13:45Z</time>
      </trkpt>
      <trkpt lat="45.68721" lon="-0.28582">
        <ele>10</ele>
        <time>2011-07-14T08:16:21Z</time>
      </trkpt>
      <trkpt lat="45.68725" lon="-0.28582">
        <ele>10</ele>
        <time>2011-07-14T08:16:25Z</time>
      </trkpt>
      <trkpt lat="45.68733" lon="-0.28576">
        <ele>10</ele>
        <time>2011-07-14T08:16:29Z</time>
      </trkpt>
      <trkpt lat="45.68742" lon="-0.28582">
        <ele>10</ele>
        <time>2011-07-14T08:16:39Z</time>
      </trkpt>
      <trkpt lat="45.68742" lon="-0.28582">
        <ele>10</ele>
        <time>2011-07-14T08:16:41Z</time>
      </trkpt>
      <trkpt lat="45.68738" lon="-0.28591">
        <ele>11</ele>
        <time>2011-07-14T08:16:45Z</time>
      </trkpt>
      <trkpt lat="45.68678" lon="-0.28654">
        <ele>11</ele>
        <time>2011-07-14T08:16:59Z</time>
      </trkpt>
      <trkpt lat="45.68608" lon="-0.28721">
        <ele>19</ele>
        <time>2011-07-14T08:17:13Z</time>
      </trkpt>
      <trkpt lat="45.68603" lon="-0.28726">
        <ele>19</ele>
        <time>2011-07-14T08:17:14Z</time>
      </trkpt>
      <trkpt lat="45.68577" lon="-0.28763">
        <ele>25</ele>
        <time>2011-07-14T08:17:20Z</time>
      </trkpt>
      <trkpt lat="45.68553" lon="-0.28804">
        <ele>30</ele>
        <time>2011-07-14T08:17:27Z</time>
      </trkpt>
      <trkpt lat="45.68547" lon="-0.28823">
        <ele>30</ele>
        <time>2011-07-14T08:17:30Z</time>
      </trkpt>
      <trkpt lat="45.68553" lon="-0.2887">
        <ele>33</ele>
        <time>2011-07-14T08:17:37Z</time>
      </trkpt>
      <trkpt lat="45.68563" lon="-0.28891">
        <ele>33</ele>
        <time>2011-07-14T08:17:41Z</time>
      </trkpt>
      <trkpt lat="45.68576" lon="-0.2891">
        <ele>32</ele>
        <time>2011-07-14T08:17:45Z</time>
      </trkpt>
      <trkpt lat="45.68584" lon="-0.28966">
        <ele>38</ele>
        <time>2011-07-14T08:17:56Z</time>
      </trkpt>
      <trkpt lat="45.68554" lon="-0.29022">
        <ele>39</ele>
        <time>2011-07-14T08:18:08Z</time>
      </trkpt>
      <trkpt lat="45.68546" lon="-0.29029">
        <ele>39</ele>
        <time>2011-07-14T08:18:10Z</time>
      </trkpt>
      <trkpt lat="45.68487" lon="-0.29078">
        <ele>38</ele>
        <time>2011-07-14T08:18:27Z</time>
      </trkpt>
      <trkpt lat="45.68434" lon="-0.29113">
        <ele>37</ele>
        <time>2011-07-14T08:18:42Z</time>
      </trkpt>
      <trkpt lat="45.6843" lon="-0.29115">
        <ele>37</ele>
        <time>2011-07-14T08:18:43Z</time>
      </trkpt>
      <trkpt lat="45.6834" lon="-0.29137">
        <ele>35</ele>
        <time>2011-07-14T08:19:03Z</time>
      </trkpt>
      <trkpt lat="45.68322" lon="-0.29146">
        <ele>34</ele>
        <time>2011-07-14T08:19:07Z</time>
      </trkpt>
      <trkpt lat="45.6822" lon="-0.29215">
        <ele>34</ele>
        <time>2011-07-14T08:19:28Z</time>
      </trkpt>
      <trkpt lat="45.68199" lon="-0.29232">
        <ele>35</ele>
        <time>2011-07-14T08:19:32Z</time>
      </trkpt>
      <trkpt lat="45.68189" lon="-0.29253">
        <ele>36</ele>
        <time>2011-07-14T08:19:38Z</time>
      </trkpt>
      <trkpt lat="45.68189" lon="-0.29264">
        <ele>36</ele>
        <time>2011-07-14T08:19:40Z</time>
      </trkpt>
      <trkpt lat="45.68199" lon="-0.293">
        <ele>36</ele>
        <time>2011-07-14T08:19:46Z</time>
      </trkpt>
      <trkpt lat="45.68214" lon="-0.29335">
        <ele>37</ele>
        <time>2011-07-14T08:19:51Z</time>
      </trkpt>
      <trkpt lat="45.6827" lon="-0.29535">
        <ele>35</ele>
        <time>2011-07-14T08:20:15Z</time>
      </trkpt>
      <trkpt lat="45.68326" lon="-0.29715">
        <ele>37</ele>
        <time>2011-07-14T08:20:36Z</time>
      </trkpt>
      <trkpt lat="45.68345" lon="-0.29764">
        <ele>38</ele>
        <time>2011-07-14T08:20:42Z</time>
      </trkpt>
      <trkpt lat="45.68358" lon="-0.29795">
        <ele>38</ele>
        <time>2011-07-14T08:20:46Z</time>
      </trkpt>
      <trkpt lat="45.68363" lon="-0.2983">
        <ele>38</ele>
        <time>2011-07-14T08:20:50Z</time>
      </trkpt>
      <trkpt lat="45.68418" lon="-0.30015">
        <ele>42</ele>
        <time>2011-07-14T08:21:12Z</time>
      </trkpt>
      <trkpt lat="45.68464" lon="-0.30171">
        <ele>44</ele>
        <time>2011-07-14T08:21:32Z</time>
      </trkpt>
      <trkpt lat="45.68521" lon="-0.30358">
        <ele>42</ele>
        <time>2011-07-14T08:21:53Z</time>
      </trkpt>
      <trkpt lat="45.68556" lon="-0.30485">
        <ele>41</ele>
        <time>2011-07-14T08:22:06Z</time>
      </trkpt>
      <trkpt lat="45.68604" lon="-0.30638">
        <ele>37</ele>
        <time>2011-07-14T08:22:21Z</time>
      </trkpt>
      <trkpt lat="45.68678" lon="-0.30873">
        <ele>33</ele>
        <time>2011-07-14T08:22:43Z</time>
      </trkpt>
      <trkpt lat="45.6875" lon="-0.31116">
        <ele>30</ele>
        <time>2011-07-14T08:23:05Z</time>
      </trkpt>
      <trkpt lat="45.68764" lon="-0.31168">
        <ele>31</ele>
        <time>2011-07-14T08:23:13Z</time>
      </trkpt>
      <trkpt lat="45.68775" lon="-0.31199">
        <ele>31</ele>
        <time>2011-07-14T08:23:34Z</time>
      </trkpt>
      <trkpt lat="45.68815" lon="-0.31328">
        <ele>30</ele>
        <time>2011-07-14T08:23:50Z</time>
      </trkpt>
      <trkpt lat="45.68859" lon="-0.31479">
        <ele>29</ele>
        <time>2011-07-14T08:24:06Z</time>
      </trkpt>
      <trkpt lat="45.68909" lon="-0.31645">
        <ele>28</ele>
        <time>2011-07-14T08:24:23Z</time>
      </trkpt>
      <trkpt lat="45.68915" lon="-0.31664">
        <ele>28</ele>
        <time>2011-07-14T08:24:25Z</time>
      </trkpt>
      <trkpt lat="45.68928" lon="-0.31714">
        <ele>26</ele>
        <time>2011-07-14T08:24:32Z</time>
      </trkpt>
      <trkpt lat="45.68921" lon="-0.31767">
        <ele>25</ele>
        <time>2011-07-14T08:24:39Z</time>
      </trkpt>
      <trkpt lat="45.68848" lon="-0.31884">
        <ele>24</ele>
        <time>2011-07-14T08:24:55Z</time>
      </trkpt>
      <trkpt lat="45.68774" lon="-0.32012">
        <ele>26</ele>
        <time>2011-07-14T08:25:11Z</time>
      </trkpt>
      <trkpt lat="45.6877" lon="-0.32018">
        <ele>26</ele>
        <time>2011-07-14T08:25:12Z</time>
      </trkpt>
      <trkpt lat="45.68756" lon="-0.3204">
        <ele>26</ele>
        <time>2011-07-14T08:25:16Z</time>
      </trkpt>
      <trkpt lat="45.68724" lon="-0.32099">
        <ele>27</ele>
        <time>2011-07-14T08:25:25Z</time>
      </trkpt>
      <trkpt lat="45.68674" lon="-0.32248">
        <ele>28</ele>
        <time>2011-07-14T08:25:44Z</time>
      </trkpt>
      <trkpt lat="45.68625" lon="-0.32398">
        <ele>28</ele>
        <time>2011-07-14T08:26:03Z</time>
      </trkpt>
      <trkpt lat="45.68576" lon="-0.32551">
        <ele>30</ele>
        <time>2011-07-14T08:26:22Z</time>
      </trkpt>
      <trkpt lat="45.68557" lon="-0.3261">
        <ele>31</ele>
        <time>2011-07-14T08:26:29Z</time>
      </trkpt>
      <trkpt lat="45.68544" lon="-0.32643">
        <ele>31</ele>
        <time>2011-07-14T08:26:33Z</time>
      </trkpt>
      <trkpt lat="45.68536" lon="-0.32678">
        <ele>31</ele>
        <time>2011-07-14T08:26:37Z</time>
      </trkpt>
      <trkpt lat="45.68486" lon="-0.32829">
        <ele>27</ele>
        <time>2011-07-14T08:26:53Z</time>
      </trkpt>
      <trkpt lat="45.68497" lon="-0.32873">
        <ele>25</ele>
        <time>2011-07-14T08:26:58Z</time>
      </trkpt>
      <trkpt lat="45.68507" lon="-0.32885">
        <ele>25</ele>
        <time>2011-07-14T08:27:00Z</time>
      </trkpt>
      <trkpt lat="45.68514" lon="-0.32927">
        <ele>23</ele>
        <time>2011-07-14T08:27:05Z</time>
      </trkpt>
      <trkpt lat="45.68576" lon="-0.33042">
        <ele>21</ele>
        <time>2011-07-14T08:27:18Z</time>
      </trkpt>
      <trkpt lat="45.68682" lon="-0.33237">
        <ele>18</ele>
        <time>2011-07-14T08:27:37Z</time>
      </trkpt>
      <trkpt lat="45.6877" lon="-0.33385">
        <ele>17</ele>
        <time>2011-07-14T08:27:54Z</time>
      </trkpt>
      <trkpt lat="45.68798" lon="-0.33433">
        <ele>17</ele>
        <time>2011-07-14T08:28:08Z</time>
      </trkpt>
      <trkpt lat="45.68799" lon="-0.33432">
        <ele>17</ele>
        <time>2011-07-14T08:28:33Z</time>
      </trkpt>
      <trkpt lat="45.68809" lon="-0.33454">
        <ele>17</ele>
        <time>2011-07-14T08:28:43Z</time>
      </trkpt>
      <trkpt lat="45.68846" lon="-0.33572">
        <ele>15</ele>
        <time>2011-07-14T08:28:57Z</time>
      </trkpt>
      <trkpt lat="45.68898" lon="-0.33734">
        <ele>10</ele>
        <time>2011-07-14T08:29:11Z</time>
      </trkpt>
      <trkpt lat="45.68951" lon="-0.33899">
        <ele>10</ele>
        <time>2011-07-14T08:29:28Z</time>
      </trkpt>
      <trkpt lat="45.69006" lon="-0.3407">
        <ele>7</ele>
        <time>2011-07-14T08:29:47Z</time>
      </trkpt>
      <trkpt lat="45.69078" lon="-0.34298">
        <ele>10</ele>
        <time>2011-07-14T08:30:09Z</time>
      </trkpt>
      <trkpt lat="45.6908" lon="-0.34307">
        <ele>10</ele>
        <time>2011-07-14T08:30:10Z</time>
      </trkpt>
      <trkpt lat="45.69084" lon="-0.34321">
        <ele>10</ele>
        <time>2011-07-14T08:30:18Z</time>
      </trkpt>
      <trkpt lat="45.69083" lon="-0.34349">
        <ele>10</ele>
        <time>2011-07-14T08:30:35Z</time>
      </trkpt>
      <trkpt lat="45.69081" lon="-0.34353">
        <ele>10</ele>
        <time>2011-07-14T08:30:36Z</time>
      </trkpt>
      <trkpt lat="45.69043" lon="-0.34432">
        <ele>11</ele>
        <time>2011-07-14T08:30:49Z</time>
      </trkpt>
      <trkpt lat="45.69003" lon="-0.34514">
        <ele>10</ele>
        <time>2011-07-14T08:31:00Z</time>
      </trkpt>
      <trkpt lat="45.68979" lon="-0.34558">
        <ele>10</ele>
        <time>2011-07-14T08:31:06Z</time>
      </trkpt>
      <trkpt lat="45.6891" lon="-0.34702">
        <ele>11</ele>
        <time>2011-07-14T08:31:24Z</time>
      </trkpt>
      <trkpt lat="45.68846" lon="-0.34835">
        <ele>14</ele>
        <time>2011-07-14T08:31:40Z</time>
      </trkpt>
      <trkpt lat="45.68771" lon="-0.34987">
        <ele>12</ele>
        <time>2011-07-14T08:31:59Z</time>
      </trkpt>
      <trkpt lat="45.68701" lon="-0.35143">
        <ele>10</ele>
        <time>2011-07-14T08:32:17Z</time>
      </trkpt>
      <trkpt lat="45.68633" lon="-0.35302">
        <ele>10</ele>
        <time>2011-07-14T08:32:35Z</time>
      </trkpt>
      <trkpt lat="45.68613" lon="-0.35352">
        <ele>10</ele>
        <time>2011-07-14T08:32:41Z</time>
      </trkpt>
      <trkpt lat="45.68599" lon="-0.35414">
        <ele>10</ele>
        <time>2011-07-14T08:32:48Z</time>
      </trkpt>
      <trkpt lat="45.68578" lon="-0.35453">
        <ele>10</ele>
        <time>2011-07-14T08:32:53Z</time>
      </trkpt>
      <trkpt lat="45.68561" lon="-0.35472">
        <ele>10</ele>
        <time>2011-07-14T08:32:56Z</time>
      </trkpt>
      <trkpt lat="45.68547" lon="-0.35494">
        <ele>10</ele>
        <time>2011-07-14T08:32:59Z</time>
      </trkpt>
      <trkpt lat="45.68525" lon="-0.3561">
        <ele>9</ele>
        <time>2011-07-14T08:33:12Z</time>
      </trkpt>
      <trkpt lat="45.68502" lon="-0.35781">
        <ele>9</ele>
        <time>2011-07-14T08:33:31Z</time>
      </trkpt>
      <trkpt lat="45.68469" lon="-0.36014">
        <ele>9</ele>
        <time>2011-07-14T08:33:53Z</time>
      </trkpt>
      <trkpt lat="45.68438" lon="-0.36221">
        <ele>8</ele>
        <time>2011-07-14T08:34:13Z</time>
      </trkpt>
      <trkpt lat="45.68417" lon="-0.36367">
        <ele>8</ele>
        <time>2011-07-14T08:34:28Z</time>
      </trkpt>
      <trkpt lat="45.68387" lon="-0.36565">
        <ele>8</ele>
        <time>2011-07-14T08:34:48Z</time>
      </trkpt>
      <trkpt lat="45.68367" lon="-0.36705">
        <ele>8</ele>
        <time>2011-07-14T08:35:03Z</time>
      </trkpt>
      <trkpt lat="45.68343" lon="-0.3687">
        <ele>7</ele>
        <time>2011-07-14T08:35:20Z</time>
      </trkpt>
      <trkpt lat="45.68323" lon="-0.37009">
        <ele>6</ele>
        <time>2011-07-14T08:35:35Z</time>
      </trkpt>
      <trkpt lat="45.68296" lon="-0.37189">
        <ele>8</ele>
        <time>2011-07-14T08:35:56Z</time>
      </trkpt>
      <trkpt lat="45.68286" lon="-0.37317">
        <ele>10</ele>
        <time>2011-07-14T08:36:11Z</time>
      </trkpt>
      <trkpt lat="45.68285" lon="-0.37326">
        <ele>10</ele>
        <time>2011-07-14T08:36:12Z</time>
      </trkpt>
      <trkpt lat="45.68267" lon="-0.37507">
        <ele>9</ele>
        <time>2011-07-14T08:36:32Z</time>
      </trkpt>
      <trkpt lat="45.68251" lon="-0.3767">
        <ele>8</ele>
        <time>2011-07-14T08:36:50Z</time>
      </trkpt>
      <trkpt lat="45.68233" lon="-0.37871">
        <ele>9</ele>
        <time>2011-07-14T08:37:10Z</time>
      </trkpt>
      <trkpt lat="45.68215" lon="-0.38046">
        <ele>7</ele>
        <time>2011-07-14T08:37:27Z</time>
      </trkpt>
      <trkpt lat="45.68198" lon="-0.38233">
        <ele>7</ele>
        <time>2011-07-14T08:37:46Z</time>
      </trkpt>
      <trkpt lat="45.68192" lon="-0.38299">
        <ele>7</ele>
        <time>2011-07-14T08:37:53Z</time>
      </trkpt>
      <trkpt lat="45.68198" lon="-0.38377">
        <ele>7</ele>
        <time>2011-07-14T08:38:01Z</time>
      </trkpt>
      <trkpt lat="45.6824" lon="-0.3854">
        <ele>10</ele>
        <time>2011-07-14T08:38:21Z</time>
      </trkpt>
      <trkpt lat="45.68277" lon="-0.38654">
        <ele>9</ele>
        <time>2011-07-14T08:38:35Z</time>
      </trkpt>
      <trkpt lat="45.68299" lon="-0.3874">
        <ele>10</ele>
        <time>2011-07-14T08:38:46Z</time>
      </trkpt>
      <trkpt lat="45.68352" lon="-0.38916">
        <ele>10</ele>
        <time>2011-07-14T08:39:07Z</time>
      </trkpt>
      <trkpt lat="45.68418" lon="-0.39122">
        <ele>8</ele>
        <time>2011-07-14T08:39:29Z</time>
      </trkpt>
      <trkpt lat="45.68492" lon="-0.39283">
        <ele>6</ele>
        <time>2011-07-14T08:39:48Z</time>
      </trkpt>
      <trkpt lat="45.68512" lon="-0.39321">
        <ele>6</ele>
        <time>2011-07-14T08:39:53Z</time>
      </trkpt>
      <trkpt lat="45.68578" lon="-0.39439">
        <ele>7</ele>
        <time>2011-07-14T08:40:09Z</time>
      </trkpt>
      <trkpt lat="45.68656" lon="-0.3955">
        <ele>9</ele>
        <time>2011-07-14T08:40:26Z</time>
      </trkpt>
      <trkpt lat="45.68722" lon="-0.39611">
        <ele>10</ele>
        <time>2011-07-14T08:40:41Z</time>
      </trkpt>
      <trkpt lat="45.68756" lon="-0.39646">
        <ele>12</ele>
        <time>2011-07-14T08:40:49Z</time>
      </trkpt>
      <trkpt lat="45.68772" lon="-0.39675">
        <ele>11</ele>
        <time>2011-07-14T08:40:55Z</time>
      </trkpt>
      <trkpt lat="45.68783" lon="-0.39687">
        <ele>11</ele>
        <time>2011-07-14T08:40:58Z</time>
      </trkpt>
      <trkpt lat="45.688" lon="-0.39691">
        <ele>12</ele>
        <time>2011-07-14T08:41:02Z</time>
      </trkpt>
      <trkpt lat="45.68812" lon="-0.39686">
        <ele>12</ele>
        <time>2011-07-14T08:41:05Z</time>
      </trkpt>
      <trkpt lat="45.6883" lon="-0.39716">
        <ele>12</ele>
        <time>2011-07-14T08:41:12Z</time>
      </trkpt>
      <trkpt lat="45.68829" lon="-0.39723">
        <ele>12</ele>
        <time>2011-07-14T08:41:13Z</time>
      </trkpt>
      <trkpt lat="45.68825" lon="-0.3974">
        <ele>12</ele>
        <time>2011-07-14T08:41:15Z</time>
      </trkpt>
      <trkpt lat="45.68841" lon="-0.3986">
        <ele>9</ele>
        <time>2011-07-14T08:41:26Z</time>
      </trkpt>
      <trkpt lat="45.68846" lon="-0.39882">
        <ele>9</ele>
        <time>2011-07-14T08:41:28Z</time>
      </trkpt>
      <trkpt lat="45.68911" lon="-0.40021">
        <ele>9</ele>
        <time>2011-07-14T08:41:44Z</time>
      </trkpt>
      <trkpt lat="45.6892" lon="-0.40039">
        <ele>10</ele>
        <time>2011-07-14T08:41:47Z</time>
      </trkpt>
      <trkpt lat="45.68908" lon="-0.40077">
        <ele>10</ele>
        <time>2011-07-14T08:41:55Z</time>
      </trkpt>
      <trkpt lat="45.68903" lon="-0.40079">
        <ele>10</ele>
        <time>2011-07-14T08:41:56Z</time>
      </trkpt>
      <trkpt lat="45.68812" lon="-0.40114">
        <ele>14</ele>
        <time>2011-07-14T08:42:09Z</time>
      </trkpt>
      <trkpt lat="45.68687" lon="-0.40162">
        <ele>10</ele>
        <time>2011-07-14T08:42:27Z</time>
      </trkpt>
      <trkpt lat="45.68675" lon="-0.40174">
        <ele>11</ele>
        <time>2011-07-14T08:42:29Z</time>
      </trkpt>
      <trkpt lat="45.68648" lon="-0.40214">
        <ele>9</ele>
        <time>2011-07-14T08:42:34Z</time>
      </trkpt>
      <trkpt lat="45.68633" lon="-0.40275">
        <ele>9</ele>
        <time>2011-07-14T08:42:40Z</time>
      </trkpt>
      <trkpt lat="45.68637" lon="-0.40329">
        <ele>9</ele>
        <time>2011-07-14T08:42:45Z</time>
      </trkpt>
      <trkpt lat="45.68689" lon="-0.40554">
        <ele>14</ele>
        <time>2011-07-14T08:43:08Z</time>
      </trkpt>
      <trkpt lat="45.68725" lon="-0.40732">
        <ele>10</ele>
        <time>2011-07-14T08:43:26Z</time>
      </trkpt>
      <trkpt lat="45.68739" lon="-0.40904">
        <ele>7</ele>
        <time>2011-07-14T08:43:43Z</time>
      </trkpt>
      <trkpt lat="45.68751" lon="-0.41139">
        <ele>17</ele>
        <time>2011-07-14T08:44:06Z</time>
      </trkpt>
      <trkpt lat="45.68758" lon="-0.41296">
        <ele>17</ele>
        <time>2011-07-14T08:44:22Z</time>
      </trkpt>
      <trkpt lat="45.68758" lon="-0.41516">
        <ele>12</ele>
        <time>2011-07-14T08:44:44Z</time>
      </trkpt>
      <trkpt lat="45.68758" lon="-0.41551">
        <ele>13</ele>
        <time>2011-07-14T08:44:48Z</time>
      </trkpt>
      <trkpt lat="45.68755" lon="-0.41585">
        <ele>11</ele>
        <time>2011-07-14T08:44:52Z</time>
      </trkpt>
      <trkpt lat="45.68731" lon="-0.41782">
        <ele>12</ele>
        <time>2011-07-14T08:45:13Z</time>
      </trkpt>
      <trkpt lat="45.68713" lon="-0.41954">
        <ele>14</ele>
        <time>2011-07-14T08:45:31Z</time>
      </trkpt>
      <trkpt lat="45.68699" lon="-0.42157">
        <ele>10</ele>
        <time>2011-07-14T08:45:52Z</time>
      </trkpt>
      <trkpt lat="45.68681" lon="-0.42352">
        <ele>16</ele>
        <time>2011-07-14T08:46:13Z</time>
      </trkpt>
      <trkpt lat="45.68669" lon="-0.42458">
        <ele>16</ele>
        <time>2011-07-14T08:46:24Z</time>
      </trkpt>
      <trkpt lat="45.68666" lon="-0.42686">
        <ele>8</ele>
        <time>2011-07-14T08:46:46Z</time>
      </trkpt>
      <trkpt lat="45.68647" lon="-0.42855">
        <ele>11</ele>
        <time>2011-07-14T08:47:03Z</time>
      </trkpt>
      <trkpt lat="45.68652" lon="-0.4301">
        <ele>8</ele>
        <time>2011-07-14T08:47:18Z</time>
      </trkpt>
      <trkpt lat="45.6869" lon="-0.43158">
        <ele>6</ele>
        <time>2011-07-14T08:47:34Z</time>
      </trkpt>
      <trkpt lat="45.68701" lon="-0.43201">
        <ele>6</ele>
        <time>2011-07-14T08:47:40Z</time>
      </trkpt>
      <trkpt lat="45.68704" lon="-0.43227">
        <ele>6</ele>
        <time>2011-07-14T08:47:44Z</time>
      </trkpt>
      <trkpt lat="45.68701" lon="-0.43261">
        <ele>5</ele>
        <time>2011-07-14T08:47:49Z</time>
      </trkpt>
      <trkpt lat="45.6867" lon="-0.43407">
        <ele>4</ele>
        <time>2011-07-14T08:48:07Z</time>
      </trkpt>
      <trkpt lat="45.68665" lon="-0.43429">
        <ele>4</ele>
        <time>2011-07-14T08:48:10Z</time>
      </trkpt>
      <trkpt lat="45.68649" lon="-0.43445">
        <ele>4</ele>
        <time>2011-07-14T08:48:16Z</time>
      </trkpt>
      <trkpt lat="45.68623" lon="-0.43432">
        <ele>4</ele>
        <time>2011-07-14T08:48:28Z</time>
      </trkpt>
      <trkpt lat="45.68622" lon="-0.43432">
        <ele>4</ele>
        <time>2011-07-14T08:52:03Z</time>
      </trkpt>
      <trkpt lat="45.68622" lon="-0.43435">
        <ele>4</ele>
        <time>2011-07-14T08:55:58Z</time>
      </trkpt>
      <trkpt lat="45.68622" lon="-0.43435">
        <ele>4</ele>
        <time>2011-07-14T08:56:05Z</time>
      </trkpt>
      <trkpt lat="45.68652" lon="-0.43443">
        <ele>4</ele>
        <time>2011-07-14T08:56:20Z</time>
      </trkpt>
      <trkpt lat="45.68654" lon="-0.43446">
        <ele>4</ele>
        <time>2011-07-14T08:56:23Z</time>
      </trkpt>
      <trkpt lat="45.68656" lon="-0.43468">
        <ele>4</ele>
        <time>2011-07-14T08:56:30Z</time>
      </trkpt>
      <trkpt lat="45.68639" lon="-0.43544">
        <ele>5</ele>
        <time>2011-07-14T08:56:42Z</time>
      </trkpt>
      <trkpt lat="45.68632" lon="-0.43581">
        <ele>5</ele>
        <time>2011-07-14T08:56:47Z</time>
      </trkpt>
      <trkpt lat="45.68626" lon="-0.43603">
        <ele>4</ele>
        <time>2011-07-14T08:56:50Z</time>
      </trkpt>
      <trkpt lat="45.68613" lon="-0.43671">
        <ele>4</ele>
        <time>2011-07-14T08:56:59Z</time>
      </trkpt>
      <trkpt lat="45.68604" lon="-0.43708">
        <ele>4</ele>
        <time>2011-07-14T08:57:04Z</time>
      </trkpt>
      <trkpt lat="45.68599" lon="-0.43742">
        <ele>4</ele>
        <time>2011-07-14T08:57:09Z</time>
      </trkpt>
      <trkpt lat="45.6858" lon="-0.43824">
        <ele>5</ele>
        <time>2011-07-14T08:57:20Z</time>
      </trkpt>
      <trkpt lat="45.68552" lon="-0.43955">
        <ele>7</ele>
        <time>2011-07-14T08:57:34Z</time>
      </trkpt>
      <trkpt lat="45.68518" lon="-0.44131">
        <ele>7</ele>
        <time>2011-07-14T08:57:52Z</time>
      </trkpt>
      <trkpt lat="45.68512" lon="-0.44303">
        <ele>7</ele>
        <time>2011-07-14T08:58:09Z</time>
      </trkpt>
      <trkpt lat="45.68508" lon="-0.44483">
        <ele>5</ele>
        <time>2011-07-14T08:58:26Z</time>
      </trkpt>
      <trkpt lat="45.68507" lon="-0.44505">
        <ele>5</ele>
        <time>2011-07-14T08:58:28Z</time>
      </trkpt>
      <trkpt lat="45.68506" lon="-0.44569">
        <ele>5</ele>
        <time>2011-07-14T08:58:34Z</time>
      </trkpt>
      <trkpt lat="45.68507" lon="-0.44691">
        <ele>5</ele>
        <time>2011-07-14T08:58:46Z</time>
      </trkpt>
      <trkpt lat="45.685" lon="-0.44876">
        <ele>4</ele>
        <time>2011-07-14T08:59:04Z</time>
      </trkpt>
      <trkpt lat="45.68502" lon="-0.45072">
        <ele>5</ele>
        <time>2011-07-14T08:59:23Z</time>
      </trkpt>
      <trkpt lat="45.68526" lon="-0.45256">
        <ele>5</ele>
        <time>2011-07-14T08:59:41Z</time>
      </trkpt>
      <trkpt lat="45.68563" lon="-0.45492">
        <ele>6</ele>
        <time>2011-07-14T09:00:04Z</time>
      </trkpt>
      <trkpt lat="45.68578" lon="-0.45561">
        <ele>6</ele>
        <time>2011-07-14T09:00:12Z</time>
      </trkpt>
      <trkpt lat="45.68604" lon="-0.45681">
        <ele>5</ele>
        <time>2011-07-14T09:00:23Z</time>
      </trkpt>
      <trkpt lat="45.68614" lon="-0.45734">
        <ele>5</ele>
        <time>2011-07-14T09:00:28Z</time>
      </trkpt>
      <trkpt lat="45.68639" lon="-0.45847">
        <ele>5</ele>
        <time>2011-07-14T09:00:39Z</time>
      </trkpt>
      <trkpt lat="45.68707" lon="-0.46062">
        <ele>5</ele>
        <time>2011-07-14T09:01:01Z</time>
      </trkpt>
      <trkpt lat="45.68779" lon="-0.46223">
        <ele>5</ele>
        <time>2011-07-14T09:01:19Z</time>
      </trkpt>
      <trkpt lat="45.68838" lon="-0.46352">
        <ele>6</ele>
        <time>2011-07-14T09:01:34Z</time>
      </trkpt>
      <trkpt lat="45.68842" lon="-0.4636">
        <ele>6</ele>
        <time>2011-07-14T09:01:35Z</time>
      </trkpt>
      <trkpt lat="45.68847" lon="-0.46392">
        <ele>6</ele>
        <time>2011-07-14T09:01:38Z</time>
      </trkpt>
      <trkpt lat="45.68864" lon="-0.4649">
        <ele>6</ele>
        <time>2011-07-14T09:01:47Z</time>
      </trkpt>
      <trkpt lat="45.6892" lon="-0.46615">
        <ele>6</ele>
        <time>2011-07-14T09:02:00Z</time>
      </trkpt>
      <trkpt lat="45.68973" lon="-0.46696">
        <ele>6</ele>
        <time>2011-07-14T09:02:10Z</time>
      </trkpt>
      <trkpt lat="45.68993" lon="-0.46746">
        <ele>6</ele>
        <time>2011-07-14T09:02:15Z</time>
      </trkpt>
      <trkpt lat="45.69047" lon="-0.46939">
        <ele>5</ele>
        <time>2011-07-14T09:02:34Z</time>
      </trkpt>
      <trkpt lat="45.69116" lon="-0.47121">
        <ele>4</ele>
        <time>2011-07-14T09:02:55Z</time>
      </trkpt>
      <trkpt lat="45.6919" lon="-0.4725">
        <ele>5</ele>
        <time>2011-07-14T09:03:11Z</time>
      </trkpt>
      <trkpt lat="45.69241" lon="-0.47366">
        <ele>4</ele>
        <time>2011-07-14T09:03:24Z</time>
      </trkpt>
      <trkpt lat="45.69275" lon="-0.47446">
        <ele>5</ele>
        <time>2011-07-14T09:03:33Z</time>
      </trkpt>
      <trkpt lat="45.69347" lon="-0.47545">
        <ele>5</ele>
        <time>2011-07-14T09:03:47Z</time>
      </trkpt>
      <trkpt lat="45.69395" lon="-0.47587">
        <ele>5</ele>
        <time>2011-07-14T09:03:55Z</time>
      </trkpt>
      <trkpt lat="45.6945" lon="-0.47686">
        <ele>7</ele>
        <time>2011-07-14T09:04:09Z</time>
      </trkpt>
      <trkpt lat="45.69512" lon="-0.47841">
        <ele>5</ele>
        <time>2011-07-14T09:04:28Z</time>
      </trkpt>
      <trkpt lat="45.69567" lon="-0.47931">
        <ele>5</ele>
        <time>2011-07-14T09:04:41Z</time>
      </trkpt>
      <trkpt lat="45.69613" lon="-0.48017">
        <ele>6</ele>
        <time>2011-07-14T09:04:52Z</time>
      </trkpt>
      <trkpt lat="45.69663" lon="-0.48181">
        <ele>4</ele>
        <time>2011-07-14T09:05:09Z</time>
      </trkpt>
      <trkpt lat="45.69741" lon="-0.4839">
        <ele>6</ele>
        <time>2011-07-14T09:05:32Z</time>
      </trkpt>
      <trkpt lat="45.69768" lon="-0.48521">
        <ele>6</ele>
        <time>2011-07-14T09:05:46Z</time>
      </trkpt>
      <trkpt lat="45.69768" lon="-0.4857">
        <ele>6</ele>
        <time>2011-07-14T09:05:51Z</time>
      </trkpt>
      <trkpt lat="45.69773" lon="-0.48621">
        <ele>7</ele>
        <time>2011-07-14T09:05:56Z</time>
      </trkpt>
      <trkpt lat="45.69784" lon="-0.48657">
        <ele>7</ele>
        <time>2011-07-14T09:06:00Z</time>
      </trkpt>
      <trkpt lat="45.69854" lon="-0.48777">
        <ele>7</ele>
        <time>2011-07-14T09:06:16Z</time>
      </trkpt>
      <trkpt lat="45.69925" lon="-0.4896">
        <ele>7</ele>
        <time>2011-07-14T09:06:37Z</time>
      </trkpt>
      <trkpt lat="45.69991" lon="-0.49132">
        <ele>6</ele>
        <time>2011-07-14T09:06:56Z</time>
      </trkpt>
      <trkpt lat="45.69995" lon="-0.49141">
        <ele>6</ele>
        <time>2011-07-14T09:06:57Z</time>
      </trkpt>
      <trkpt lat="45.70054" lon="-0.49271">
        <ele>6</ele>
        <time>2011-07-14T09:07:13Z</time>
      </trkpt>
      <trkpt lat="45.7012" lon="-0.49441">
        <ele>8</ele>
        <time>2011-07-14T09:07:34Z</time>
      </trkpt>
      <trkpt lat="45.70185" lon="-0.49584">
        <ele>6</ele>
        <time>2011-07-14T09:07:52Z</time>
      </trkpt>
      <trkpt lat="45.70235" lon="-0.49718">
        <ele>7</ele>
        <time>2011-07-14T09:08:08Z</time>
      </trkpt>
      <trkpt lat="45.70282" lon="-0.49907">
        <ele>7</ele>
        <time>2011-07-14T09:08:29Z</time>
      </trkpt>
      <trkpt lat="45.70285" lon="-0.49936">
        <ele>6</ele>
        <time>2011-07-14T09:08:33Z</time>
      </trkpt>
      <trkpt lat="45.70306" lon="-0.5001">
        <ele>6</ele>
        <time>2011-07-14T09:08:41Z</time>
      </trkpt>
      <trkpt lat="45.70317" lon="-0.50048">
        <ele>6</ele>
        <time>2011-07-14T09:08:45Z</time>
      </trkpt>
      <trkpt lat="45.70364" lon="-0.50179">
        <ele>6</ele>
        <time>2011-07-14T09:08:58Z</time>
      </trkpt>
      <trkpt lat="45.70433" lon="-0.50383">
        <ele>7</ele>
        <time>2011-07-14T09:09:20Z</time>
      </trkpt>
      <trkpt lat="45.7048" lon="-0.50529">
        <ele>6</ele>
        <time>2011-07-14T09:09:36Z</time>
      </trkpt>
      <trkpt lat="45.70514" lon="-0.50655">
        <ele>6</ele>
        <time>2011-07-14T09:09:49Z</time>
      </trkpt>
      <trkpt lat="45.70563" lon="-0.50829">
        <ele>6</ele>
        <time>2011-07-14T09:10:07Z</time>
      </trkpt>
      <trkpt lat="45.70595" lon="-0.50948">
        <ele>8</ele>
        <time>2011-07-14T09:10:20Z</time>
      </trkpt>
      <trkpt lat="45.7062" lon="-0.51119">
        <ele>6</ele>
        <time>2011-07-14T09:10:38Z</time>
      </trkpt>
      <trkpt lat="45.70641" lon="-0.51261">
        <ele>5</ele>
        <time>2011-07-14T09:10:53Z</time>
      </trkpt>
      <trkpt lat="45.70661" lon="-0.51436">
        <ele>3</ele>
        <time>2011-07-14T09:11:11Z</time>
      </trkpt>
      <trkpt lat="45.70681" lon="-0.51616">
        <ele>8</ele>
        <time>2011-07-14T09:11:29Z</time>
      </trkpt>
      <trkpt lat="45.70695" lon="-0.51763">
        <ele>8</ele>
        <time>2011-07-14T09:11:44Z</time>
      </trkpt>
      <trkpt lat="45.70736" lon="-0.5195">
        <ele>7</ele>
        <time>2011-07-14T09:12:04Z</time>
      </trkpt>
      <trkpt lat="45.70746" lon="-0.52005">
        <ele>7</ele>
        <time>2011-07-14T09:12:10Z</time>
      </trkpt>
      <trkpt lat="45.70778" lon="-0.52174">
        <ele>8</ele>
        <time>2011-07-14T09:12:29Z</time>
      </trkpt>
      <trkpt lat="45.70787" lon="-0.52244">
        <ele>8</ele>
        <time>2011-07-14T09:12:36Z</time>
      </trkpt>
      <trkpt lat="45.7079" lon="-0.52292">
        <ele>7</ele>
        <time>2011-07-14T09:12:41Z</time>
      </trkpt>
      <trkpt lat="45.7079" lon="-0.52329">
        <ele>6</ele>
        <time>2011-07-14T09:12:45Z</time>
      </trkpt>
      <trkpt lat="45.70792" lon="-0.52358">
        <ele>5</ele>
        <time>2011-07-14T09:12:48Z</time>
      </trkpt>
      <trkpt lat="45.70792" lon="-0.52387">
        <ele>5</ele>
        <time>2011-07-14T09:12:51Z</time>
      </trkpt>
      <trkpt lat="45.70795" lon="-0.52454">
        <ele>5</ele>
        <time>2011-07-14T09:12:58Z</time>
      </trkpt>
      <trkpt lat="45.70793" lon="-0.52483">
        <ele>5</ele>
        <time>2011-07-14T09:13:01Z</time>
      </trkpt>
      <trkpt lat="45.70798" lon="-0.52662">
        <ele>5</ele>
        <time>2011-07-14T09:13:19Z</time>
      </trkpt>
      <trkpt lat="45.70804" lon="-0.52804">
        <ele>7</ele>
        <time>2011-07-14T09:13:35Z</time>
      </trkpt>
      <trkpt lat="45.70808" lon="-0.52872">
        <ele>7</ele>
        <time>2011-07-14T09:13:43Z</time>
      </trkpt>
      <trkpt lat="45.7083" lon="-0.52967">
        <ele>7</ele>
        <time>2011-07-14T09:13:54Z</time>
      </trkpt>
      <trkpt lat="45.709" lon="-0.53042">
        <ele>8</ele>
        <time>2011-07-14T09:14:08Z</time>
      </trkpt>
      <trkpt lat="45.70985" lon="-0.53129">
        <ele>8</ele>
        <time>2011-07-14T09:14:28Z</time>
      </trkpt>
      <trkpt lat="45.71041" lon="-0.53227">
        <ele>9</ele>
        <time>2011-07-14T09:14:45Z</time>
      </trkpt>
      <trkpt lat="45.71094" lon="-0.53376">
        <ele>12</ele>
        <time>2011-07-14T09:15:05Z</time>
      </trkpt>
      <trkpt lat="45.71129" lon="-0.53478">
        <ele>10</ele>
        <time>2011-07-14T09:15:17Z</time>
      </trkpt>
      <trkpt lat="45.71144" lon="-0.53507">
        <ele>9</ele>
        <time>2011-07-14T09:15:25Z</time>
      </trkpt>
      <trkpt lat="45.71144" lon="-0.53506">
        <ele>9</ele>
        <time>2011-07-14T09:15:47Z</time>
      </trkpt>
      <trkpt lat="45.71144" lon="-0.53507">
        <ele>9</ele>
        <time>2011-07-14T09:17:21Z</time>
      </trkpt>
      <trkpt lat="45.71147" lon="-0.53523">
        <ele>8</ele>
        <time>2011-07-14T09:17:25Z</time>
      </trkpt>
      <trkpt lat="45.7115" lon="-0.5354">
        <ele>8</ele>
        <time>2011-07-14T09:17:28Z</time>
      </trkpt>
      <trkpt lat="45.71191" lon="-0.5366">
        <ele>6</ele>
        <time>2011-07-14T09:17:42Z</time>
      </trkpt>
      <trkpt lat="45.71255" lon="-0.5386">
        <ele>13</ele>
        <time>2011-07-14T09:18:04Z</time>
      </trkpt>
      <trkpt lat="45.71306" lon="-0.54044">
        <ele>14</ele>
        <time>2011-07-14T09:18:24Z</time>
      </trkpt>
      <trkpt lat="45.7136" lon="-0.5426">
        <ele>12</ele>
        <time>2011-07-14T09:18:48Z</time>
      </trkpt>
      <trkpt lat="45.71408" lon="-0.5448">
        <ele>11</ele>
        <time>2011-07-14T09:19:14Z</time>
      </trkpt>
      <trkpt lat="45.71454" lon="-0.54679">
        <ele>11</ele>
        <time>2011-07-14T09:19:35Z</time>
      </trkpt>
      <trkpt lat="45.71511" lon="-0.54932">
        <ele>10</ele>
        <time>2011-07-14T09:19:59Z</time>
      </trkpt>
      <trkpt lat="45.7156" lon="-0.55148">
        <ele>8</ele>
        <time>2011-07-14T09:20:18Z</time>
      </trkpt>
      <trkpt lat="45.71616" lon="-0.5531">
        <ele>10</ele>
        <time>2011-07-14T09:20:34Z</time>
      </trkpt>
      <trkpt lat="45.71673" lon="-0.55419">
        <ele>12</ele>
        <time>2011-07-14T09:20:51Z</time>
      </trkpt>
      <trkpt lat="45.71754" lon="-0.55555">
        <ele>13</ele>
        <time>2011-07-14T09:21:12Z</time>
      </trkpt>
      <trkpt lat="45.71789" lon="-0.55648">
        <ele>12</ele>
        <time>2011-07-14T09:21:24Z</time>
      </trkpt>
      <trkpt lat="45.71806" lon="-0.55698">
        <ele>12</ele>
        <time>2011-07-14T09:21:32Z</time>
      </trkpt>
      <trkpt lat="45.71818" lon="-0.55733">
        <ele>12</ele>
        <time>2011-07-14T09:21:44Z</time>
      </trkpt>
      <trkpt lat="45.71821" lon="-0.55766">
        <ele>11</ele>
        <time>2011-07-14T09:22:15Z</time>
      </trkpt>
      <trkpt lat="45.71819" lon="-0.55778">
        <ele>11</ele>
        <time>2011-07-14T09:22:17Z</time>
      </trkpt>
      <trkpt lat="45.71818" lon="-0.55816">
        <ele>11</ele>
        <time>2011-07-14T09:22:22Z</time>
      </trkpt>
      <trkpt lat="45.71824" lon="-0.55848">
        <ele>10</ele>
        <time>2011-07-14T09:22:26Z</time>
      </trkpt>
      <trkpt lat="45.71872" lon="-0.55992">
        <ele>10</ele>
        <time>2011-07-14T09:22:43Z</time>
      </trkpt>
      <trkpt lat="45.71904" lon="-0.56091">
        <ele>9</ele>
        <time>2011-07-14T09:22:54Z</time>
      </trkpt>
      <trkpt lat="45.71961" lon="-0.5625">
        <ele>9</ele>
        <time>2011-07-14T09:23:11Z</time>
      </trkpt>
      <trkpt lat="45.71979" lon="-0.56294">
        <ele>8</ele>
        <time>2011-07-14T09:23:16Z</time>
      </trkpt>
      <trkpt lat="45.72066" lon="-0.56481">
        <ele>9</ele>
        <time>2011-07-14T09:23:38Z</time>
      </trkpt>
      <trkpt lat="45.72137" lon="-0.56601">
        <ele>11</ele>
        <time>2011-07-14T09:23:57Z</time>
      </trkpt>
      <trkpt lat="45.72216" lon="-0.56715">
        <ele>14</ele>
        <time>2011-07-14T09:24:18Z</time>
      </trkpt>
      <trkpt lat="45.72239" lon="-0.56745">
        <ele>15</ele>
        <time>2011-07-14T09:24:24Z</time>
      </trkpt>
      <trkpt lat="45.72247" lon="-0.56754">
        <ele>15</ele>
        <time>2011-07-14T09:24:26Z</time>
      </trkpt>
      <trkpt lat="45.7226" lon="-0.56763">
        <ele>17</ele>
        <time>2011-07-14T09:24:29Z</time>
      </trkpt>
      <trkpt lat="45.72271" lon="-0.56786">
        <ele>18</ele>
        <time>2011-07-14T09:24:34Z</time>
      </trkpt>
      <trkpt lat="45.72271" lon="-0.56799">
        <ele>18</ele>
        <time>2011-07-14T09:24:36Z</time>
      </trkpt>
      <trkpt lat="45.72308" lon="-0.56933">
        <ele>15</ele>
        <time>2011-07-14T09:24:53Z</time>
      </trkpt>
      <trkpt lat="45.72357" lon="-0.57053">
        <ele>17</ele>
        <time>2011-07-14T09:25:09Z</time>
      </trkpt>
      <trkpt lat="45.72428" lon="-0.57176">
        <ele>17</ele>
        <time>2011-07-14T09:25:28Z</time>
      </trkpt>
      <trkpt lat="45.72457" lon="-0.57227">
        <ele>17</ele>
        <time>2011-07-14T09:25:35Z</time>
      </trkpt>
      <trkpt lat="45.72535" lon="-0.57419">
        <ele>16</ele>
        <time>2011-07-14T09:25:57Z</time>
      </trkpt>
      <trkpt lat="45.72586" lon="-0.57581">
        <ele>15</ele>
        <time>2011-07-14T09:26:14Z</time>
      </trkpt>
      <trkpt lat="45.72638" lon="-0.57798">
        <ele>10</ele>
        <time>2011-07-14T09:26:34Z</time>
      </trkpt>
      <trkpt lat="45.72712" lon="-0.5803">
        <ele>13</ele>
        <time>2011-07-14T09:26:57Z</time>
      </trkpt>
      <trkpt lat="45.72744" lon="-0.58197">
        <ele>7</ele>
        <time>2011-07-14T09:27:13Z</time>
      </trkpt>
      <trkpt lat="45.72741" lon="-0.58358">
        <ele>7</ele>
        <time>2011-07-14T09:27:28Z</time>
      </trkpt>
      <trkpt lat="45.72774" lon="-0.58502">
        <ele>8</ele>
        <time>2011-07-14T09:27:42Z</time>
      </trkpt>
      <trkpt lat="45.72829" lon="-0.58671">
        <ele>9</ele>
        <time>2011-07-14T09:28:00Z</time>
      </trkpt>
      <trkpt lat="45.7285" lon="-0.58728">
        <ele>7</ele>
        <time>2011-07-14T09:28:07Z</time>
      </trkpt>
      <trkpt lat="45.72906" lon="-0.58881">
        <ele>6</ele>
        <time>2011-07-14T09:28:25Z</time>
      </trkpt>
      <trkpt lat="45.72917" lon="-0.58915">
        <ele>7</ele>
        <time>2011-07-14T09:28:29Z</time>
      </trkpt>
      <trkpt lat="45.72921" lon="-0.58962">
        <ele>10</ele>
        <time>2011-07-14T09:28:35Z</time>
      </trkpt>
      <trkpt lat="45.72917" lon="-0.5899">
        <ele>10</ele>
        <time>2011-07-14T09:28:39Z</time>
      </trkpt>
      <trkpt lat="45.72919" lon="-0.59022">
        <ele>11</ele>
        <time>2011-07-14T09:28:43Z</time>
      </trkpt>
      <trkpt lat="45.72954" lon="-0.59194">
        <ele>11</ele>
        <time>2011-07-14T09:29:02Z</time>
      </trkpt>
      <trkpt lat="45.72998" lon="-0.59411">
        <ele>10</ele>
        <time>2011-07-14T09:29:24Z</time>
      </trkpt>
      <trkpt lat="45.73034" lon="-0.59593">
        <ele>10</ele>
        <time>2011-07-14T09:29:43Z</time>
      </trkpt>
      <trkpt lat="45.73038" lon="-0.59611">
        <ele>10</ele>
        <time>2011-07-14T09:29:45Z</time>
      </trkpt>
      <trkpt lat="45.73067" lon="-0.59783">
        <ele>8</ele>
        <time>2011-07-14T09:30:03Z</time>
      </trkpt>
      <trkpt lat="45.73096" lon="-0.59982">
        <ele>13</ele>
        <time>2011-07-14T09:30:24Z</time>
      </trkpt>
      <trkpt lat="45.73124" lon="-0.60184">
        <ele>9</ele>
        <time>2011-07-14T09:30:45Z</time>
      </trkpt>
      <trkpt lat="45.73145" lon="-0.60374">
        <ele>9</ele>
        <time>2011-07-14T09:31:05Z</time>
      </trkpt>
      <trkpt lat="45.73152" lon="-0.6045">
        <ele>10</ele>
        <time>2011-07-14T09:31:15Z</time>
      </trkpt>
      <trkpt lat="45.73155" lon="-0.60469">
        <ele>10</ele>
        <time>2011-07-14T09:31:18Z</time>
      </trkpt>
      <trkpt lat="45.73157" lon="-0.60542">
        <ele>11</ele>
        <time>2011-07-14T09:31:31Z</time>
      </trkpt>
      <trkpt lat="45.73159" lon="-0.60598">
        <ele>12</ele>
        <time>2011-07-14T09:31:41Z</time>
      </trkpt>
      <trkpt lat="45.73165" lon="-0.60619">
        <ele>11</ele>
        <time>2011-07-14T09:31:45Z</time>
      </trkpt>
      <trkpt lat="45.73196" lon="-0.60697">
        <ele>19</ele>
        <time>2011-07-14T09:32:02Z</time>
      </trkpt>
      <trkpt lat="45.73234" lon="-0.60762">
        <ele>23</ele>
        <time>2011-07-14T09:32:19Z</time>
      </trkpt>
      <trkpt lat="45.73266" lon="-0.60849">
        <ele>26</ele>
        <time>2011-07-14T09:32:38Z</time>
      </trkpt>
      <trkpt lat="45.7328" lon="-0.60889">
        <ele>26</ele>
        <time>2011-07-14T09:32:45Z</time>
      </trkpt>
      <trkpt lat="45.73285" lon="-0.609">
        <ele>26</ele>
        <time>2011-07-14T09:32:47Z</time>
      </trkpt>
      <trkpt lat="45.73339" lon="-0.60976">
        <ele>26</ele>
        <time>2011-07-14T09:33:03Z</time>
      </trkpt>
      <trkpt lat="45.73353" lon="-0.60993">
        <ele>26</ele>
        <time>2011-07-14T09:33:06Z</time>
      </trkpt>
      <trkpt lat="45.73375" lon="-0.61034">
        <ele>25</ele>
        <time>2011-07-14T09:33:12Z</time>
      </trkpt>
      <trkpt lat="45.73396" lon="-0.61061">
        <ele>25</ele>
        <time>2011-07-14T09:33:16Z</time>
      </trkpt>
      <trkpt lat="45.73412" lon="-0.61086">
        <ele>24</ele>
        <time>2011-07-14T09:33:19Z</time>
      </trkpt>
      <trkpt lat="45.73433" lon="-0.61112">
        <ele>23</ele>
        <time>2011-07-14T09:33:23Z</time>
      </trkpt>
      <trkpt lat="45.73462" lon="-0.61123">
        <ele>22</ele>
        <time>2011-07-14T09:33:28Z</time>
      </trkpt>
      <trkpt lat="45.73474" lon="-0.61135">
        <ele>22</ele>
        <time>2011-07-14T09:33:31Z</time>
      </trkpt>
      <trkpt lat="45.73513" lon="-0.61164">
        <ele>22</ele>
        <time>2011-07-14T09:33:39Z</time>
      </trkpt>
      <trkpt lat="45.73573" lon="-0.61263">
        <ele>21</ele>
        <time>2011-07-14T09:33:54Z</time>
      </trkpt>
      <trkpt lat="45.73651" lon="-0.61416">
        <ele>18</ele>
        <time>2011-07-14T09:34:13Z</time>
      </trkpt>
      <trkpt lat="45.73659" lon="-0.61434">
        <ele>18</ele>
        <time>2011-07-14T09:34:21Z</time>
      </trkpt>
      <trkpt lat="45.73672" lon="-0.61458">
        <ele>17</ele>
        <time>2011-07-14T09:34:32Z</time>
      </trkpt>
      <trkpt lat="45.73732" lon="-0.61548">
        <ele>16</ele>
        <time>2011-07-14T09:34:48Z</time>
      </trkpt>
      <trkpt lat="45.73772" lon="-0.61611">
        <ele>14</ele>
        <time>2011-07-14T09:34:58Z</time>
      </trkpt>
      <trkpt lat="45.73789" lon="-0.61637">
        <ele>14</ele>
        <time>2011-07-14T09:35:07Z</time>
      </trkpt>
      <trkpt lat="45.73817" lon="-0.61681">
        <ele>13</ele>
        <time>2011-07-14T09:35:16Z</time>
      </trkpt>
      <trkpt lat="45.73906" lon="-0.61794">
        <ele>14</ele>
        <time>2011-07-14T09:35:34Z</time>
      </trkpt>
      <trkpt lat="45.73979" lon="-0.61918">
        <ele>12</ele>
        <time>2011-07-14T09:35:51Z</time>
      </trkpt>
      <trkpt lat="45.73982" lon="-0.61926">
        <ele>12</ele>
        <time>2011-07-14T09:35:52Z</time>
      </trkpt>
      <trkpt lat="45.74039" lon="-0.62091">
        <ele>9</ele>
        <time>2011-07-14T09:36:11Z</time>
      </trkpt>
      <trkpt lat="45.74049" lon="-0.62116">
        <ele>9</ele>
        <time>2011-07-14T09:36:14Z</time>
      </trkpt>
      <trkpt lat="45.74092" lon="-0.62213">
        <ele>9</ele>
        <time>2011-07-14T09:36:26Z</time>
      </trkpt>
      <trkpt lat="45.74102" lon="-0.62226">
        <ele>9</ele>
        <time>2011-07-14T09:36:30Z</time>
      </trkpt>
      <trkpt lat="45.74095" lon="-0.62246">
        <ele>8</ele>
        <time>2011-07-14T09:36:35Z</time>
      </trkpt>
      <trkpt lat="45.7408" lon="-0.62271">
        <ele>8</ele>
        <time>2011-07-14T09:36:40Z</time>
      </trkpt>
      <trkpt lat="45.74073" lon="-0.6231">
        <ele>8</ele>
        <time>2011-07-14T09:36:45Z</time>
      </trkpt>
      <trkpt lat="45.74076" lon="-0.62518">
        <ele>7</ele>
        <time>2011-07-14T09:37:06Z</time>
      </trkpt>
      <trkpt lat="45.74078" lon="-0.62642">
        <ele>8</ele>
        <time>2011-07-14T09:37:19Z</time>
      </trkpt>
      <trkpt lat="45.74083" lon="-0.62671">
        <ele>9</ele>
        <time>2011-07-14T09:37:23Z</time>
      </trkpt>
      <trkpt lat="45.74081" lon="-0.62696">
        <ele>9</ele>
        <time>2011-07-14T09:37:26Z</time>
      </trkpt>
      <trkpt lat="45.74081" lon="-0.62854">
        <ele>8</ele>
        <time>2011-07-14T09:37:43Z</time>
      </trkpt>
      <trkpt lat="45.74082" lon="-0.62882">
        <ele>8</ele>
        <time>2011-07-14T09:37:46Z</time>
      </trkpt>
      <trkpt lat="45.74083" lon="-0.63059">
        <ele>5</ele>
        <time>2011-07-14T09:38:03Z</time>
      </trkpt>
      <trkpt lat="45.74083" lon="-0.6307">
        <ele>5</ele>
        <time>2011-07-14T09:38:04Z</time>
      </trkpt>
      <trkpt lat="45.74086" lon="-0.63213">
        <ele>4</ele>
        <time>2011-07-14T09:38:18Z</time>
      </trkpt>
      <trkpt lat="45.74103" lon="-0.6342">
        <ele>5</ele>
        <time>2011-07-14T09:38:38Z</time>
      </trkpt>
      <trkpt lat="45.74152" lon="-0.63597">
        <ele>6</ele>
        <time>2011-07-14T09:38:57Z</time>
      </trkpt>
      <trkpt lat="45.74193" lon="-0.6372">
        <ele>8</ele>
        <time>2011-07-14T09:39:13Z</time>
      </trkpt>
      <trkpt lat="45.74196" lon="-0.63749">
        <ele>8</ele>
        <time>2011-07-14T09:39:16Z</time>
      </trkpt>
      <trkpt lat="45.7418" lon="-0.63851">
        <ele>11</ele>
        <time>2011-07-14T09:39:26Z</time>
      </trkpt>
      <trkpt lat="45.74176" lon="-0.63901">
        <ele>11</ele>
        <time>2011-07-14T09:39:31Z</time>
      </trkpt>
      <trkpt lat="45.74172" lon="-0.63921">
        <ele>11</ele>
        <time>2011-07-14T09:39:33Z</time>
      </trkpt>
      <trkpt lat="45.74161" lon="-0.6407">
        <ele>13</ele>
        <time>2011-07-14T09:39:49Z</time>
      </trkpt>
      <trkpt lat="45.74176" lon="-0.64189">
        <ele>12</ele>
        <time>2011-07-14T09:40:03Z</time>
      </trkpt>
      <trkpt lat="45.74193" lon="-0.64335">
        <ele>14</ele>
        <time>2011-07-14T09:40:21Z</time>
      </trkpt>
      <trkpt lat="45.74203" lon="-0.64457">
        <ele>15</ele>
        <time>2011-07-14T09:40:35Z</time>
      </trkpt>
      <trkpt lat="45.742" lon="-0.64611">
        <ele>15</ele>
        <time>2011-07-14T09:40:52Z</time>
      </trkpt>
      <trkpt lat="45.74194" lon="-0.64678">
        <ele>16</ele>
        <time>2011-07-14T09:41:00Z</time>
      </trkpt>
      <trkpt lat="45.74163" lon="-0.64836">
        <ele>13</ele>
        <time>2011-07-14T09:41:19Z</time>
      </trkpt>
      <trkpt lat="45.74113" lon="-0.64989">
        <ele>15</ele>
        <time>2011-07-14T09:41:37Z</time>
      </trkpt>
      <trkpt lat="45.74102" lon="-0.6502">
        <ele>15</ele>
        <time>2011-07-14T09:41:41Z</time>
      </trkpt>
      <trkpt lat="45.74094" lon="-0.65041">
        <ele>14</ele>
        <time>2011-07-14T09:41:44Z</time>
      </trkpt>
      <trkpt lat="45.74062" lon="-0.65138">
        <ele>16</ele>
        <time>2011-07-14T09:41:58Z</time>
      </trkpt>
      <trkpt lat="45.74047" lon="-0.65193">
        <ele>18</ele>
        <time>2011-07-14T09:42:09Z</time>
      </trkpt>
      <trkpt lat="45.74043" lon="-0.65211">
        <ele>18</ele>
        <time>2011-07-14T09:42:19Z</time>
      </trkpt>
      <trkpt lat="45.74022" lon="-0.65303">
        <ele>19</ele>
        <time>2011-07-14T09:42:33Z</time>
      </trkpt>
      <trkpt lat="45.74012" lon="-0.65443">
        <ele>20</ele>
        <time>2011-07-14T09:42:51Z</time>
      </trkpt>
      <trkpt lat="45.74018" lon="-0.65614">
        <ele>25</ele>
        <time>2011-07-14T09:43:13Z</time>
      </trkpt>
      <trkpt lat="45.74025" lon="-0.65766">
        <ele>28</ele>
        <time>2011-07-14T09:43:34Z</time>
      </trkpt>
      <trkpt lat="45.74031" lon="-0.65892">
        <ele>29</ele>
        <time>2011-07-14T09:43:53Z</time>
      </trkpt>
      <trkpt lat="45.74041" lon="-0.6592">
        <ele>29</ele>
        <time>2011-07-14T09:43:58Z</time>
      </trkpt>
      <trkpt lat="45.74048" lon="-0.65929">
        <ele>30</ele>
        <time>2011-07-14T09:44:00Z</time>
      </trkpt>
      <trkpt lat="45.74045" lon="-0.65993">
        <ele>30</ele>
        <time>2011-07-14T09:44:10Z</time>
      </trkpt>
      <trkpt lat="45.74038" lon="-0.66035">
        <ele>32</ele>
        <time>2011-07-14T09:44:17Z</time>
      </trkpt>
      <trkpt lat="45.74041" lon="-0.66088">
        <ele>34</ele>
        <time>2011-07-14T09:44:25Z</time>
      </trkpt>
      <trkpt lat="45.74044" lon="-0.66114">
        <ele>34</ele>
        <time>2011-07-14T09:44:29Z</time>
      </trkpt>
      <trkpt lat="45.74052" lon="-0.66137">
        <ele>34</ele>
        <time>2011-07-14T09:44:33Z</time>
      </trkpt>
      <trkpt lat="45.7406" lon="-0.66145">
        <ele>34</ele>
        <time>2011-07-14T09:44:35Z</time>
      </trkpt>
      <trkpt lat="45.74067" lon="-0.66205">
        <ele>35</ele>
        <time>2011-07-14T09:44:45Z</time>
      </trkpt>
      <trkpt lat="45.74059" lon="-0.6622">
        <ele>35</ele>
        <time>2011-07-14T09:44:48Z</time>
      </trkpt>
      <trkpt lat="45.74053" lon="-0.66246">
        <ele>36</ele>
        <time>2011-07-14T09:44:52Z</time>
      </trkpt>
      <trkpt lat="45.74057" lon="-0.6639">
        <ele>38</ele>
        <time>2011-07-14T09:45:14Z</time>
      </trkpt>
      <trkpt lat="45.74065" lon="-0.6656">
        <ele>42</ele>
        <time>2011-07-14T09:45:44Z</time>
      </trkpt>
      <trkpt lat="45.7407" lon="-0.66663">
        <ele>45</ele>
        <time>2011-07-14T09:46:03Z</time>
      </trkpt>
      <trkpt lat="45.74076" lon="-0.6679">
        <ele>46</ele>
        <time>2011-07-14T09:46:28Z</time>
      </trkpt>
      <trkpt lat="45.74082" lon="-0.66916">
        <ele>49</ele>
        <time>2011-07-14T09:46:52Z</time>
      </trkpt>
      <trkpt lat="45.74095" lon="-0.67026">
        <ele>53</ele>
        <time>2011-07-14T09:47:12Z</time>
      </trkpt>
      <trkpt lat="45.74097" lon="-0.67037">
        <ele>53</ele>
        <time>2011-07-14T09:47:14Z</time>
      </trkpt>
      <trkpt lat="45.74113" lon="-0.67085">
        <ele>56</ele>
        <time>2011-07-14T09:47:22Z</time>
      </trkpt>
      <trkpt lat="45.74178" lon="-0.67184">
        <ele>58</ele>
        <time>2011-07-14T09:47:41Z</time>
      </trkpt>
      <trkpt lat="45.74241" lon="-0.67231">
        <ele>60</ele>
        <time>2011-07-14T09:47:56Z</time>
      </trkpt>
      <trkpt lat="45.74311" lon="-0.67273">
        <ele>62</ele>
        <time>2011-07-14T09:48:12Z</time>
      </trkpt>
      <trkpt lat="45.74388" lon="-0.67315">
        <ele>63</ele>
        <time>2011-07-14T09:48:31Z</time>
      </trkpt>
      <trkpt lat="45.74436" lon="-0.67348">
        <ele>64</ele>
        <time>2011-07-14T09:48:45Z</time>
      </trkpt>
      <trkpt lat="45.74455" lon="-0.67367">
        <ele>63</ele>
        <time>2011-07-14T09:48:51Z</time>
      </trkpt>
      <trkpt lat="45.74517" lon="-0.67433">
        <ele>60</ele>
        <time>2011-07-14T09:49:07Z</time>
      </trkpt>
      <trkpt lat="45.74557" lon="-0.67438">
        <ele>59</ele>
        <time>2011-07-14T09:49:14Z</time>
      </trkpt>
      <trkpt lat="45.74572" lon="-0.6743">
        <ele>58</ele>
        <time>2011-07-14T09:49:17Z</time>
      </trkpt>
      <trkpt lat="45.746" lon="-0.67467">
        <ele>56</ele>
        <time>2011-07-14T09:49:24Z</time>
      </trkpt>
      <trkpt lat="45.74582" lon="-0.67504">
        <ele>58</ele>
        <time>2011-07-14T09:49:30Z</time>
      </trkpt>
      <trkpt lat="45.74575" lon="-0.67513">
        <ele>59</ele>
        <time>2011-07-14T09:49:32Z</time>
      </trkpt>
      <trkpt lat="45.74569" lon="-0.67541">
        <ele>60</ele>
        <time>2011-07-14T09:49:36Z</time>
      </trkpt>
      <trkpt lat="45.74569" lon="-0.67569">
        <ele>60</ele>
        <time>2011-07-14T09:49:45Z</time>
      </trkpt>
      <trkpt lat="45.74568" lon="-0.67565">
        <ele>60</ele>
        <time>2011-07-14T09:51:56Z</time>
      </trkpt>
      <trkpt lat="45.74569" lon="-0.67568">
        <ele>60</ele>
        <time>2011-07-14T09:52:10Z</time>
      </trkpt>
      <trkpt lat="45.74574" lon="-0.67573">
        <ele>60</ele>
        <time>2011-07-14T09:52:23Z</time>
      </trkpt>
      <trkpt lat="45.74576" lon="-0.67574">
        <ele>60</ele>
        <time>2011-07-14T10:00:32Z</time>
      </trkpt>
      <trkpt lat="45.74578" lon="-0.67579">
        <ele>60</ele>
        <time>2011-07-14T10:00:43Z</time>
      </trkpt>
      <trkpt lat="45.74577" lon="-0.6763">
        <ele>62</ele>
        <time>2011-07-14T10:00:59Z</time>
      </trkpt>
      <trkpt lat="45.74576" lon="-0.67714">
        <ele>63</ele>
        <time>2011-07-14T10:01:15Z</time>
      </trkpt>
      <trkpt lat="45.74576" lon="-0.67778">
        <ele>64</ele>
        <time>2011-07-14T10:01:28Z</time>
      </trkpt>
      <trkpt lat="45.74571" lon="-0.67859">
        <ele>65</ele>
        <time>2011-07-14T10:01:44Z</time>
      </trkpt>
      <trkpt lat="45.74566" lon="-0.67923">
        <ele>67</ele>
        <time>2011-07-14T10:01:58Z</time>
      </trkpt>
      <trkpt lat="45.74563" lon="-0.67979">
        <ele>68</ele>
        <time>2011-07-14T10:02:13Z</time>
      </trkpt>
      <trkpt lat="45.7456" lon="-0.68041">
        <ele>71</ele>
        <time>2011-07-14T10:02:29Z</time>
      </trkpt>
      <trkpt lat="45.74558" lon="-0.68095">
        <ele>75</ele>
        <time>2011-07-14T10:02:42Z</time>
      </trkpt>
      <trkpt lat="45.74553" lon="-0.68195">
        <ele>79</ele>
        <time>2011-07-14T10:03:05Z</time>
      </trkpt>
      <trkpt lat="45.74551" lon="-0.68244">
        <ele>79</ele>
        <time>2011-07-14T10:03:16Z</time>
      </trkpt>
      <trkpt lat="45.74557" lon="-0.68329">
        <ele>78</ele>
        <time>2011-07-14T10:03:26Z</time>
      </trkpt>
      <trkpt lat="45.74574" lon="-0.6851">
        <ele>74</ele>
        <time>2011-07-14T10:03:42Z</time>
      </trkpt>
      <trkpt lat="45.74575" lon="-0.68521">
        <ele>74</ele>
        <time>2011-07-14T10:03:43Z</time>
      </trkpt>
      <trkpt lat="45.74566" lon="-0.6857">
        <ele>73</ele>
        <time>2011-07-14T10:03:48Z</time>
      </trkpt>
      <trkpt lat="45.74578" lon="-0.68721">
        <ele>71</ele>
        <time>2011-07-14T10:04:02Z</time>
      </trkpt>
      <trkpt lat="45.74591" lon="-0.68859">
        <ele>71</ele>
        <time>2011-07-14T10:04:14Z</time>
      </trkpt>
      <trkpt lat="45.74615" lon="-0.69122">
        <ele>62</ele>
        <time>2011-07-14T10:04:35Z</time>
      </trkpt>
      <trkpt lat="45.74602" lon="-0.69166">
        <ele>61</ele>
        <time>2011-07-14T10:04:40Z</time>
      </trkpt>
      <trkpt lat="45.74607" lon="-0.69207">
        <ele>61</ele>
        <time>2011-07-14T10:04:45Z</time>
      </trkpt>
      <trkpt lat="45.74639" lon="-0.69336">
        <ele>59</ele>
        <time>2011-07-14T10:04:59Z</time>
      </trkpt>
      <trkpt lat="45.74659" lon="-0.69569">
        <ele>59</ele>
        <time>2011-07-14T10:05:21Z</time>
      </trkpt>
      <trkpt lat="45.74678" lon="-0.69775">
        <ele>60</ele>
        <time>2011-07-14T10:05:41Z</time>
      </trkpt>
      <trkpt lat="45.74694" lon="-0.69956">
        <ele>54</ele>
        <time>2011-07-14T10:05:58Z</time>
      </trkpt>
      <trkpt lat="45.74705" lon="-0.7021">
        <ele>50</ele>
        <time>2011-07-14T10:06:19Z</time>
      </trkpt>
      <trkpt lat="45.74683" lon="-0.70418">
        <ele>50</ele>
        <time>2011-07-14T10:06:39Z</time>
      </trkpt>
      <trkpt lat="45.74658" lon="-0.7061">
        <ele>52</ele>
        <time>2011-07-14T10:07:00Z</time>
      </trkpt>
      <trkpt lat="45.74629" lon="-0.70814">
        <ele>53</ele>
        <time>2011-07-14T10:07:25Z</time>
      </trkpt>
      <trkpt lat="45.74611" lon="-0.70951">
        <ele>51</ele>
        <time>2011-07-14T10:07:40Z</time>
      </trkpt>
      <trkpt lat="45.74587" lon="-0.71134">
        <ele>52</ele>
        <time>2011-07-14T10:07:56Z</time>
      </trkpt>
      <trkpt lat="45.74587" lon="-0.71144">
        <ele>52</ele>
        <time>2011-07-14T10:07:57Z</time>
      </trkpt>
      <trkpt lat="45.74588" lon="-0.71174">
        <ele>54</ele>
        <time>2011-07-14T10:08:01Z</time>
      </trkpt>
      <trkpt lat="45.7459" lon="-0.71208">
        <ele>55</ele>
        <time>2011-07-14T10:08:06Z</time>
      </trkpt>
      <trkpt lat="45.74591" lon="-0.71232">
        <ele>56</ele>
        <time>2011-07-14T10:08:10Z</time>
      </trkpt>
      <trkpt lat="45.74587" lon="-0.71261">
        <ele>57</ele>
        <time>2011-07-14T10:08:14Z</time>
      </trkpt>
      <trkpt lat="45.74571" lon="-0.71339">
        <ele>56</ele>
        <time>2011-07-14T10:08:23Z</time>
      </trkpt>
      <trkpt lat="45.74543" lon="-0.71459">
        <ele>54</ele>
        <time>2011-07-14T10:08:35Z</time>
      </trkpt>
      <trkpt lat="45.74517" lon="-0.71608">
        <ele>52</ele>
        <time>2011-07-14T10:08:51Z</time>
      </trkpt>
      <trkpt lat="45.7449" lon="-0.71818">
        <ele>47</ele>
        <time>2011-07-14T10:09:10Z</time>
      </trkpt>
      <trkpt lat="45.74455" lon="-0.72054">
        <ele>45</ele>
        <time>2011-07-14T10:09:31Z</time>
      </trkpt>
      <trkpt lat="45.74426" lon="-0.72254">
        <ele>45</ele>
        <time>2011-07-14T10:09:52Z</time>
      </trkpt>
      <trkpt lat="45.7439" lon="-0.72488">
        <ele>44</ele>
        <time>2011-07-14T10:10:14Z</time>
      </trkpt>
      <trkpt lat="45.74353" lon="-0.72658">
        <ele>43</ele>
        <time>2011-07-14T10:10:33Z</time>
      </trkpt>
      <trkpt lat="45.74292" lon="-0.72879">
        <ele>40</ele>
        <time>2011-07-14T10:10:53Z</time>
      </trkpt>
      <trkpt lat="45.74223" lon="-0.73129">
        <ele>40</ele>
        <time>2011-07-14T10:11:15Z</time>
      </trkpt>
      <trkpt lat="45.74183" lon="-0.73271">
        <ele>40</ele>
        <time>2011-07-14T10:11:31Z</time>
      </trkpt>
      <trkpt lat="45.74138" lon="-0.73432">
        <ele>38</ele>
        <time>2011-07-14T10:11:50Z</time>
      </trkpt>
      <trkpt lat="45.7409" lon="-0.73598">
        <ele>39</ele>
        <time>2011-07-14T10:12:06Z</time>
      </trkpt>
      <trkpt lat="45.74036" lon="-0.73703">
        <ele>41</ele>
        <time>2011-07-14T10:12:21Z</time>
      </trkpt>
      <trkpt lat="45.73979" lon="-0.73845">
        <ele>39</ele>
        <time>2011-07-14T10:12:39Z</time>
      </trkpt>
      <trkpt lat="45.7392" lon="-0.73992">
        <ele>36</ele>
        <time>2011-07-14T10:12:56Z</time>
      </trkpt>
      <trkpt lat="45.7389" lon="-0.74071">
        <ele>37</ele>
        <time>2011-07-14T10:13:04Z</time>
      </trkpt>
      <trkpt lat="45.73854" lon="-0.74169">
        <ele>37</ele>
        <time>2011-07-14T10:13:16Z</time>
      </trkpt>
      <trkpt lat="45.73815" lon="-0.74263">
        <ele>39</ele>
        <time>2011-07-14T10:13:29Z</time>
      </trkpt>
      <trkpt lat="45.73792" lon="-0.74331">
        <ele>41</ele>
        <time>2011-07-14T10:13:39Z</time>
      </trkpt>
      <trkpt lat="45.73777" lon="-0.74381">
        <ele>43</ele>
        <time>2011-07-14T10:13:46Z</time>
      </trkpt>
      <trkpt lat="45.73736" lon="-0.74523">
        <ele>43</ele>
        <time>2011-07-14T10:14:05Z</time>
      </trkpt>
      <trkpt lat="45.73673" lon="-0.74691">
        <ele>44</ele>
        <time>2011-07-14T10:14:26Z</time>
      </trkpt>
      <trkpt lat="45.73627" lon="-0.74811">
        <ele>43</ele>
        <time>2011-07-14T10:14:41Z</time>
      </trkpt>
      <trkpt lat="45.73556" lon="-0.75013">
        <ele>43</ele>
        <time>2011-07-14T10:15:03Z</time>
      </trkpt>
      <trkpt lat="45.73517" lon="-0.75155">
        <ele>40</ele>
        <time>2011-07-14T10:15:17Z</time>
      </trkpt>
      <trkpt lat="45.7351" lon="-0.75187">
        <ele>39</ele>
        <time>2011-07-14T10:15:20Z</time>
      </trkpt>
      <trkpt lat="45.73474" lon="-0.75339">
        <ele>35</ele>
        <time>2011-07-14T10:15:34Z</time>
      </trkpt>
      <trkpt lat="45.73421" lon="-0.75559">
        <ele>36</ele>
        <time>2011-07-14T10:15:55Z</time>
      </trkpt>
      <trkpt lat="45.73383" lon="-0.75762">
        <ele>33</ele>
        <time>2011-07-14T10:16:14Z</time>
      </trkpt>
      <trkpt lat="45.73345" lon="-0.75948">
        <ele>32</ele>
        <time>2011-07-14T10:16:30Z</time>
      </trkpt>
      <trkpt lat="45.73345" lon="-0.76081">
        <ele>31</ele>
        <time>2011-07-14T10:16:42Z</time>
      </trkpt>
      <trkpt lat="45.73339" lon="-0.76322">
        <ele>28</ele>
        <time>2011-07-14T10:17:03Z</time>
      </trkpt>
      <trkpt lat="45.73311" lon="-0.7649">
        <ele>26</ele>
        <time>2011-07-14T10:17:17Z</time>
      </trkpt>
      <trkpt lat="45.73293" lon="-0.7665">
        <ele>28</ele>
        <time>2011-07-14T10:17:34Z</time>
      </trkpt>
      <trkpt lat="45.73278" lon="-0.7682">
        <ele>29</ele>
        <time>2011-07-14T10:17:54Z</time>
      </trkpt>
      <trkpt lat="45.73286" lon="-0.76953">
        <ele>27</ele>
        <time>2011-07-14T10:18:08Z</time>
      </trkpt>
      <trkpt lat="45.73336" lon="-0.77133">
        <ele>26</ele>
        <time>2011-07-14T10:18:26Z</time>
      </trkpt>
      <trkpt lat="45.73406" lon="-0.77344">
        <ele>25</ele>
        <time>2011-07-14T10:18:48Z</time>
      </trkpt>
      <trkpt lat="45.73481" lon="-0.77575">
        <ele>25</ele>
        <time>2011-07-14T10:19:11Z</time>
      </trkpt>
      <trkpt lat="45.73529" lon="-0.77717">
        <ele>26</ele>
        <time>2011-07-14T10:19:28Z</time>
      </trkpt>
      <trkpt lat="45.7357" lon="-0.77839">
        <ele>31</ele>
        <time>2011-07-14T10:19:46Z</time>
      </trkpt>
      <trkpt lat="45.7363" lon="-0.7798">
        <ele>33</ele>
        <time>2011-07-14T10:20:08Z</time>
      </trkpt>
      <trkpt lat="45.73686" lon="-0.78114">
        <ele>31</ele>
        <time>2011-07-14T10:20:26Z</time>
      </trkpt>
      <trkpt lat="45.73716" lon="-0.78259">
        <ele>32</ele>
        <time>2011-07-14T10:20:42Z</time>
      </trkpt>
      <trkpt lat="45.73735" lon="-0.78407">
        <ele>35</ele>
        <time>2011-07-14T10:21:01Z</time>
      </trkpt>
      <trkpt lat="45.73747" lon="-0.785">
        <ele>35</ele>
        <time>2011-07-14T10:21:14Z</time>
      </trkpt>
      <trkpt lat="45.73762" lon="-0.78643">
        <ele>32</ele>
        <time>2011-07-14T10:21:29Z</time>
      </trkpt>
      <trkpt lat="45.73787" lon="-0.78877">
        <ele>34</ele>
        <time>2011-07-14T10:21:52Z</time>
      </trkpt>
      <trkpt lat="45.73804" lon="-0.79049">
        <ele>35</ele>
        <time>2011-07-14T10:22:13Z</time>
      </trkpt>
      <trkpt lat="45.73817" lon="-0.79245">
        <ele>33</ele>
        <time>2011-07-14T10:22:34Z</time>
      </trkpt>
      <trkpt lat="45.73827" lon="-0.79425">
        <ele>28</ele>
        <time>2011-07-14T10:22:49Z</time>
      </trkpt>
      <trkpt lat="45.73837" lon="-0.79601">
        <ele>28</ele>
        <time>2011-07-14T10:23:04Z</time>
      </trkpt>
      <trkpt lat="45.73848" lon="-0.79831">
        <ele>30</ele>
        <time>2011-07-14T10:23:26Z</time>
      </trkpt>
      <trkpt lat="45.73858" lon="-0.79999">
        <ele>29</ele>
        <time>2011-07-14T10:23:44Z</time>
      </trkpt>
      <trkpt lat="45.73867" lon="-0.80184">
        <ele>32</ele>
        <time>2011-07-14T10:24:05Z</time>
      </trkpt>
      <trkpt lat="45.73876" lon="-0.80366">
        <ele>32</ele>
        <time>2011-07-14T10:24:25Z</time>
      </trkpt>
      <trkpt lat="45.73904" lon="-0.806">
        <ele>37</ele>
        <time>2011-07-14T10:24:51Z</time>
      </trkpt>
      <trkpt lat="45.73949" lon="-0.80759">
        <ele>38</ele>
        <time>2011-07-14T10:25:11Z</time>
      </trkpt>
      <trkpt lat="45.74003" lon="-0.80928">
        <ele>37</ele>
        <time>2011-07-14T10:25:31Z</time>
      </trkpt>
      <trkpt lat="45.74041" lon="-0.81151">
        <ele>34</ele>
        <time>2011-07-14T10:25:53Z</time>
      </trkpt>
      <trkpt lat="45.74035" lon="-0.81298">
        <ele>33</ele>
        <time>2011-07-14T10:26:07Z</time>
      </trkpt>
      <trkpt lat="45.73992" lon="-0.8144">
        <ele>32</ele>
        <time>2011-07-14T10:26:22Z</time>
      </trkpt>
      <trkpt lat="45.73985" lon="-0.81486">
        <ele>32</ele>
        <time>2011-07-14T10:26:27Z</time>
      </trkpt>
      <trkpt lat="45.73968" lon="-0.81514">
        <ele>31</ele>
        <time>2011-07-14T10:26:31Z</time>
      </trkpt>
      <trkpt lat="45.7391" lon="-0.81691">
        <ele>27</ele>
        <time>2011-07-14T10:26:50Z</time>
      </trkpt>
      <trkpt lat="45.7386" lon="-0.81854">
        <ele>25</ele>
        <time>2011-07-14T10:27:07Z</time>
      </trkpt>
      <trkpt lat="45.73791" lon="-0.82076">
        <ele>25</ele>
        <time>2011-07-14T10:27:28Z</time>
      </trkpt>
      <trkpt lat="45.73774" lon="-0.82221">
        <ele>26</ele>
        <time>2011-07-14T10:27:42Z</time>
      </trkpt>
      <trkpt lat="45.73808" lon="-0.82357">
        <ele>27</ele>
        <time>2011-07-14T10:27:56Z</time>
      </trkpt>
      <trkpt lat="45.73865" lon="-0.82499">
        <ele>28</ele>
        <time>2011-07-14T10:28:13Z</time>
      </trkpt>
      <trkpt lat="45.73918" lon="-0.82646">
        <ele>28</ele>
        <time>2011-07-14T10:28:30Z</time>
      </trkpt>
      <trkpt lat="45.73927" lon="-0.82746">
        <ele>29</ele>
        <time>2011-07-14T10:28:43Z</time>
      </trkpt>
      <trkpt lat="45.73934" lon="-0.82909">
        <ele>32</ele>
        <time>2011-07-14T10:29:06Z</time>
      </trkpt>
      <trkpt lat="45.73956" lon="-0.83048">
        <ele>32</ele>
        <time>2011-07-14T10:29:22Z</time>
      </trkpt>
      <trkpt lat="45.73968" lon="-0.83082">
        <ele>32</ele>
        <time>2011-07-14T10:29:26Z</time>
      </trkpt>
      <trkpt lat="45.74063" lon="-0.83285">
        <ele>32</ele>
        <time>2011-07-14T10:29:52Z</time>
      </trkpt>
      <trkpt lat="45.74149" lon="-0.83469">
        <ele>32</ele>
        <time>2011-07-14T10:30:15Z</time>
      </trkpt>
      <trkpt lat="45.74194" lon="-0.83616">
        <ele>31</ele>
        <time>2011-07-14T10:30:31Z</time>
      </trkpt>
      <trkpt lat="45.74196" lon="-0.83624">
        <ele>31</ele>
        <time>2011-07-14T10:30:32Z</time>
      </trkpt>
      <trkpt lat="45.74198" lon="-0.83643">
        <ele>31</ele>
        <time>2011-07-14T10:30:34Z</time>
      </trkpt>
      <trkpt lat="45.74215" lon="-0.83795">
        <ele>28</ele>
        <time>2011-07-14T10:30:49Z</time>
      </trkpt>
      <trkpt lat="45.7423" lon="-0.83922">
        <ele>30</ele>
        <time>2011-07-14T10:31:05Z</time>
      </trkpt>
      <trkpt lat="45.74244" lon="-0.84031">
        <ele>30</ele>
        <time>2011-07-14T10:31:20Z</time>
      </trkpt>
      <trkpt lat="45.74261" lon="-0.84187">
        <ele>31</ele>
        <time>2011-07-14T10:31:38Z</time>
      </trkpt>
      <trkpt lat="45.74281" lon="-0.8435">
        <ele>32</ele>
        <time>2011-07-14T10:31:57Z</time>
      </trkpt>
      <trkpt lat="45.743" lon="-0.8454">
        <ele>32</ele>
        <time>2011-07-14T10:32:20Z</time>
      </trkpt>
      <trkpt lat="45.74303" lon="-0.84732">
        <ele>31</ele>
        <time>2011-07-14T10:32:41Z</time>
      </trkpt>
      <trkpt lat="45.743" lon="-0.8493">
        <ele>33</ele>
        <time>2011-07-14T10:33:01Z</time>
      </trkpt>
      <trkpt lat="45.74297" lon="-0.85106">
        <ele>34</ele>
        <time>2011-07-14T10:33:24Z</time>
      </trkpt>
      <trkpt lat="45.74294" lon="-0.85274">
        <ele>35</ele>
        <time>2011-07-14T10:33:46Z</time>
      </trkpt>
      <trkpt lat="45.74291" lon="-0.85435">
        <ele>35</ele>
        <time>2011-07-14T10:34:06Z</time>
      </trkpt>
      <trkpt lat="45.74288" lon="-0.856">
        <ele>36</ele>
        <time>2011-07-14T10:34:26Z</time>
      </trkpt>
      <trkpt lat="45.74284" lon="-0.85794">
        <ele>37</ele>
        <time>2011-07-14T10:34:48Z</time>
      </trkpt>
      <trkpt lat="45.7429" lon="-0.86">
        <ele>36</ele>
        <time>2011-07-14T10:35:10Z</time>
      </trkpt>
      <trkpt lat="45.74314" lon="-0.86127">
        <ele>36</ele>
        <time>2011-07-14T10:35:25Z</time>
      </trkpt>
      <trkpt lat="45.74372" lon="-0.86328">
        <ele>37</ele>
        <time>2011-07-14T10:35:48Z</time>
      </trkpt>
      <trkpt lat="45.74399" lon="-0.86421">
        <ele>35</ele>
        <time>2011-07-14T10:36:01Z</time>
      </trkpt>
      <trkpt lat="45.74437" lon="-0.86551">
        <ele>36</ele>
        <time>2011-07-14T10:36:18Z</time>
      </trkpt>
      <trkpt lat="45.74494" lon="-0.86749">
        <ele>35</ele>
        <time>2011-07-14T10:36:42Z</time>
      </trkpt>
      <trkpt lat="45.74515" lon="-0.86885">
        <ele>36</ele>
        <time>2011-07-14T10:36:56Z</time>
      </trkpt>
      <trkpt lat="45.74515" lon="-0.8706">
        <ele>37</ele>
        <time>2011-07-14T10:37:14Z</time>
      </trkpt>
      <trkpt lat="45.74513" lon="-0.87112">
        <ele>37</ele>
        <time>2011-07-14T10:37:20Z</time>
      </trkpt>
      <trkpt lat="45.74506" lon="-0.87253">
        <ele>37</ele>
        <time>2011-07-14T10:37:36Z</time>
      </trkpt>
      <trkpt lat="45.74498" lon="-0.87398">
        <ele>36</ele>
        <time>2011-07-14T10:37:52Z</time>
      </trkpt>
      <trkpt lat="45.74492" lon="-0.87545">
        <ele>36</ele>
        <time>2011-07-14T10:38:08Z</time>
      </trkpt>
      <trkpt lat="45.74487" lon="-0.87692">
        <ele>36</ele>
        <time>2011-07-14T10:38:24Z</time>
      </trkpt>
      <trkpt lat="45.74481" lon="-0.87834">
        <ele>33</ele>
        <time>2011-07-14T10:38:39Z</time>
      </trkpt>
      <trkpt lat="45.7449" lon="-0.88022">
        <ele>32</ele>
        <time>2011-07-14T10:38:57Z</time>
      </trkpt>
      <trkpt lat="45.74502" lon="-0.88199">
        <ele>31</ele>
        <time>2011-07-14T10:39:16Z</time>
      </trkpt>
      <trkpt lat="45.74503" lon="-0.88318">
        <ele>29</ele>
        <time>2011-07-14T10:39:27Z</time>
      </trkpt>
      <trkpt lat="45.74524" lon="-0.88385">
        <ele>28</ele>
        <time>2011-07-14T10:39:36Z</time>
      </trkpt>
      <trkpt lat="45.7455" lon="-0.8851">
        <ele>29</ele>
        <time>2011-07-14T10:39:54Z</time>
      </trkpt>
      <trkpt lat="45.74573" lon="-0.88676">
        <ele>30</ele>
        <time>2011-07-14T10:40:16Z</time>
      </trkpt>
      <trkpt lat="45.74591" lon="-0.88803">
        <ele>30</ele>
        <time>2011-07-14T10:40:32Z</time>
      </trkpt>
      <trkpt lat="45.74612" lon="-0.88992">
        <ele>30</ele>
        <time>2011-07-14T10:40:53Z</time>
      </trkpt>
      <trkpt lat="45.74634" lon="-0.89166">
        <ele>30</ele>
        <time>2011-07-14T10:41:13Z</time>
      </trkpt>
      <trkpt lat="45.74655" lon="-0.89339">
        <ele>30</ele>
        <time>2011-07-14T10:41:34Z</time>
      </trkpt>
      <trkpt lat="45.74677" lon="-0.89521">
        <ele>29</ele>
        <time>2011-07-14T10:41:56Z</time>
      </trkpt>
      <trkpt lat="45.747" lon="-0.89693">
        <ele>28</ele>
        <time>2011-07-14T10:42:16Z</time>
      </trkpt>
      <trkpt lat="45.74723" lon="-0.89883">
        <ele>25</ele>
        <time>2011-07-14T10:42:37Z</time>
      </trkpt>
      <trkpt lat="45.74749" lon="-0.9005">
        <ele>23</ele>
        <time>2011-07-14T10:42:54Z</time>
      </trkpt>
      <trkpt lat="45.74797" lon="-0.90193">
        <ele>23</ele>
        <time>2011-07-14T10:43:13Z</time>
      </trkpt>
      <trkpt lat="45.74848" lon="-0.90345">
        <ele>25</ele>
        <time>2011-07-14T10:43:34Z</time>
      </trkpt>
      <trkpt lat="45.74903" lon="-0.90546">
        <ele>27</ele>
        <time>2011-07-14T10:44:00Z</time>
      </trkpt>
      <trkpt lat="45.74954" lon="-0.90729">
        <ele>29</ele>
        <time>2011-07-14T10:44:24Z</time>
      </trkpt>
      <trkpt lat="45.75005" lon="-0.90918">
        <ele>30</ele>
        <time>2011-07-14T10:44:49Z</time>
      </trkpt>
      <trkpt lat="45.7504" lon="-0.91099">
        <ele>29</ele>
        <time>2011-07-14T10:45:12Z</time>
      </trkpt>
      <trkpt lat="45.75068" lon="-0.91268">
        <ele>26</ele>
        <time>2011-07-14T10:45:31Z</time>
      </trkpt>
      <trkpt lat="45.75107" lon="-0.91507">
        <ele>24</ele>
        <time>2011-07-14T10:45:56Z</time>
      </trkpt>
      <trkpt lat="45.75135" lon="-0.9167">
        <ele>23</ele>
        <time>2011-07-14T10:46:14Z</time>
      </trkpt>
      <trkpt lat="45.75168" lon="-0.91873">
        <ele>20</ele>
        <time>2011-07-14T10:46:36Z</time>
      </trkpt>
      <trkpt lat="45.75211" lon="-0.92133">
        <ele>20</ele>
        <time>2011-07-14T10:47:03Z</time>
      </trkpt>
      <trkpt lat="45.75245" lon="-0.92337">
        <ele>20</ele>
        <time>2011-07-14T10:47:24Z</time>
      </trkpt>
      <trkpt lat="45.75273" lon="-0.92504">
        <ele>20</ele>
        <time>2011-07-14T10:47:42Z</time>
      </trkpt>
      <trkpt lat="45.75303" lon="-0.92684">
        <ele>21</ele>
        <time>2011-07-14T10:48:03Z</time>
      </trkpt>
      <trkpt lat="45.75316" lon="-0.92776">
        <ele>21</ele>
        <time>2011-07-14T10:48:17Z</time>
      </trkpt>
      <trkpt lat="45.75325" lon="-0.92867">
        <ele>20</ele>
        <time>2011-07-14T10:48:31Z</time>
      </trkpt>
      <trkpt lat="45.75332" lon="-0.93006">
        <ele>19</ele>
        <time>2011-07-14T10:48:48Z</time>
      </trkpt>
      <trkpt lat="45.75344" lon="-0.93235">
        <ele>13</ele>
        <time>2011-07-14T10:49:09Z</time>
      </trkpt>
      <trkpt lat="45.75355" lon="-0.93467">
        <ele>12</ele>
        <time>2011-07-14T10:49:31Z</time>
      </trkpt>
      <trkpt lat="45.75368" lon="-0.93717">
        <ele>10</ele>
        <time>2011-07-14T10:49:57Z</time>
      </trkpt>
      <trkpt lat="45.75376" lon="-0.93895">
        <ele>12</ele>
        <time>2011-07-14T10:50:16Z</time>
      </trkpt>
      <trkpt lat="45.75388" lon="-0.9411">
        <ele>15</ele>
        <time>2011-07-14T10:50:40Z</time>
      </trkpt>
      <trkpt lat="45.75396" lon="-0.94262">
        <ele>17</ele>
        <time>2011-07-14T10:50:58Z</time>
      </trkpt>
      <trkpt lat="45.75397" lon="-0.94294">
        <ele>17</ele>
        <time>2011-07-14T10:51:03Z</time>
      </trkpt>
      <trkpt lat="45.75402" lon="-0.94403">
        <ele>17</ele>
        <time>2011-07-14T10:51:18Z</time>
      </trkpt>
      <trkpt lat="45.75403" lon="-0.94425">
        <ele>16</ele>
        <time>2011-07-14T10:51:21Z</time>
      </trkpt>
      <trkpt lat="45.75406" lon="-0.94543">
        <ele>16</ele>
        <time>2011-07-14T10:51:36Z</time>
      </trkpt>
      <trkpt lat="45.75405" lon="-0.94578">
        <ele>16</ele>
        <time>2011-07-14T10:51:46Z</time>
      </trkpt>
      <trkpt lat="45.75406" lon="-0.94578">
        <ele>16</ele>
        <time>2011-07-14T10:52:18Z</time>
      </trkpt>
      <trkpt lat="45.75411" lon="-0.94614">
        <ele>16</ele>
        <time>2011-07-14T10:52:25Z</time>
      </trkpt>
      <trkpt lat="45.75411" lon="-0.9473">
        <ele>14</ele>
        <time>2011-07-14T10:52:40Z</time>
      </trkpt>
      <trkpt lat="45.75415" lon="-0.94936">
        <ele>10</ele>
        <time>2011-07-14T10:53:01Z</time>
      </trkpt>
      <trkpt lat="45.75418" lon="-0.95197">
        <ele>9</ele>
        <time>2011-07-14T10:53:23Z</time>
      </trkpt>
      <trkpt lat="45.75421" lon="-0.95439">
        <ele>7</ele>
        <time>2011-07-14T10:53:43Z</time>
      </trkpt>
      <trkpt lat="45.75425" lon="-0.95684">
        <ele>7</ele>
        <time>2011-07-14T10:54:06Z</time>
      </trkpt>
      <trkpt lat="45.75427" lon="-0.95813">
        <ele>7</ele>
        <time>2011-07-14T10:54:19Z</time>
      </trkpt>
      <trkpt lat="45.75451" lon="-0.95927">
        <ele>7</ele>
        <time>2011-07-14T10:54:31Z</time>
      </trkpt>
      <trkpt lat="45.75526" lon="-0.96059">
        <ele>7</ele>
        <time>2011-07-14T10:54:49Z</time>
      </trkpt>
      <trkpt lat="45.75531" lon="-0.96066">
        <ele>7</ele>
        <time>2011-07-14T10:54:50Z</time>
      </trkpt>
      <trkpt lat="45.75617" lon="-0.96157">
        <ele>8</ele>
        <time>2011-07-14T10:55:08Z</time>
      </trkpt>
      <trkpt lat="45.75676" lon="-0.96263">
        <ele>7</ele>
        <time>2011-07-14T10:55:25Z</time>
      </trkpt>
      <trkpt lat="45.75738" lon="-0.96395">
        <ele>8</ele>
        <time>2011-07-14T10:55:45Z</time>
      </trkpt>
      <trkpt lat="45.75784" lon="-0.96489">
        <ele>7</ele>
        <time>2011-07-14T10:56:01Z</time>
      </trkpt>
      <trkpt lat="45.75797" lon="-0.96505">
        <ele>7</ele>
        <time>2011-07-14T10:56:05Z</time>
      </trkpt>
      <trkpt lat="45.75803" lon="-0.96514">
        <ele>7</ele>
        <time>2011-07-14T10:56:07Z</time>
      </trkpt>
      <trkpt lat="45.75882" lon="-0.96609">
        <ele>7</ele>
        <time>2011-07-14T10:56:25Z</time>
      </trkpt>
      <trkpt lat="45.75973" lon="-0.96714">
        <ele>6</ele>
        <time>2011-07-14T10:56:44Z</time>
      </trkpt>
      <trkpt lat="45.76049" lon="-0.96805">
        <ele>7</ele>
        <time>2011-07-14T10:57:01Z</time>
      </trkpt>
      <trkpt lat="45.76062" lon="-0.96821">
        <ele>7</ele>
        <time>2011-07-14T10:57:04Z</time>
      </trkpt>
      <trkpt lat="45.7611" lon="-0.96937">
        <ele>8</ele>
        <time>2011-07-14T10:57:21Z</time>
      </trkpt>
      <trkpt lat="45.76136" lon="-0.97107">
        <ele>10</ele>
        <time>2011-07-14T10:57:42Z</time>
      </trkpt>
      <trkpt lat="45.76159" lon="-0.97263">
        <ele>12</ele>
        <time>2011-07-14T10:58:04Z</time>
      </trkpt>
      <trkpt lat="45.76161" lon="-0.9727">
        <ele>12</ele>
        <time>2011-07-14T10:58:05Z</time>
      </trkpt>
      <trkpt lat="45.76172" lon="-0.97314">
        <ele>12</ele>
        <time>2011-07-14T10:58:12Z</time>
      </trkpt>
      <trkpt lat="45.7621" lon="-0.97449">
        <ele>14</ele>
        <time>2011-07-14T10:58:34Z</time>
      </trkpt>
      <trkpt lat="45.76251" lon="-0.97601">
        <ele>15</ele>
        <time>2011-07-14T10:58:56Z</time>
      </trkpt>
      <trkpt lat="45.76277" lon="-0.97719">
        <ele>14</ele>
        <time>2011-07-14T10:59:12Z</time>
      </trkpt>
      <trkpt lat="45.76321" lon="-0.9792">
        <ele>11</ele>
        <time>2011-07-14T10:59:36Z</time>
      </trkpt>
      <trkpt lat="45.76358" lon="-0.98088">
        <ele>10</ele>
        <time>2011-07-14T10:59:55Z</time>
      </trkpt>
      <trkpt lat="45.76392" lon="-0.98252">
        <ele>9</ele>
        <time>2011-07-14T11:00:13Z</time>
      </trkpt>
      <trkpt lat="45.76444" lon="-0.98488">
        <ele>9</ele>
        <time>2011-07-14T11:00:39Z</time>
      </trkpt>
      <trkpt lat="45.76473" lon="-0.98625">
        <ele>8</ele>
        <time>2011-07-14T11:00:56Z</time>
      </trkpt>
      <trkpt lat="45.76514" lon="-0.98815">
        <ele>7</ele>
        <time>2011-07-14T11:01:18Z</time>
      </trkpt>
      <trkpt lat="45.76557" lon="-0.99009">
        <ele>6</ele>
        <time>2011-07-14T11:01:41Z</time>
      </trkpt>
      <trkpt lat="45.76606" lon="-0.99157">
        <ele>5</ele>
        <time>2011-07-14T11:02:00Z</time>
      </trkpt>
      <trkpt lat="45.76647" lon="-0.99271">
        <ele>5</ele>
        <time>2011-07-14T11:02:16Z</time>
      </trkpt>
      <trkpt lat="45.76701" lon="-0.99381">
        <ele>4</ele>
        <time>2011-07-14T11:02:32Z</time>
      </trkpt>
      <trkpt lat="45.76784" lon="-0.99461">
        <ele>3</ele>
        <time>2011-07-14T11:02:47Z</time>
      </trkpt>
      <trkpt lat="45.76877" lon="-0.99535">
        <ele>4</ele>
        <time>2011-07-14T11:03:04Z</time>
      </trkpt>
      <trkpt lat="45.7695" lon="-0.99637">
        <ele>5</ele>
        <time>2011-07-14T11:03:21Z</time>
      </trkpt>
      <trkpt lat="45.77035" lon="-0.99714">
        <ele>6</ele>
        <time>2011-07-14T11:03:39Z</time>
      </trkpt>
      <trkpt lat="45.77137" lon="-0.99803">
        <ele>6</ele>
        <time>2011-07-14T11:04:00Z</time>
      </trkpt>
      <trkpt lat="45.77229" lon="-0.99906">
        <ele>7</ele>
        <time>2011-07-14T11:04:20Z</time>
      </trkpt>
      <trkpt lat="45.77325" lon="-1.00024">
        <ele>7</ele>
        <time>2011-07-14T11:04:41Z</time>
      </trkpt>
      <trkpt lat="45.77401" lon="-1.00116">
        <ele>6</ele>
        <time>2011-07-14T11:04:58Z</time>
      </trkpt>
      <trkpt lat="45.77493" lon="-1.00221">
        <ele>6</ele>
        <time>2011-07-14T11:05:18Z</time>
      </trkpt>
      <trkpt lat="45.77594" lon="-1.00277">
        <ele>5</ele>
        <time>2011-07-14T11:05:36Z</time>
      </trkpt>
      <trkpt lat="45.77701" lon="-1.0036">
        <ele>4</ele>
        <time>2011-07-14T11:05:55Z</time>
      </trkpt>
      <trkpt lat="45.77838" lon="-1.00484">
        <ele>3</ele>
        <time>2011-07-14T11:06:20Z</time>
      </trkpt>
      <trkpt lat="45.77901" lon="-1.00573">
        <ele>4</ele>
        <time>2011-07-14T11:06:36Z</time>
      </trkpt>
      <trkpt lat="45.77966" lon="-1.00686">
        <ele>8</ele>
        <time>2011-07-14T11:06:58Z</time>
      </trkpt>
      <trkpt lat="45.78031" lon="-1.008">
        <ele>10</ele>
        <time>2011-07-14T11:07:21Z</time>
      </trkpt>
      <trkpt lat="45.78097" lon="-1.00917">
        <ele>13</ele>
        <time>2011-07-14T11:07:41Z</time>
      </trkpt>
      <trkpt lat="45.78183" lon="-1.01064">
        <ele>14</ele>
        <time>2011-07-14T11:08:03Z</time>
      </trkpt>
      <trkpt lat="45.78255" lon="-1.01195">
        <ele>12</ele>
        <time>2011-07-14T11:08:22Z</time>
      </trkpt>
      <trkpt lat="45.78325" lon="-1.01352">
        <ele>11</ele>
        <time>2011-07-14T11:08:43Z</time>
      </trkpt>
      <trkpt lat="45.78399" lon="-1.01523">
        <ele>9</ele>
        <time>2011-07-14T11:09:06Z</time>
      </trkpt>
      <trkpt lat="45.78493" lon="-1.01743">
        <ele>15</ele>
        <time>2011-07-14T11:09:38Z</time>
      </trkpt>
      <trkpt lat="45.78551" lon="-1.0188">
        <ele>14</ele>
        <time>2011-07-14T11:09:59Z</time>
      </trkpt>
      <trkpt lat="45.78612" lon="-1.02026">
        <ele>13</ele>
        <time>2011-07-14T11:10:19Z</time>
      </trkpt>
      <trkpt lat="45.78688" lon="-1.02201">
        <ele>11</ele>
        <time>2011-07-14T11:10:41Z</time>
      </trkpt>
      <trkpt lat="45.78746" lon="-1.02338">
        <ele>10</ele>
        <time>2011-07-14T11:10:59Z</time>
      </trkpt>
      <trkpt lat="45.78813" lon="-1.02447">
        <ele>7</ele>
        <time>2011-07-14T11:11:16Z</time>
      </trkpt>
      <trkpt lat="45.78903" lon="-1.02579">
        <ele>7</ele>
        <time>2011-07-14T11:11:37Z</time>
      </trkpt>
      <trkpt lat="45.78954" lon="-1.02656">
        <ele>7</ele>
        <time>2011-07-14T11:11:50Z</time>
      </trkpt>
      <trkpt lat="45.79031" lon="-1.02764">
        <ele>7</ele>
        <time>2011-07-14T11:12:09Z</time>
      </trkpt>
      <trkpt lat="45.79088" lon="-1.0286">
        <ele>8</ele>
        <time>2011-07-14T11:12:26Z</time>
      </trkpt>
      <trkpt lat="45.79136" lon="-1.0298">
        <ele>10</ele>
        <time>2011-07-14T11:12:45Z</time>
      </trkpt>
      <trkpt lat="45.79176" lon="-1.03079">
        <ele>11</ele>
        <time>2011-07-14T11:13:02Z</time>
      </trkpt>
      <trkpt lat="45.79207" lon="-1.03157">
        <ele>11</ele>
        <time>2011-07-14T11:13:16Z</time>
      </trkpt>
      <trkpt lat="45.79242" lon="-1.03246">
        <ele>9</ele>
        <time>2011-07-14T11:13:31Z</time>
      </trkpt>
      <trkpt lat="45.79303" lon="-1.03403">
        <ele>8</ele>
        <time>2011-07-14T11:13:52Z</time>
      </trkpt>
      <trkpt lat="45.79369" lon="-1.03565">
        <ele>7</ele>
        <time>2011-07-14T11:14:13Z</time>
      </trkpt>
      <trkpt lat="45.79391" lon="-1.03616">
        <ele>7</ele>
        <time>2011-07-14T11:14:20Z</time>
      </trkpt>
      <trkpt lat="45.79401" lon="-1.03634">
        <ele>7</ele>
        <time>2011-07-14T11:14:23Z</time>
      </trkpt>
      <trkpt lat="45.79409" lon="-1.03646">
        <ele>8</ele>
        <time>2011-07-14T11:14:26Z</time>
      </trkpt>
      <trkpt lat="45.79411" lon="-1.0365">
        <ele>8</ele>
        <time>2011-07-14T11:14:40Z</time>
      </trkpt>
      <trkpt lat="45.79418" lon="-1.0367">
        <ele>8</ele>
        <time>2011-07-14T11:15:06Z</time>
      </trkpt>
      <trkpt lat="45.79449" lon="-1.03734">
        <ele>8</ele>
        <time>2011-07-14T11:15:21Z</time>
      </trkpt>
      <trkpt lat="45.79458" lon="-1.03754">
        <ele>8</ele>
        <time>2011-07-14T11:15:25Z</time>
      </trkpt>
      <trkpt lat="45.79506" lon="-1.03855">
        <ele>9</ele>
        <time>2011-07-14T11:15:44Z</time>
      </trkpt>
      <trkpt lat="45.79557" lon="-1.03966">
        <ele>9</ele>
        <time>2011-07-14T11:16:04Z</time>
      </trkpt>
      <trkpt lat="45.79576" lon="-1.04011">
        <ele>10</ele>
        <time>2011-07-14T11:16:12Z</time>
      </trkpt>
      <trkpt lat="45.79637" lon="-1.04144">
        <ele>10</ele>
        <time>2011-07-14T11:16:35Z</time>
      </trkpt>
      <trkpt lat="45.79702" lon="-1.04288">
        <ele>10</ele>
        <time>2011-07-14T11:16:58Z</time>
      </trkpt>
      <trkpt lat="45.79757" lon="-1.04412">
        <ele>11</ele>
        <time>2011-07-14T11:17:17Z</time>
      </trkpt>
      <trkpt lat="45.79828" lon="-1.04569">
        <ele>14</ele>
        <time>2011-07-14T11:17:39Z</time>
      </trkpt>
      <trkpt lat="45.79897" lon="-1.04671">
        <ele>13</ele>
        <time>2011-07-14T11:17:56Z</time>
      </trkpt>
      <trkpt lat="45.79918" lon="-1.04676">
        <ele>14</ele>
        <time>2011-07-14T11:18:00Z</time>
      </trkpt>
      <trkpt lat="45.7994" lon="-1.04705">
        <ele>14</ele>
        <time>2011-07-14T11:18:06Z</time>
      </trkpt>
      <trkpt lat="45.79944" lon="-1.04721">
        <ele>14</ele>
        <time>2011-07-14T11:18:08Z</time>
      </trkpt>
      <trkpt lat="45.80012" lon="-1.04805">
        <ele>15</ele>
        <time>2011-07-14T11:18:23Z</time>
      </trkpt>
      <trkpt lat="45.80095" lon="-1.0492">
        <ele>13</ele>
        <time>2011-07-14T11:18:44Z</time>
      </trkpt>
      <trkpt lat="45.80098" lon="-1.04926">
        <ele>13</ele>
        <time>2011-07-14T11:18:45Z</time>
      </trkpt>
      <trkpt lat="45.80136" lon="-1.05064">
        <ele>13</ele>
        <time>2011-07-14T11:19:05Z</time>
      </trkpt>
      <trkpt lat="45.80173" lon="-1.05216">
        <ele>14</ele>
        <time>2011-07-14T11:19:24Z</time>
      </trkpt>
      <trkpt lat="45.80224" lon="-1.05377">
        <ele>12</ele>
        <time>2011-07-14T11:19:44Z</time>
      </trkpt>
      <trkpt lat="45.80284" lon="-1.05534">
        <ele>8</ele>
        <time>2011-07-14T11:20:04Z</time>
      </trkpt>
      <trkpt lat="45.80345" lon="-1.05672">
        <ele>7</ele>
        <time>2011-07-14T11:20:22Z</time>
      </trkpt>
      <trkpt lat="45.80426" lon="-1.05783">
        <ele>9</ele>
        <time>2011-07-14T11:20:42Z</time>
      </trkpt>
      <trkpt lat="45.80503" lon="-1.05887">
        <ele>12</ele>
        <time>2011-07-14T11:21:03Z</time>
      </trkpt>
      <trkpt lat="45.80567" lon="-1.06002">
        <ele>12</ele>
        <time>2011-07-14T11:21:22Z</time>
      </trkpt>
      <trkpt lat="45.80652" lon="-1.06177">
        <ele>17</ele>
        <time>2011-07-14T11:21:49Z</time>
      </trkpt>
      <trkpt lat="45.8068" lon="-1.06233">
        <ele>18</ele>
        <time>2011-07-14T11:21:58Z</time>
      </trkpt>
      <trkpt lat="45.80728" lon="-1.06338">
        <ele>15</ele>
        <time>2011-07-14T11:22:14Z</time>
      </trkpt>
      <trkpt lat="45.80793" lon="-1.06472">
        <ele>12</ele>
        <time>2011-07-14T11:22:33Z</time>
      </trkpt>
      <trkpt lat="45.80869" lon="-1.06623">
        <ele>10</ele>
        <time>2011-07-14T11:22:55Z</time>
      </trkpt>
      <trkpt lat="45.80925" lon="-1.06731">
        <ele>12</ele>
        <time>2011-07-14T11:23:14Z</time>
      </trkpt>
      <trkpt lat="45.81" lon="-1.06835">
        <ele>13</ele>
        <time>2011-07-14T11:23:35Z</time>
      </trkpt>
      <trkpt lat="45.81086" lon="-1.06928">
        <ele>11</ele>
        <time>2011-07-14T11:23:55Z</time>
      </trkpt>
      <trkpt lat="45.8109" lon="-1.06933">
        <ele>12</ele>
        <time>2011-07-14T11:23:56Z</time>
      </trkpt>
      <trkpt lat="45.81153" lon="-1.07">
        <ele>12</ele>
        <time>2011-07-14T11:24:11Z</time>
      </trkpt>
      <trkpt lat="45.81229" lon="-1.07133">
        <ele>13</ele>
        <time>2011-07-14T11:24:32Z</time>
      </trkpt>
      <trkpt lat="45.81291" lon="-1.07271">
        <ele>11</ele>
        <time>2011-07-14T11:24:52Z</time>
      </trkpt>
      <trkpt lat="45.81361" lon="-1.07371">
        <ele>11</ele>
        <time>2011-07-14T11:25:10Z</time>
      </trkpt>
      <trkpt lat="45.81441" lon="-1.07491">
        <ele>13</ele>
        <time>2011-07-14T11:25:32Z</time>
      </trkpt>
      <trkpt lat="45.81493" lon="-1.07613">
        <ele>12</ele>
        <time>2011-07-14T11:25:51Z</time>
      </trkpt>
      <trkpt lat="45.81536" lon="-1.07723">
        <ele>12</ele>
        <time>2011-07-14T11:26:07Z</time>
      </trkpt>
      <trkpt lat="45.81589" lon="-1.07845">
        <ele>13</ele>
        <time>2011-07-14T11:26:24Z</time>
      </trkpt>
      <trkpt lat="45.81638" lon="-1.07949">
        <ele>13</ele>
        <time>2011-07-14T11:26:39Z</time>
      </trkpt>
      <trkpt lat="45.81688" lon="-1.08025">
        <ele>13</ele>
        <time>2011-07-14T11:26:53Z</time>
      </trkpt>
      <trkpt lat="45.81692" lon="-1.08052">
        <ele>13</ele>
        <time>2011-07-14T11:26:58Z</time>
      </trkpt>
      <trkpt lat="45.8169" lon="-1.08064">
        <ele>13</ele>
        <time>2011-07-14T11:27:00Z</time>
      </trkpt>
      <trkpt lat="45.81694" lon="-1.08156">
        <ele>12</ele>
        <time>2011-07-14T11:27:14Z</time>
      </trkpt>
      <trkpt lat="45.81711" lon="-1.08288">
        <ele>13</ele>
        <time>2011-07-14T11:27:32Z</time>
      </trkpt>
      <trkpt lat="45.81724" lon="-1.08402">
        <ele>13</ele>
        <time>2011-07-14T11:27:47Z</time>
      </trkpt>
      <trkpt lat="45.81725" lon="-1.0841">
        <ele>13</ele>
        <time>2011-07-14T11:27:48Z</time>
      </trkpt>
      <trkpt lat="45.81737" lon="-1.08518">
        <ele>12</ele>
        <time>2011-07-14T11:28:03Z</time>
      </trkpt>
      <trkpt lat="45.81761" lon="-1.08668">
        <ele>8</ele>
        <time>2011-07-14T11:28:22Z</time>
      </trkpt>
      <trkpt lat="45.81804" lon="-1.08817">
        <ele>6</ele>
        <time>2011-07-14T11:28:39Z</time>
      </trkpt>
      <trkpt lat="45.81822" lon="-1.08873">
        <ele>6</ele>
        <time>2011-07-14T11:28:46Z</time>
      </trkpt>
      <trkpt lat="45.81858" lon="-1.09036">
        <ele>10</ele>
        <time>2011-07-14T11:29:06Z</time>
      </trkpt>
      <trkpt lat="45.81892" lon="-1.09195">
        <ele>11</ele>
        <time>2011-07-14T11:29:27Z</time>
      </trkpt>
      <trkpt lat="45.81928" lon="-1.09362">
        <ele>11</ele>
        <time>2011-07-14T11:29:49Z</time>
      </trkpt>
      <trkpt lat="45.81962" lon="-1.09511">
        <ele>11</ele>
        <time>2011-07-14T11:30:09Z</time>
      </trkpt>
      <trkpt lat="45.81989" lon="-1.09632">
        <ele>12</ele>
        <time>2011-07-14T11:30:25Z</time>
      </trkpt>
      <trkpt lat="45.82021" lon="-1.09767">
        <ele>13</ele>
        <time>2011-07-14T11:30:43Z</time>
      </trkpt>
      <trkpt lat="45.8205" lon="-1.09891">
        <ele>13</ele>
        <time>2011-07-14T11:31:00Z</time>
      </trkpt>
      <trkpt lat="45.82076" lon="-1.10004">
        <ele>12</ele>
        <time>2011-07-14T11:31:16Z</time>
      </trkpt>
      <trkpt lat="45.8208" lon="-1.10018">
        <ele>12</ele>
        <time>2011-07-14T11:31:18Z</time>
      </trkpt>
      <trkpt lat="45.82106" lon="-1.10149">
        <ele>11</ele>
        <time>2011-07-14T11:31:36Z</time>
      </trkpt>
      <trkpt lat="45.82132" lon="-1.10236">
        <ele>11</ele>
        <time>2011-07-14T11:31:49Z</time>
      </trkpt>
      <trkpt lat="45.82147" lon="-1.10272">
        <ele>12</ele>
        <time>2011-07-14T11:31:55Z</time>
      </trkpt>
      <trkpt lat="45.8219" lon="-1.10385">
        <ele>13</ele>
        <time>2011-07-14T11:32:14Z</time>
      </trkpt>
      <trkpt lat="45.82228" lon="-1.10458">
        <ele>13</ele>
        <time>2011-07-14T11:32:29Z</time>
      </trkpt>
      <trkpt lat="45.8225" lon="-1.10485">
        <ele>12</ele>
        <time>2011-07-14T11:32:37Z</time>
      </trkpt>
      <trkpt lat="45.82256" lon="-1.10484">
        <ele>13</ele>
        <time>2011-07-14T11:32:47Z</time>
      </trkpt>
      <trkpt lat="45.82257" lon="-1.10485">
        <ele>13</ele>
        <time>2011-07-14T11:33:41Z</time>
      </trkpt>
      <trkpt lat="45.82259" lon="-1.10489">
        <ele>13</ele>
        <time>2011-07-14T11:45:12Z</time>
      </trkpt>
      <trkpt lat="45.8226" lon="-1.10507">
        <ele>12</ele>
        <time>2011-07-14T11:45:19Z</time>
      </trkpt>
      <trkpt lat="45.82289" lon="-1.10551">
        <ele>13</ele>
        <time>2011-07-14T11:45:32Z</time>
      </trkpt>
      <trkpt lat="45.82339" lon="-1.10623">
        <ele>14</ele>
        <time>2011-07-14T11:45:46Z</time>
      </trkpt>
      <trkpt lat="45.82385" lon="-1.10687">
        <ele>15</ele>
        <time>2011-07-14T11:46:00Z</time>
      </trkpt>
      <trkpt lat="45.82431" lon="-1.10769">
        <ele>15</ele>
        <time>2011-07-14T11:46:16Z</time>
      </trkpt>
      <trkpt lat="45.8245" lon="-1.10801">
        <ele>15</ele>
        <time>2011-07-14T11:46:23Z</time>
      </trkpt>
      <trkpt lat="45.82508" lon="-1.10906">
        <ele>14</ele>
        <time>2011-07-14T11:46:41Z</time>
      </trkpt>
      <trkpt lat="45.82569" lon="-1.1101">
        <ele>12</ele>
        <time>2011-07-14T11:46:57Z</time>
      </trkpt>
      <trkpt lat="45.82633" lon="-1.11134">
        <ele>10</ele>
        <time>2011-07-14T11:47:14Z</time>
      </trkpt>
      <trkpt lat="45.82721" lon="-1.11296">
        <ele>10</ele>
        <time>2011-07-14T11:47:37Z</time>
      </trkpt>
      <trkpt lat="45.82809" lon="-1.11464">
        <ele>8</ele>
        <time>2011-07-14T11:47:59Z</time>
      </trkpt>
      <trkpt lat="45.82891" lon="-1.11644">
        <ele>7</ele>
        <time>2011-07-14T11:48:21Z</time>
      </trkpt>
      <trkpt lat="45.82939" lon="-1.11773">
        <ele>10</ele>
        <time>2011-07-14T11:48:39Z</time>
      </trkpt>
      <trkpt lat="45.82971" lon="-1.11856">
        <ele>11</ele>
        <time>2011-07-14T11:48:55Z</time>
      </trkpt>
      <trkpt lat="45.82981" lon="-1.11857">
        <ele>11</ele>
        <time>2011-07-14T11:49:00Z</time>
      </trkpt>
      <trkpt lat="45.82994" lon="-1.11851">
        <ele>11</ele>
        <time>2011-07-14T11:49:12Z</time>
      </trkpt>
      <trkpt lat="45.82998" lon="-1.11852">
        <ele>11</ele>
        <time>2011-07-14T11:49:38Z</time>
      </trkpt>
    </trkseg>
  </trk>
  <trk>
    <name><![CDATA[ACTIVE LOG141246]]></name>
    <trkseg>
      <trkpt lat="45.82993" lon="-1.11846">
        <ele>11</ele>
        <time>2011-07-14T12:12:46Z</time>
      </trkpt>
      <trkpt lat="45.82993" lon="-1.11848">
        <ele>11</ele>
        <time>2011-07-14T12:14:51Z</time>
      </trkpt>
      <trkpt lat="45.82989" lon="-1.11851">
        <ele>11</ele>
        <time>2011-07-14T12:14:55Z</time>
      </trkpt>
      <trkpt lat="45.8298" lon="-1.11859">
        <ele>11</ele>
        <time>2011-07-14T12:15:00Z</time>
      </trkpt>
      <trkpt lat="45.82979" lon="-1.11877">
        <ele>11</ele>
        <time>2011-07-14T12:15:06Z</time>
      </trkpt>
      <trkpt lat="45.83006" lon="-1.11927">
        <ele>10</ele>
        <time>2011-07-14T12:15:21Z</time>
      </trkpt>
      <trkpt lat="45.83034" lon="-1.11933">
        <ele>10</ele>
        <time>2011-07-14T12:15:29Z</time>
      </trkpt>
      <trkpt lat="45.83061" lon="-1.11979">
        <ele>9</ele>
        <time>2011-07-14T12:15:39Z</time>
      </trkpt>
      <trkpt lat="45.83088" lon="-1.12081">
        <ele>9</ele>
        <time>2011-07-14T12:15:52Z</time>
      </trkpt>
      <trkpt lat="45.83128" lon="-1.1224">
        <ele>7</ele>
        <time>2011-07-14T12:16:10Z</time>
      </trkpt>
      <trkpt lat="45.8319" lon="-1.12387">
        <ele>9</ele>
        <time>2011-07-14T12:16:28Z</time>
      </trkpt>
      <trkpt lat="45.83263" lon="-1.12549">
        <ele>12</ele>
        <time>2011-07-14T12:16:49Z</time>
      </trkpt>
      <trkpt lat="45.83337" lon="-1.12717">
        <ele>10</ele>
        <time>2011-07-14T12:17:10Z</time>
      </trkpt>
      <trkpt lat="45.83407" lon="-1.12873">
        <ele>10</ele>
        <time>2011-07-14T12:17:30Z</time>
      </trkpt>
      <trkpt lat="45.83494" lon="-1.13072">
        <ele>9</ele>
        <time>2011-07-14T12:17:55Z</time>
      </trkpt>
      <trkpt lat="45.83552" lon="-1.13208">
        <ele>10</ele>
        <time>2011-07-14T12:18:12Z</time>
      </trkpt>
      <trkpt lat="45.83614" lon="-1.13338">
        <ele>9</ele>
        <time>2011-07-14T12:18:30Z</time>
      </trkpt>
      <trkpt lat="45.83687" lon="-1.13502">
        <ele>8</ele>
        <time>2011-07-14T12:18:50Z</time>
      </trkpt>
      <trkpt lat="45.83756" lon="-1.13674">
        <ele>8</ele>
        <time>2011-07-14T12:19:10Z</time>
      </trkpt>
      <trkpt lat="45.83763" lon="-1.1372">
        <ele>8</ele>
        <time>2011-07-14T12:19:15Z</time>
      </trkpt>
      <trkpt lat="45.83764" lon="-1.13747">
        <ele>7</ele>
        <time>2011-07-14T12:19:18Z</time>
      </trkpt>
      <trkpt lat="45.83776" lon="-1.13772">
        <ele>7</ele>
        <time>2011-07-14T12:19:22Z</time>
      </trkpt>
      <trkpt lat="45.83789" lon="-1.13814">
        <ele>7</ele>
        <time>2011-07-14T12:19:28Z</time>
      </trkpt>
      <trkpt lat="45.83788" lon="-1.1383">
        <ele>7</ele>
        <time>2011-07-14T12:19:30Z</time>
      </trkpt>
      <trkpt lat="45.83812" lon="-1.13937">
        <ele>6</ele>
        <time>2011-07-14T12:19:43Z</time>
      </trkpt>
      <trkpt lat="45.83838" lon="-1.14076">
        <ele>8</ele>
        <time>2011-07-14T12:19:59Z</time>
      </trkpt>
      <trkpt lat="45.83856" lon="-1.14222">
        <ele>7</ele>
        <time>2011-07-14T12:20:16Z</time>
      </trkpt>
      <trkpt lat="45.83887" lon="-1.14436">
        <ele>6</ele>
        <time>2011-07-14T12:20:40Z</time>
      </trkpt>
      <trkpt lat="45.83942" lon="-1.1462">
        <ele>6</ele>
        <time>2011-07-14T12:21:01Z</time>
      </trkpt>
      <trkpt lat="45.83973" lon="-1.14691">
        <ele>4</ele>
        <time>2011-07-14T12:21:10Z</time>
      </trkpt>
      <trkpt lat="45.84018" lon="-1.14804">
        <ele>5</ele>
        <time>2011-07-14T12:21:24Z</time>
      </trkpt>
      <trkpt lat="45.84078" lon="-1.14849">
        <ele>6</ele>
        <time>2011-07-14T12:21:34Z</time>
      </trkpt>
      <trkpt lat="45.84154" lon="-1.14931">
        <ele>5</ele>
        <time>2011-07-14T12:21:48Z</time>
      </trkpt>
      <trkpt lat="45.84283" lon="-1.15086">
        <ele>5</ele>
        <time>2011-07-14T12:22:12Z</time>
      </trkpt>
      <trkpt lat="45.84374" lon="-1.15216">
        <ele>3</ele>
        <time>2011-07-14T12:22:29Z</time>
      </trkpt>
      <trkpt lat="45.84478" lon="-1.154">
        <ele>2</ele>
        <time>2011-07-14T12:22:53Z</time>
      </trkpt>
      <trkpt lat="45.84542" lon="-1.15563">
        <ele>3</ele>
        <time>2011-07-14T12:23:13Z</time>
      </trkpt>
      <trkpt lat="45.84586" lon="-1.15738">
        <ele>3</ele>
        <time>2011-07-14T12:23:33Z</time>
      </trkpt>
      <trkpt lat="45.84604" lon="-1.15869">
        <ele>2</ele>
        <time>2011-07-14T12:23:48Z</time>
      </trkpt>
      <trkpt lat="45.846" lon="-1.1604">
        <ele>4</ele>
        <time>2011-07-14T12:24:07Z</time>
      </trkpt>
      <trkpt lat="45.84602" lon="-1.16221">
        <ele>5</ele>
        <time>2011-07-14T12:24:28Z</time>
      </trkpt>
      <trkpt lat="45.84604" lon="-1.1634">
        <ele>4</ele>
        <time>2011-07-14T12:24:42Z</time>
      </trkpt>
      <trkpt lat="45.84591" lon="-1.16398">
        <ele>4</ele>
        <time>2011-07-14T12:24:49Z</time>
      </trkpt>
      <trkpt lat="45.84585" lon="-1.16557">
        <ele>2</ele>
        <time>2011-07-14T12:25:08Z</time>
      </trkpt>
      <trkpt lat="45.84601" lon="-1.16732">
        <ele>2</ele>
        <time>2011-07-14T12:25:29Z</time>
      </trkpt>
      <trkpt lat="45.8465" lon="-1.16894">
        <ele>1</ele>
        <time>2011-07-14T12:25:51Z</time>
      </trkpt>
      <trkpt lat="45.84718" lon="-1.1702">
        <time>2011-07-14T12:26:13Z</time>
      </trkpt>
      <trkpt lat="45.84792" lon="-1.17144">
        <time>2011-07-14T12:26:36Z</time>
      </trkpt>
      <trkpt lat="45.84863" lon="-1.17261">
        <time>2011-07-14T12:26:59Z</time>
      </trkpt>
      <trkpt lat="45.84883" lon="-1.17294">
        <time>2011-07-14T12:27:06Z</time>
      </trkpt>
      <trkpt lat="45.84935" lon="-1.17379">
        <time>2011-07-14T12:27:23Z</time>
      </trkpt>
      <trkpt lat="45.85026" lon="-1.17531">
        <time>2011-07-14T12:27:51Z</time>
      </trkpt>
      <trkpt lat="45.85104" lon="-1.1766">
        <time>2011-07-14T12:28:14Z</time>
      </trkpt>
      <trkpt lat="45.85193" lon="-1.17807">
        <time>2011-07-14T12:28:39Z</time>
      </trkpt>
      <trkpt lat="45.85277" lon="-1.17948">
        <time>2011-07-14T12:29:02Z</time>
      </trkpt>
      <trkpt lat="45.85366" lon="-1.18096">
        <time>2011-07-14T12:29:26Z</time>
      </trkpt>
      <trkpt lat="45.85451" lon="-1.18236">
        <time>2011-07-14T12:29:49Z</time>
      </trkpt>
      <trkpt lat="45.85518" lon="-1.18346">
        <time>2011-07-14T12:30:07Z</time>
      </trkpt>
      <trkpt lat="45.85575" lon="-1.18439">
        <time>2011-07-14T12:30:23Z</time>
      </trkpt>
      <trkpt lat="45.85669" lon="-1.18597">
        <time>2011-07-14T12:30:49Z</time>
      </trkpt>
      <trkpt lat="45.85769" lon="-1.18764">
        <time>2011-07-14T12:31:15Z</time>
      </trkpt>
      <trkpt lat="45.85852" lon="-1.189">
        <time>2011-07-14T12:31:35Z</time>
      </trkpt>
      <trkpt lat="45.85949" lon="-1.1906">
        <time>2011-07-14T12:31:57Z</time>
      </trkpt>
      <trkpt lat="45.86039" lon="-1.1921">
        <time>2011-07-14T12:32:17Z</time>
      </trkpt>
      <trkpt lat="45.8612" lon="-1.19344">
        <time>2011-07-14T12:32:36Z</time>
      </trkpt>
      <trkpt lat="45.8619" lon="-1.1946">
        <ele>1</ele>
        <time>2011-07-14T12:32:54Z</time>
      </trkpt>
      <trkpt lat="45.86276" lon="-1.19603">
        <ele>3</ele>
        <time>2011-07-14T12:33:15Z</time>
      </trkpt>
      <trkpt lat="45.86349" lon="-1.19716">
        <ele>3</ele>
        <time>2011-07-14T12:33:35Z</time>
      </trkpt>
      <trkpt lat="45.86419" lon="-1.19812">
        <ele>4</ele>
        <time>2011-07-14T12:33:52Z</time>
      </trkpt>
      <trkpt lat="45.86494" lon="-1.19939">
        <ele>3</ele>
        <time>2011-07-14T12:34:13Z</time>
      </trkpt>
      <trkpt lat="45.86563" lon="-1.20054">
        <ele>4</ele>
        <time>2011-07-14T12:34:31Z</time>
      </trkpt>
      <trkpt lat="45.86576" lon="-1.20065">
        <ele>4</ele>
        <time>2011-07-14T12:34:36Z</time>
      </trkpt>
      <trkpt lat="45.86576" lon="-1.20069">
        <ele>4</ele>
        <time>2011-07-14T12:34:43Z</time>
      </trkpt>
      <trkpt lat="45.86574" lon="-1.2007">
        <ele>4</ele>
        <time>2011-07-14T12:34:52Z</time>
      </trkpt>
      <trkpt lat="45.86547" lon="-1.20085">
        <ele>4</ele>
        <time>2011-07-14T12:35:05Z</time>
      </trkpt>
      <trkpt lat="45.86542" lon="-1.20091">
        <ele>4</ele>
        <time>2011-07-14T12:35:08Z</time>
      </trkpt>
      <trkpt lat="45.86543" lon="-1.20098">
        <ele>3</ele>
        <time>2011-07-14T12:35:20Z</time>
      </trkpt>
      <trkpt lat="45.86543" lon="-1.20099">
        <ele>3</ele>
        <time>2011-07-14T12:39:35Z</time>
      </trkpt>
      <trkpt lat="45.86569" lon="-1.2013">
        <ele>3</ele>
        <time>2011-07-14T12:39:48Z</time>
      </trkpt>
      <trkpt lat="45.86628" lon="-1.20218">
        <ele>3</ele>
        <time>2011-07-14T12:40:07Z</time>
      </trkpt>
      <trkpt lat="45.86687" lon="-1.2033">
        <ele>3</ele>
        <time>2011-07-14T12:40:26Z</time>
      </trkpt>
      <trkpt lat="45.86733" lon="-1.2043">
        <ele>3</ele>
        <time>2011-07-14T12:40:43Z</time>
      </trkpt>
      <trkpt lat="45.86785" lon="-1.20558">
        <ele>3</ele>
        <time>2011-07-14T12:41:03Z</time>
      </trkpt>
      <trkpt lat="45.86845" lon="-1.20738">
        <ele>2</ele>
        <time>2011-07-14T12:41:27Z</time>
      </trkpt>
      <trkpt lat="45.86879" lon="-1.20867">
        <ele>3</ele>
        <time>2011-07-14T12:41:44Z</time>
      </trkpt>
      <trkpt lat="45.8688" lon="-1.20896">
        <ele>3</ele>
        <time>2011-07-14T12:41:49Z</time>
      </trkpt>
      <trkpt lat="45.86877" lon="-1.20915">
        <ele>3</ele>
        <time>2011-07-14T12:41:54Z</time>
      </trkpt>
      <trkpt lat="45.86869" lon="-1.20924">
        <ele>3</ele>
        <time>2011-07-14T12:41:58Z</time>
      </trkpt>
      <trkpt lat="45.86862" lon="-1.20927">
        <ele>3</ele>
        <time>2011-07-14T12:42:00Z</time>
      </trkpt>
      <trkpt lat="45.868" lon="-1.20958">
        <ele>3</ele>
        <time>2011-07-14T12:42:14Z</time>
      </trkpt>
      <trkpt lat="45.86789" lon="-1.20966">
        <ele>2</ele>
        <time>2011-07-14T12:42:17Z</time>
      </trkpt>
      <trkpt lat="45.86788" lon="-1.20989">
        <ele>2</ele>
        <time>2011-07-14T12:42:22Z</time>
      </trkpt>
      <trkpt lat="45.86843" lon="-1.21092">
        <ele>4</ele>
        <time>2011-07-14T12:42:41Z</time>
      </trkpt>
      <trkpt lat="45.86936" lon="-1.21271">
        <ele>2</ele>
        <time>2011-07-14T12:43:09Z</time>
      </trkpt>
      <trkpt lat="45.86988" lon="-1.21402">
        <ele>2</ele>
        <time>2011-07-14T12:43:28Z</time>
      </trkpt>
      <trkpt lat="45.87035" lon="-1.21525">
        <ele>1</ele>
        <time>2011-07-14T12:43:46Z</time>
      </trkpt>
      <trkpt lat="45.87093" lon="-1.21672">
        <ele>3</ele>
        <time>2011-07-14T12:44:09Z</time>
      </trkpt>
      <trkpt lat="45.87101" lon="-1.21696">
        <ele>3</ele>
        <time>2011-07-14T12:44:13Z</time>
      </trkpt>
      <trkpt lat="45.8711" lon="-1.21765">
        <ele>4</ele>
        <time>2011-07-14T12:44:26Z</time>
      </trkpt>
      <trkpt lat="45.87109" lon="-1.2178">
        <ele>4</ele>
        <time>2011-07-14T12:44:32Z</time>
      </trkpt>
      <trkpt lat="45.87109" lon="-1.21795">
        <ele>4</ele>
        <time>2011-07-14T12:44:39Z</time>
      </trkpt>
      <trkpt lat="45.87077" lon="-1.21842">
        <ele>4</ele>
        <time>2011-07-14T12:44:54Z</time>
      </trkpt>
      <trkpt lat="45.87048" lon="-1.21876">
        <ele>3</ele>
        <time>2011-07-14T12:45:02Z</time>
      </trkpt>
      <trkpt lat="45.87032" lon="-1.21891">
        <ele>3</ele>
        <time>2011-07-14T12:45:06Z</time>
      </trkpt>
      <trkpt lat="45.86995" lon="-1.21915">
        <ele>3</ele>
        <time>2011-07-14T12:45:14Z</time>
      </trkpt>
      <trkpt lat="45.86978" lon="-1.2193">
        <ele>2</ele>
        <time>2011-07-14T12:45:18Z</time>
      </trkpt>
      <trkpt lat="45.86916" lon="-1.21982">
        <ele>2</ele>
        <time>2011-07-14T12:45:32Z</time>
      </trkpt>
      <trkpt lat="45.8689" lon="-1.21994">
        <ele>2</ele>
        <time>2011-07-14T12:45:37Z</time>
      </trkpt>
      <trkpt lat="45.86809" lon="-1.22017">
        <ele>2</ele>
        <time>2011-07-14T12:45:52Z</time>
      </trkpt>
      <trkpt lat="45.86759" lon="-1.22037">
        <ele>2</ele>
        <time>2011-07-14T12:46:05Z</time>
      </trkpt>
      <trkpt lat="45.86746" lon="-1.2204">
        <ele>2</ele>
        <time>2011-07-14T12:46:08Z</time>
      </trkpt>
      <trkpt lat="45.86731" lon="-1.22038">
        <ele>2</ele>
        <time>2011-07-14T12:46:12Z</time>
      </trkpt>
      <trkpt lat="45.86722" lon="-1.22035">
        <ele>2</ele>
        <time>2011-07-14T12:46:14Z</time>
      </trkpt>
      <trkpt lat="45.867" lon="-1.2204">
        <ele>2</ele>
        <time>2011-07-14T12:46:19Z</time>
      </trkpt>
      <trkpt lat="45.86621" lon="-1.22113">
        <ele>1</ele>
        <time>2011-07-14T12:46:37Z</time>
      </trkpt>
      <trkpt lat="45.86612" lon="-1.22121">
        <ele>1</ele>
        <time>2011-07-14T12:46:39Z</time>
      </trkpt>
      <trkpt lat="45.866" lon="-1.22164">
        <ele>1</ele>
        <time>2011-07-14T12:46:45Z</time>
      </trkpt>
      <trkpt lat="45.86606" lon="-1.2222">
        <ele>1</ele>
        <time>2011-07-14T12:46:52Z</time>
      </trkpt>
      <trkpt lat="45.86581" lon="-1.2233">
        <ele>3</ele>
        <time>2011-07-14T12:47:07Z</time>
      </trkpt>
      <trkpt lat="45.86574" lon="-1.22355">
        <ele>3</ele>
        <time>2011-07-14T12:47:11Z</time>
      </trkpt>
      <trkpt lat="45.86551" lon="-1.2242">
        <ele>2</ele>
        <time>2011-07-14T12:47:24Z</time>
      </trkpt>
      <trkpt lat="45.86542" lon="-1.22431">
        <ele>2</ele>
        <time>2011-07-14T12:47:28Z</time>
      </trkpt>
      <trkpt lat="45.86536" lon="-1.22443">
        <ele>2</ele>
        <time>2011-07-14T12:47:31Z</time>
      </trkpt>
      <trkpt lat="45.8651" lon="-1.22475">
        <ele>2</ele>
        <time>2011-07-14T12:47:39Z</time>
      </trkpt>
      <trkpt lat="45.86497" lon="-1.225">
        <ele>2</ele>
        <time>2011-07-14T12:47:44Z</time>
      </trkpt>
      <trkpt lat="45.86472" lon="-1.22588">
        <ele>2</ele>
        <time>2011-07-14T12:48:01Z</time>
      </trkpt>
      <trkpt lat="45.86468" lon="-1.22601">
        <ele>2</ele>
        <time>2011-07-14T12:48:03Z</time>
      </trkpt>
      <trkpt lat="45.86446" lon="-1.2267">
        <ele>3</ele>
        <time>2011-07-14T12:48:13Z</time>
      </trkpt>
      <trkpt lat="45.8644" lon="-1.22683">
        <ele>3</ele>
        <time>2011-07-14T12:48:15Z</time>
      </trkpt>
      <trkpt lat="45.86396" lon="-1.22744">
        <ele>2</ele>
        <time>2011-07-14T12:48:30Z</time>
      </trkpt>
      <trkpt lat="45.8638" lon="-1.22774">
        <ele>2</ele>
        <time>2011-07-14T12:48:42Z</time>
      </trkpt>
      <trkpt lat="45.86373" lon="-1.22786">
        <ele>2</ele>
        <time>2011-07-14T12:48:45Z</time>
      </trkpt>
      <trkpt lat="45.86346" lon="-1.22836">
        <ele>2</ele>
        <time>2011-07-14T12:48:59Z</time>
      </trkpt>
      <trkpt lat="45.86344" lon="-1.22841">
        <ele>2</ele>
        <time>2011-07-14T12:49:01Z</time>
      </trkpt>
      <trkpt lat="45.86349" lon="-1.22852">
        <ele>3</ele>
        <time>2011-07-14T12:49:05Z</time>
      </trkpt>
      <trkpt lat="45.86351" lon="-1.22879">
        <ele>3</ele>
        <time>2011-07-14T12:49:09Z</time>
      </trkpt>
      <trkpt lat="45.86352" lon="-1.22947">
        <ele>3</ele>
        <time>2011-07-14T12:49:17Z</time>
      </trkpt>
      <trkpt lat="45.86314" lon="-1.23069">
        <ele>3</ele>
        <time>2011-07-14T12:49:32Z</time>
      </trkpt>
      <trkpt lat="45.86307" lon="-1.23084">
        <ele>2</ele>
        <time>2011-07-14T12:49:34Z</time>
      </trkpt>
      <trkpt lat="45.8629" lon="-1.23106">
        <ele>3</ele>
        <time>2011-07-14T12:49:38Z</time>
      </trkpt>
      <trkpt lat="45.8628" lon="-1.23113">
        <ele>3</ele>
        <time>2011-07-14T12:49:40Z</time>
      </trkpt>
      <trkpt lat="45.86252" lon="-1.23121">
        <ele>3</ele>
        <time>2011-07-14T12:49:46Z</time>
      </trkpt>
      <trkpt lat="45.86257" lon="-1.23112">
        <ele>3</ele>
        <time>2011-07-14T12:49:53Z</time>
      </trkpt>
      <trkpt lat="45.86285" lon="-1.23105">
        <ele>3</ele>
        <time>2011-07-14T12:50:06Z</time>
      </trkpt>
      <trkpt lat="45.86285" lon="-1.23105">
        <ele>3</ele>
        <time>2011-07-14T12:50:11Z</time>
      </trkpt>
      <trkpt lat="45.86284" lon="-1.2311">
        <ele>3</ele>
        <time>2011-07-14T12:50:15Z</time>
      </trkpt>
      <trkpt lat="45.86246" lon="-1.23118">
        <ele>3</ele>
        <time>2011-07-14T12:50:29Z</time>
      </trkpt>
      <trkpt lat="45.86234" lon="-1.2312">
        <ele>3</ele>
        <time>2011-07-14T12:50:32Z</time>
      </trkpt>
      <trkpt lat="45.86212" lon="-1.23116">
        <ele>3</ele>
        <time>2011-07-14T12:50:37Z</time>
      </trkpt>
      <trkpt lat="45.86188" lon="-1.23101">
        <ele>4</ele>
        <time>2011-07-14T12:50:42Z</time>
      </trkpt>
      <trkpt lat="45.86151" lon="-1.23039">
        <ele>4</ele>
        <time>2011-07-14T12:50:53Z</time>
      </trkpt>
      <trkpt lat="45.86133" lon="-1.23035">
        <ele>4</ele>
        <time>2011-07-14T12:50:57Z</time>
      </trkpt>
      <trkpt lat="45.86085" lon="-1.23065">
        <ele>4</ele>
        <time>2011-07-14T12:51:07Z</time>
      </trkpt>
      <trkpt lat="45.86084" lon="-1.23087">
        <ele>5</ele>
        <time>2011-07-14T12:51:13Z</time>
      </trkpt>
      <trkpt lat="45.86144" lon="-1.23162">
        <ele>4</ele>
        <time>2011-07-14T12:51:30Z</time>
      </trkpt>
      <trkpt lat="45.86176" lon="-1.232">
        <ele>4</ele>
        <time>2011-07-14T12:51:37Z</time>
      </trkpt>
      <trkpt lat="45.86224" lon="-1.23315">
        <ele>4</ele>
        <time>2011-07-14T12:51:53Z</time>
      </trkpt>
      <trkpt lat="45.86229" lon="-1.2333">
        <ele>4</ele>
        <time>2011-07-14T12:51:55Z</time>
      </trkpt>
      <trkpt lat="45.86245" lon="-1.23375">
        <ele>4</ele>
        <time>2011-07-14T12:52:01Z</time>
      </trkpt>
      <trkpt lat="45.86259" lon="-1.23416">
        <ele>4</ele>
        <time>2011-07-14T12:52:07Z</time>
      </trkpt>
      <trkpt lat="45.8627" lon="-1.23439">
        <ele>3</ele>
        <time>2011-07-14T12:52:11Z</time>
      </trkpt>
      <trkpt lat="45.86282" lon="-1.23454">
        <ele>3</ele>
        <time>2011-07-14T12:52:15Z</time>
      </trkpt>
      <trkpt lat="45.86277" lon="-1.23471">
        <ele>3</ele>
        <time>2011-07-14T12:52:21Z</time>
      </trkpt>
      <trkpt lat="45.86208" lon="-1.23506">
        <ele>4</ele>
        <time>2011-07-14T12:52:38Z</time>
      </trkpt>
      <trkpt lat="45.86203" lon="-1.23509">
        <ele>4</ele>
        <time>2011-07-14T12:52:39Z</time>
      </trkpt>
      <trkpt lat="45.86185" lon="-1.23533">
        <ele>4</ele>
        <time>2011-07-14T12:52:44Z</time>
      </trkpt>
      <trkpt lat="45.8618" lon="-1.23546">
        <ele>5</ele>
        <time>2011-07-14T12:52:46Z</time>
      </trkpt>
      <trkpt lat="45.86172" lon="-1.23592">
        <ele>6</ele>
        <time>2011-07-14T12:52:52Z</time>
      </trkpt>
      <trkpt lat="45.86199" lon="-1.23732">
        <ele>5</ele>
        <time>2011-07-14T12:53:10Z</time>
      </trkpt>
      <trkpt lat="45.86223" lon="-1.23796">
        <ele>5</ele>
        <time>2011-07-14T12:53:20Z</time>
      </trkpt>
      <trkpt lat="45.86215" lon="-1.23813">
        <ele>5</ele>
        <time>2011-07-14T12:53:25Z</time>
      </trkpt>
      <trkpt lat="45.86203" lon="-1.23816">
        <ele>5</ele>
        <time>2011-07-14T12:53:28Z</time>
      </trkpt>
      <trkpt lat="45.86125" lon="-1.23903">
        <ele>8</ele>
        <time>2011-07-14T12:53:47Z</time>
      </trkpt>
      <trkpt lat="45.86061" lon="-1.23972">
        <ele>9</ele>
        <time>2011-07-14T12:54:02Z</time>
      </trkpt>
      <trkpt lat="45.85982" lon="-1.24063">
        <ele>10</ele>
        <time>2011-07-14T12:54:21Z</time>
      </trkpt>
      <trkpt lat="45.85957" lon="-1.2409">
        <ele>11</ele>
        <time>2011-07-14T12:54:27Z</time>
      </trkpt>
      <trkpt lat="45.8595" lon="-1.241">
        <ele>11</ele>
        <time>2011-07-14T12:54:29Z</time>
      </trkpt>
      <trkpt lat="45.8593" lon="-1.24119">
        <ele>11</ele>
        <time>2011-07-14T12:54:35Z</time>
      </trkpt>
      <trkpt lat="45.85893" lon="-1.24164">
        <ele>13</ele>
        <time>2011-07-14T12:54:49Z</time>
      </trkpt>
      <trkpt lat="45.85893" lon="-1.24163">
        <ele>13</ele>
        <time>2011-07-14T12:55:01Z</time>
      </trkpt>
      <trkpt lat="45.85899" lon="-1.24193">
        <ele>13</ele>
        <time>2011-07-14T12:55:09Z</time>
      </trkpt>
      <trkpt lat="45.85893" lon="-1.24245">
        <ele>13</ele>
        <time>2011-07-14T12:55:18Z</time>
      </trkpt>
      <trkpt lat="45.85895" lon="-1.24291">
        <ele>13</ele>
        <time>2011-07-14T12:55:26Z</time>
      </trkpt>
      <trkpt lat="45.85856" lon="-1.24316">
        <ele>12</ele>
        <time>2011-07-14T12:55:34Z</time>
      </trkpt>
      <trkpt lat="45.85825" lon="-1.24316">
        <ele>11</ele>
        <time>2011-07-14T12:55:39Z</time>
      </trkpt>
      <trkpt lat="45.85804" lon="-1.24321">
        <ele>11</ele>
        <time>2011-07-14T12:55:42Z</time>
      </trkpt>
      <trkpt lat="45.85784" lon="-1.24336">
        <ele>10</ele>
        <time>2011-07-14T12:55:46Z</time>
      </trkpt>
      <trkpt lat="45.85741" lon="-1.24386">
        <ele>9</ele>
        <time>2011-07-14T12:55:55Z</time>
      </trkpt>
      <trkpt lat="45.85729" lon="-1.24409">
        <ele>9</ele>
        <time>2011-07-14T12:55:59Z</time>
      </trkpt>
      <trkpt lat="45.85711" lon="-1.24429">
        <ele>9</ele>
        <time>2011-07-14T12:56:03Z</time>
      </trkpt>
      <trkpt lat="45.857" lon="-1.24438">
        <ele>9</ele>
        <time>2011-07-14T12:56:05Z</time>
      </trkpt>
      <trkpt lat="45.85657" lon="-1.24496">
        <ele>9</ele>
        <time>2011-07-14T12:56:15Z</time>
      </trkpt>
      <trkpt lat="45.85646" lon="-1.24521">
        <ele>8</ele>
        <time>2011-07-14T12:56:19Z</time>
      </trkpt>
      <trkpt lat="45.85615" lon="-1.24547">
        <ele>8</ele>
        <time>2011-07-14T12:56:26Z</time>
      </trkpt>
      <trkpt lat="45.85593" lon="-1.24547">
        <ele>8</ele>
        <time>2011-07-14T12:56:30Z</time>
      </trkpt>
      <trkpt lat="45.85556" lon="-1.24563">
        <ele>6</ele>
        <time>2011-07-14T12:56:36Z</time>
      </trkpt>
      <trkpt lat="45.85487" lon="-1.24643">
        <ele>5</ele>
        <time>2011-07-14T12:56:51Z</time>
      </trkpt>
      <trkpt lat="45.85478" lon="-1.2465">
        <ele>5</ele>
        <time>2011-07-14T12:56:53Z</time>
      </trkpt>
      <trkpt lat="45.85457" lon="-1.24675">
        <ele>5</ele>
        <time>2011-07-14T12:57:00Z</time>
      </trkpt>
      <trkpt lat="45.85436" lon="-1.24709">
        <ele>5</ele>
        <time>2011-07-14T12:57:07Z</time>
      </trkpt>
      <trkpt lat="45.85424" lon="-1.24729">
        <ele>5</ele>
        <time>2011-07-14T12:57:11Z</time>
      </trkpt>
      <trkpt lat="45.85357" lon="-1.24798">
        <ele>4</ele>
        <time>2011-07-14T12:57:26Z</time>
      </trkpt>
      <trkpt lat="45.85293" lon="-1.24871">
        <ele>4</ele>
        <time>2011-07-14T12:57:42Z</time>
      </trkpt>
      <trkpt lat="45.85229" lon="-1.2496">
        <ele>4</ele>
        <time>2011-07-14T12:57:58Z</time>
      </trkpt>
      <trkpt lat="45.85179" lon="-1.25035">
        <ele>5</ele>
        <time>2011-07-14T12:58:11Z</time>
      </trkpt>
      <trkpt lat="45.85162" lon="-1.25063">
        <ele>5</ele>
        <time>2011-07-14T12:58:16Z</time>
      </trkpt>
      <trkpt lat="45.85125" lon="-1.25092">
        <ele>5</ele>
        <time>2011-07-14T12:58:30Z</time>
      </trkpt>
      <trkpt lat="45.85117" lon="-1.25101">
        <ele>5</ele>
        <time>2011-07-14T12:58:41Z</time>
      </trkpt>
      <trkpt lat="45.85115" lon="-1.25107">
        <ele>5</ele>
        <time>2011-07-14T12:58:47Z</time>
      </trkpt>
      <trkpt lat="45.85113" lon="-1.25114">
        <ele>5</ele>
        <time>2011-07-14T12:59:03Z</time>
      </trkpt>
      <trkpt lat="45.85116" lon="-1.25124">
        <ele>5</ele>
        <time>2011-07-14T12:59:23Z</time>
      </trkpt>
    </trkseg>
  </trk>
</gpx>